GFSSE_250_spd_003.txt.gz
Wind_Speed
20 21 24 24 19 22 28 29 28 30 36 35 32 36 39 43 47 42 30 28 24 20 25 29 27 23 21 17 17 20 22 20 16 12 9 8 5 6 5 4 4 4 6
24 24 22 21 25 24 18 23 28 34 30 31 39 41 44 44 44 35 26 24 16 19 25 30 28 27 23 18 21 25 21 18 15 14 14 11 9 8 5 3 4 4 4
27 23 23 21 20 21 26 30 29 31 35 34 38 41 40 39 35 26 23 18 11 19 23 30 30 28 23 22 21 20 18 17 17 19 18 16 16 10 5 2 3 2 3
24 22 22 21 23 28 26 28 28 32 34 36 40 38 34 34 26 20 17 12 8 16 19 24 29 32 22 16 17 15 16 14 14 15 14 17 18 16 7 4 5 6 6
25 20 16 17 21 22 23 25 26 31 34 36 33 28 27 25 20 18 12 7 9 11 17 18 24 29 26 15 13 10 10 8 6 6 9 11 14 17 10 5 5 7 5
19 20 19 19 22 21 21 26 30 29 30 26 23 24 23 20 17 13 6 9 11 11 11 15 20 25 26 20 9 5 3 2 2 3 6 5 10 13 14 6 2 4 5
12 15 19 21 21 23 24 24 24 22 20 23 22 19 17 17 15 10 7 9 11 9 9 14 16 21 22 19 14 5 1 2 3 1 2 3 4 8 12 11 4 3 4
15 17 18 20 21 21 20 20 18 17 18 16 15 13 16 17 14 10 7 8 9 10 13 13 15 18 17 16 12 10 2 4 6 4 4 3 3 3 7 9 6 4 3
16 19 19 18 16 19 16 11 13 12 12 12 13 14 15 14 13 14 12 11 11 11 14 17 17 15 13 11 8 7 5 3 7 7 8 7 6 4 3 5 7 6 4
19 18 14 13 13 9 9 9 9 9 11 13 12 13 15 17 18 16 16 15 14 16 18 19 20 17 13 13 11 9 7 3 4 8 9 10 7 7 6 3 5 5 3
13 12 9 6 6 6 4 4 7 11 13 15 17 21 22 23 24 25 25 25 24 22 22 29 35 34 25 11 11 13 12 8 4 6 11 11 10 11 11 7 5 4 3
4 4 4 5 5 1 4 8 14 16 17 20 20 20 21 23 23 25 23 23 25 28 32 24 31 34 41 41 21 12 9 10 9 9 10 13 13 12 10 11 12 6 3
4 5 5 3 5 10 13 15 15 17 19 19 17 18 20 21 21 22 24 24 27 27 27 29 27 30 29 39 39 39 10 15 14 13 12 11 14 15 17 15 11 11 9
3 2 3 8 14 17 17 17 16 15 16 16 16 17 19 20 22 23 24 25 25 26 26 29 32 33 28 31 40 39 39 30 15 22 19 16 15 16 21 20 14 14 14
5 11 17 18 17 16 17 17 17 16 16 16 16 17 18 19 21 20 20 22 26 29 28 27 33 31 32 34 30 34 34 41 33 14 24 23 20 18 17 21 21 19 13
17 16 17 16 16 17 17 18 18 19 18 14 12 11 11 14 15 16 14 17 22 27 30 28 32 34 33 34 35 31 29 35 46 41 16 28 27 23 22 20 21 24 19
15 15 15 16 16 15 15 14 13 12 12 11 10 10 11 14 17 12 11 14 18 23 26 29 27 33 38 36 35 37 29 30 38 38 44 36 29 32 27 25 23 20 25
14 13 13 14 14 13 13 12 11 10 10 11 11 13 15 15 17 18 18 19 19 21 22 25 29 32 36 37 38 37 36 33 34 38 41 43 46 16 35 33 28 26 24
15 14 14 12 9 8 9 10 11 11 14 16 17 18 18 19 20 20 21 21 22 22 24 23 25 30 33 36 36 36 36 36 36 44 41 46 57 31 19 35 38 36 32
15 12 8 7 6 5 6 8 10 14 15 15 18 20 21 23 23 22 23 23 21 22 24 24 24 28 32 34 32 33 34 37 40 41 48 43 46 40 36 34 35 41 37
11 9 6 5 3 4 7 10 12 13 16 19 21 22 22 21 21 22 22 23 22 21 23 22 22 29 34 33 34 32 29 31 31 40 47 51 43 47 45 36 31 27 41
8 7 6 5 3 3 9 12 14 13 15 18 21 21 21 21 20 22 22 22 22 21 21 22 23 33 38 32 31 31 37 27 29 33 37 49 44 46 53 44 36 28 19
6 6 6 5 3 5 10 14 14 13 16 18 20 21 20 21 21 23 24 25 24 23 22 25 26 35 33 37 34 35 30 34 26 29 39 40 41 51 52 48 31 25 19
6 7 7 6 6 8 12 15 16 19 21 23 23 21 21 22 23 25 25 25 26 23 23 25 32 36 33 37 36 35 32 35 34 33 33 34 39 44 49 52 47 27 30
10 9 9 9 10 14 16 17 19 22 25 26 24 22 22 23 26 28 27 27 26 25 24 25 27 31 32 36 38 39 37 36 41 38 33 32 37 46 47 49 48 38 25
13 13 14 14 15 17 19 20 22 25 26 25 24 24 27 28 30 31 30 26 26 28 32 28 32 34 36 35 38 44 35 37 42 36 39 37 39 47 50 45 50 47 48

GFSSE_250_spd_006.txt.gz
Wind_Speed
21 21 24 27 29 25 25 24 26 26 30 41 32 37 42 45 44 32 27 19 13 18 23 25 25 18 19 20 25 24 21 18 14 11 7 4 5 4 3 3 4 6 6
28 25 24 26 21 27 24 19 29 34 33 37 39 44 44 43 30 28 23 15 10 16 22 30 25 17 18 21 23 24 23 20 19 15 12 11 6 4 2 1 2 4 4
29 29 27 26 26 26 27 31 33 37 36 38 39 40 38 28 25 25 18 9 7 12 16 24 29 17 16 16 17 20 20 20 19 17 12 15 13 4 1 2 2 2 3
32 31 25 24 25 22 25 26 29 30 34 37 37 33 26 27 25 19 10 7 6 8 14 19 27 21 10 10 10 13 14 13 13 11 10 13 16 13 5 6 2 2 3
29 26 25 20 19 21 22 25 28 29 31 29 28 25 25 21 15 10 5 7 5 9 12 15 22 23 14 6 5 4 3 4 7 9 9 10 14 16 10 6 5 4 4
18 14 17 20 20 22 25 25 27 27 27 22 23 22 16 14 12 11 9 9 9 11 11 14 17 19 16 9 3 2 1 3 4 6 7 6 10 14 14 6 5 4 6
14 14 14 17 22 26 26 27 25 23 19 20 18 14 15 11 11 11 10 9 9 12 14 15 16 14 14 11 6 2 1 3 3 4 6 6 6 9 13 10 7 4 7
16 16 16 20 22 26 24 21 18 16 16 14 12 13 13 10 12 11 13 11 11 13 17 19 17 11 7 8 4 5 4 3 2 3 7 9 9 6 8 10 7 5 4
14 14 18 25 22 18 19 13 13 12 10 10 10 13 17 20 20 18 20 19 20 24 27 34 32 23 8 5 2 3 3 4 1 11 10 12 11 9 8 7 7 6 5
15 17 18 16 15 12 9 11 8 7 9 12 16 18 21 23 25 28 25 25 24 26 27 32 29 34 37 17 3 4 2 3 4 9 26 18 16 11 8 9 8 6 5
13 11 12 11 8 8 7 4 9 14 17 17 19 21 24 24 24 26 26 26 25 23 27 29 28 33 36 41 27 1 3 3 4 12 20 19 17 12 7 11 12 9 7
7 6 7 7 8 3 3 11 14 16 15 17 19 23 24 23 23 25 27 31 27 28 33 30 31 26 32 34 34 38 13 8 6 8 13 16 20 17 11 6 13 13 7
4 6 5 5 2 8 13 14 15 14 15 18 21 22 22 24 24 27 13 21 24 25 26 32 34 31 32 28 26 35 38 39 7 19 18 14 15 18 17 12 8 9 14
4 3 1 6 12 14 14 13 13 14 17 19 20 21 21 20 20 19 16 16 21 23 22 25 31 35 34 32 28 25 27 35 34 30 16 24 20 16 19 16 15 19 23
2 4 13 15 14 14 15 15 15 15 16 17 16 14 13 15 11 11 13 19 21 20 22 25 29 32 34 35 33 30 28 33 33 41 37 8 21 20 17 20 25 20 18
14 17 16 15 15 16 17 18 17 15 12 12 11 10 12 12 12 7 13 17 19 22 22 24 27 31 34 36 36 33 34 35 35 39 40 31 10 21 21 21 22 27 25
17 14 14 15 15 14 12 12 11 12 12 10 11 12 14 15 15 13 13 14 16 21 24 25 26 29 34 29 30 33 32 33 39 43 41 38 33 16 20 24 25 25 28
15 13 14 14 13 11 10 11 11 11 11 12 13 14 14 15 15 15 16 17 19 21 22 23 24 28 33 30 28 26 29 29 31 36 42 39 37 27 20 10 32 32 27
13 14 14 11 7 8 10 10 11 10 12 13 15 16 17 17 17 17 17 19 19 20 20 21 20 24 31 30 28 30 31 30 32 33 35 33 39 37 28 15 11 33 36
15 14 10 6 5 7 10 10 9 11 12 14 16 16 16 16 16 19 19 18 17 18 19 20 20 21 31 28 32 30 29 29 31 34 30 31 33 38 40 28 17 9 29
13 10 7 5 4 6 7 9 10 11 13 15 17 17 18 19 18 17 17 18 18 18 18 17 19 22 27 23 30 34 31 33 29 32 36 31 28 31 39 37 24 21 11
10 9 8 7 4 2 5 8 9 10 15 18 19 19 17 15 16 18 19 20 19 18 17 16 17 22 23 26 28 28 32 32 30 37 37 36 36 30 34 36 28 28 27
10 9 7 6 4 4 7 10 13 13 15 18 19 20 19 18 20 21 21 20 21 21 19 18 19 18 24 25 28 26 31 36 35 30 35 37 35 33 30 36 33 27 27
10 9 8 7 6 7 10 12 12 14 16 18 19 20 19 20 22 25 26 24 24 23 20 20 22 22 26 29 32 30 34 33 33 33 34 40 41 36 29 32 35 31 28
11 11 10 9 9 11 13 14 14 16 19 19 19 20 21 23 25 28 28 28 26 23 25 24 26 28 30 31 32 37 38 38 34 31 34 41 40 38 37 38 33 31 33
14 13 12 12 12 14 16 16 17 18 21 21 21 22 23 25 28 31 33 34 32 28 28 24 31 34 33 36 39 39 43 42 34 34 37 40 40 39 36 38 38 35 34

GFSSE_250_spd_009.txt.gz
Wind_Speed
22 24 24 25 25 24 26 24 29 22 31 42 41 43 46 44 35 27 22 9 9 14 22 23 20 17 21 21 22 23 20 18 16 14 11 7 5 5 4 4 7 9 8
27 28 26 23 25 27 22 28 28 30 40 40 41 41 41 35 28 26 18 8 7 12 20 24 17 17 18 20 24 24 22 20 16 15 16 15 9 5 3 3 4 7 6
31 30 28 28 26 19 23 30 32 31 31 34 36 36 35 29 25 21 14 6 6 11 16 25 18 11 13 16 17 18 18 17 15 13 15 18 19 11 4 4 4 5 5
29 27 28 26 27 27 28 26 24 28 31 31 32 33 28 23 17 12 8 6 6 12 14 19 20 11 7 8 10 11 12 15 12 12 13 16 18 15 6 6 6 6 8
21 22 23 24 23 24 22 22 26 28 30 30 30 26 20 16 13 11 11 9 9 9 12 16 16 13 8 3 5 4 5 9 10 10 8 10 13 14 9 7 7 7 8
15 18 13 13 14 16 20 27 27 30 29 25 22 16 17 12 11 12 9 8 8 11 14 14 13 11 7 5 1 2 4 8 10 9 11 11 10 9 13 9 6 6 8
20 18 16 15 15 16 21 26 26 24 22 18 13 13 12 11 12 13 12 12 15 26 29 25 9 2 4 4 4 4 4 5 7 10 13 14 10 9 7 10 8 7 7
20 16 19 19 20 23 22 18 20 18 15 9 8 12 15 18 20 22 25 27 29 32 28 30 33 17 3 2 4 5 5 7 8 3 7 15 13 10 6 7 9 7 5
19 13 16 18 21 17 16 15 13 11 6 10 14 15 19 25 29 27 21 26 27 29 28 30 33 34 25 2 6 8 4 6 13 6 12 10 12 12 10 9 6 7 4
18 17 18 13 12 11 9 10 5 9 15 15 17 21 25 26 26 27 27 28 32 36 32 31 31 30 30 25 3 7 6 6 12 8 8 15 18 15 12 9 9 7 7
18 17 11 8 6 8 6 5 13 14 14 19 19 22 22 25 29 29 23 26 25 30 33 32 30 28 29 36 28 5 7 9 11 15 16 21 17 17 7 9 7 9 10
13 8 4 5 6 5 10 12 13 12 15 18 20 21 19 24 17 16 22 20 23 28 30 32 34 29 22 20 27 29 19 9 17 15 14 14 18 17 14 6 8 9 9
1 2 4 3 5 13 13 14 13 13 17 20 23 19 17 9 15 16 18 21 23 23 25 31 33 35 28 28 26 27 35 29 28 15 30 22 16 16 18 16 12 13 12
1 2 4 8 13 14 12 12 14 18 19 19 17 17 14 11 12 12 19 19 19 21 23 24 29 32 29 29 26 27 36 32 29 30 22 20 28 19 17 21 20 20 18
3 6 11 15 14 12 14 15 15 16 14 11 10 14 13 11 7 8 13 15 17 19 18 20 25 28 23 25 24 22 30 33 36 32 34 29 13 26 22 20 24 24 21
12 15 16 14 15 18 19 16 13 11 10 10 11 12 11 11 10 11 12 14 15 18 17 18 20 25 21 21 19 24 27 28 30 34 34 34 24 12 21 18 21 24 27
18 16 16 17 16 14 11 12 13 12 11 11 12 12 11 10 9 8 11 13 13 14 16 16 15 20 21 21 22 23 25 28 24 28 28 32 34 20 7 21 22 25 26
15 17 16 16 13 12 12 12 12 10 10 10 11 11 11 11 11 12 12 12 12 14 13 13 13 14 20 19 24 24 21 25 30 27 26 26 29 35 23 6 22 32 32
17 16 16 14 12 12 10 11 10 9 10 12 13 12 11 13 13 12 12 12 13 15 15 12 13 12 16 16 21 22 24 23 28 32 26 27 26 26 35 29 19 15 17
17 16 13 10 10 10 10 9 7 8 11 12 13 14 15 14 13 14 15 16 16 17 17 15 13 14 14 16 21 23 22 23 24 28 32 31 27 24 27 27 26 25 20
17 15 10 10 8 7 6 8 7 9 10 12 14 14 14 14 14 17 19 20 19 18 18 19 19 19 15 20 24 26 26 30 34 27 27 30 30 31 26 25 26 26 27
13 11 8 7 7 4 2 7 9 8 9 12 13 13 14 15 18 19 21 23 23 22 20 20 20 21 22 27 30 29 29 30 32 33 35 30 30 30 30 24 22 25 25
15 12 10 8 8 5 2 5 7 8 10 13 13 14 14 17 18 22 24 25 26 27 26 24 24 24 22 24 29 30 29 31 33 34 30 34 35 35 31 30 24 22 21
12 12 11 10 8 8 6 6 8 10 10 13 15 16 17 18 21 23 25 27 29 30 29 29 28 27 25 31 30 33 33 35 37 38 35 33 29 35 34 29 32 27 26
11 12 11 11 11 11 9 8 9 11 13 14 16 18 18 20 23 25 28 30 30 34 36 35 33 29 30 31 31 31 35 35 35 36 37 37 39 33 33 35 29 25 29
11 12 11 12 12 12 11 11 12 13 15 17 18 19 21 22 23 26 29 33 35 38 42 41 40 38 30 32 34 38 37 35 37 40 38 39 37 38 41 39 36 33 29

GFSSE_250_spd_012.txt.gz
Wind_Speed
24 25 25 24 18 15 22 25 26 31 31 35 36 40 40 39 36 28 20 5 11 17 23 18 14 16 18 20 20 20 20 17 17 17 17 15 11 8 6 6 6 7 7
28 33 25 20 19 24 21 27 23 31 34 30 36 37 37 34 26 20 13 3 9 16 17 17 12 15 18 20 22 20 18 15 12 16 17 16 12 11 10 8 8 8 8
33 30 24 23 28 28 26 29 25 28 28 33 34 34 31 25 20 15 10 7 9 14 14 17 8 8 13 18 19 18 15 14 12 12 12 17 16 10 10 9 11 12 8
36 29 23 21 25 24 23 25 24 24 29 30 32 31 23 20 15 11 11 6 12 15 16 14 11 3 5 7 11 12 11 12 12 11 11 13 15 14 10 10 10 13 12
26 19 18 16 16 14 15 13 19 23 27 29 27 22 19 13 12 12 11 11 15 15 15 11 10 3 2 3 2 5 7 13 17 18 15 14 14 14 15 9 9 12 13
19 20 19 20 16 14 15 17 21 22 22 22 18 16 13 13 15 16 18 17 19 23 25 10 3 4 3 3 4 5 9 10 17 19 11 17 16 12 13 14 10 8 10
22 22 21 20 19 17 19 20 20 17 16 14 10 10 14 18 19 24 23 24 25 25 28 30 16 5 2 6 5 6 13 5 8 11 9 9 16 17 10 11 12 11 8
21 23 22 17 17 18 19 15 14 14 10 7 10 17 21 21 24 21 25 27 26 27 27 29 26 12 7 9 6 7 12 14 10 8 5 10 13 16 12 10 11 9 8
25 25 21 20 16 10 12 10 10 8 11 11 17 20 21 22 27 26 25 29 32 31 28 24 26 27 9 8 9 2 6 11 12 11 14 15 13 10 18 15 9 7 5
25 21 16 16 8 8 9 8 13 13 14 19 20 21 26 25 20 20 23 27 30 31 29 24 21 34 35 9 4 3 3 5 13 15 12 19 16 15 15 16 12 7 5
19 14 14 6 6 6 10 14 14 14 17 19 19 20 17 14 18 17 21 23 25 30 30 30 25 16 25 29 22 3 7 8 10 16 21 17 18 19 20 20 17 7 5
9 6 2 2 4 10 14 14 12 15 18 20 16 17 14 18 14 17 21 20 19 22 27 28 25 22 26 29 27 25 18 16 13 11 19 24 23 26 20 23 15 11 4
1 1 2 5 10 12 14 11 12 17 20 19 15 11 9 7 9 10 18 17 17 17 20 22 23 22 20 26 26 24 27 29 30 27 19 14 29 26 22 21 19 16 14
2 3 7 11 14 14 12 12 16 15 17 13 11 9 6 5 6 12 15 16 16 15 16 21 19 19 18 15 19 21 25 26 27 35 35 32 17 29 20 17 20 20 19
4 9 12 15 14 14 16 15 15 11 8 7 7 7 6 6 9 9 11 11 13 13 12 14 15 13 12 10 14 13 17 21 26 28 29 36 36 12 20 16 19 18 21
10 16 16 14 16 18 16 13 10 8 7 8 7 7 7 8 9 10 11 14 11 10 11 10 11 11 14 15 13 16 18 17 21 26 27 27 30 35 14 19 18 20 23
18 17 17 19 18 14 13 13 12 11 9 8 8 9 10 11 12 13 13 14 15 18 15 13 14 13 11 15 16 17 19 20 19 18 21 25 27 26 31 11 14 24 26
19 20 20 17 13 13 13 12 11 8 7 7 10 11 13 14 14 16 17 19 21 20 19 16 15 17 15 17 22 19 19 23 23 22 20 23 23 24 18 20 20 21 15
21 22 19 17 15 13 10 9 7 6 7 8 10 13 14 14 14 16 18 18 17 18 20 17 16 18 19 21 25 26 24 24 23 24 23 18 20 23 22 17 17 20 21
21 21 17 15 14 12 9 7 6 5 6 9 11 11 12 13 14 17 18 20 22 22 23 23 20 18 19 20 25 27 27 27 26 27 24 24 20 19 22 22 21 21 20
21 19 16 14 12 10 8 7 4 3 6 9 12 13 12 13 14 17 19 21 22 23 23 22 23 23 23 23 23 27 30 32 35 35 31 31 30 25 21 24 25 23 25
20 18 13 13 11 9 6 3 2 4 6 9 12 12 12 13 15 17 19 21 24 26 27 27 26 25 27 25 25 27 27 31 34 35 33 33 34 33 29 23 20 26 26
22 17 14 13 12 7 3 1 3 6 7 11 13 12 13 14 15 18 19 22 24 26 28 31 31 31 29 28 29 31 29 29 32 30 31 35 35 34 36 33 27 21 24
16 14 11 11 13 12 9 6 7 9 10 11 14 12 13 16 18 20 22 24 26 29 32 34 36 36 37 31 25 27 28 31 34 34 35 37 35 35 34 36 35 31 23
14 12 11 11 12 12 11 10 10 11 13 13 13 13 14 16 18 20 23 26 29 31 33 35 37 37 37 34 32 31 33 32 34 35 36 43 40 33 33 30 34 35 34
14 13 13 13 14 14 13 14 15 14 16 16 16 14 15 19 21 22 25 28 30 31 33 34 34 35 35 34 33 32 32 33 35 36 38 41 42 44 39 31 31 31 36

GFSSE_250_spd_015.txt.gz
Wind_Speed
25 28 26 32 25 16 21 20 28 34 30 31 35 37 37 35 27 23 17 9 13 21 20 14 14 14 18 20 19 18 16 19 20 21 21 16 13 13 10 10 9 9 11
28 29 33 32 19 24 26 30 28 31 29 31 32 32 33 28 23 16 13 10 14 17 17 13 11 11 18 19 18 17 17 17 16 16 19 19 12 12 10 11 12 11 10
33 35 35 20 21 20 21 21 21 21 23 27 29 30 28 21 15 11 12 12 17 18 15 11 4 8 13 15 14 18 16 16 15 16 15 17 17 14 11 10 12 13 11
34 37 28 19 17 18 14 14 13 15 21 24 24 24 19 16 14 15 13 15 18 15 13 7 8 2 5 8 7 9 11 11 14 14 15 17 13 16 16 12 12 14 14
33 31 19 21 18 18 13 16 18 18 20 19 19 18 12 14 19 19 17 17 18 22 18 4 2 2 4 5 1 6 6 9 12 11 10 14 18 17 16 15 13 12 13
33 26 18 20 21 20 16 20 20 17 15 14 13 10 13 22 22 20 20 21 21 23 26 17 1 3 4 4 3 4 1 5 10 6 6 10 11 16 14 13 15 14 11
25 20 21 21 21 21 17 15 13 13 10 9 9 13 20 20 23 25 21 18 22 21 25 24 14 4 3 2 4 4 3 4 6 2 5 8 9 12 16 14 14 15 13
22 23 21 18 22 12 9 11 11 7 9 12 14 18 23 22 23 26 24 26 25 24 24 29 23 8 5 3 2 3 4 7 8 10 10 13 10 15 10 16 15 11 12
25 23 16 14 13 8 9 7 10 11 14 14 16 22 25 21 18 23 23 24 26 27 21 24 32 18 6 0 3 3 6 9 14 17 18 18 18 21 15 15 15 8 7
24 16 10 11 5 6 7 14 13 16 16 17 22 21 16 14 17 19 20 22 25 28 25 20 29 28 12 5 6 10 10 11 13 18 22 21 26 20 20 12 13 14 7
14 7 6 3 5 10 15 14 16 16 18 18 19 13 11 12 15 18 17 16 19 24 24 23 23 25 24 18 16 20 18 16 18 13 15 22 24 23 21 14 12 15 11
6 4 1 2 10 15 14 14 14 15 15 15 12 10 11 7 9 14 15 15 15 19 17 20 19 20 19 18 16 16 15 18 18 18 19 17 17 23 14 14 14 15 8
3 0 1 7 15 15 12 12 15 16 14 10 8 6 2 4 8 13 13 12 11 14 14 14 14 10 13 13 14 15 12 19 23 21 26 24 19 20 17 13 16 18 15
3 2 6 13 17 14 12 15 14 12 10 8 5 4 5 7 9 14 15 14 12 11 10 10 12 12 11 13 13 15 16 17 21 22 29 32 35 13 12 11 12 12 16
5 6 13 15 15 14 16 16 11 6 4 5 5 7 8 10 14 16 17 17 15 12 10 9 10 11 12 18 15 17 19 21 23 22 25 28 30 30 9 8 12 14 18
7 12 16 16 16 16 14 11 7 4 5 8 10 11 14 15 16 18 18 19 18 16 13 13 15 14 14 19 21 20 19 18 19 24 27 28 29 22 18 11 12 12 16
15 17 17 21 20 15 12 11 8 6 6 9 12 14 13 14 16 17 18 19 18 17 17 15 13 14 15 15 20 24 23 22 23 19 21 24 26 24 19 17 14 17 14
19 20 23 20 17 15 14 10 7 5 7 11 11 11 13 14 14 17 19 19 20 21 22 20 20 19 17 18 19 21 21 23 25 24 21 17 19 22 20 20 19 20 22
22 23 20 18 17 14 11 9 5 4 8 10 10 12 13 13 16 19 20 22 24 24 25 25 23 22 21 23 24 23 24 25 26 27 24 22 20 19 19 19 19 19 20
23 21 19 19 17 13 9 7 5 3 6 8 9 11 11 12 14 17 19 23 25 28 29 28 28 26 24 23 24 23 26 26 26 28 28 26 29 27 19 18 22 20 20
26 23 19 16 14 12 9 6 5 2 5 9 9 10 10 11 14 16 18 22 24 25 27 29 30 29 29 26 23 23 26 27 28 31 33 32 33 32 29 21 19 21 22
27 23 19 17 14 11 9 5 3 2 4 8 8 8 10 12 12 14 17 20 22 25 26 30 33 34 33 32 28 27 24 25 29 30 33 34 35 36 34 31 25 21 20
26 22 18 17 15 13 9 6 2 2 5 8 8 9 11 12 15 17 20 22 23 27 30 32 35 34 33 34 34 34 34 32 28 29 31 32 35 36 37 34 30 27 23
21 17 14 14 15 15 14 10 5 4 5 7 8 9 10 14 14 17 18 20 24 28 30 33 33 32 33 35 33 33 32 33 33 31 31 31 34 37 35 33 35 33 28
22 19 14 13 15 17 16 13 9 6 7 8 9 12 13 14 15 17 19 22 25 28 30 31 31 32 34 34 33 32 30 31 33 34 35 35 37 37 34 33 36 33 29
18 17 16 17 18 18 18 17 14 10 10 9 11 15 16 18 18 20 22 23 26 29 30 32 33 35 35 35 34 32 33 33 34 33 35 37 40 39 34 34 33 27 28

GFSSE_250_spd_018.txt.gz
Wind_Speed
25 26 26 31 26 15 14 21 25 29 31 30 29 28 30 27 18 14 14 11 14 16 15 11 12 16 18 18 18 17 19 18 18 19 20 17 14 16 12 10 11 9 10
28 29 28 30 17 17 19 20 23 22 16 18 22 26 24 17 14 13 13 13 16 12 12 9 10 16 18 17 19 17 17 17 21 16 18 16 17 12 12 10 13 11 11
29 28 26 18 16 20 18 16 13 13 13 16 19 19 16 14 14 14 14 16 16 13 5 6 7 12 14 15 15 16 13 10 10 17 20 15 19 19 16 13 13 14 14
31 30 26 8 21 20 17 13 14 15 16 16 15 13 14 16 16 16 16 16 19 18 6 5 7 7 8 9 13 5 5 7 10 7 12 8 15 21 18 18 18 16 17
31 27 18 14 18 19 16 14 16 14 12 10 10 13 17 19 18 17 17 22 25 24 16 9 9 9 7 3 5 2 4 2 4 7 6 7 9 15 18 16 19 19 16
28 23 17 18 16 18 15 12 11 7 6 8 12 18 18 21 20 19 21 28 28 27 20 8 10 8 5 3 4 3 5 9 11 10 8 13 12 12 16 17 17 17 17
24 21 20 12 14 14 8 9 6 4 9 11 16 19 18 20 19 19 24 29 30 24 24 10 12 9 6 4 1 1 13 11 13 8 9 7 6 12 15 14 17 15 15
22 22 16 10 11 8 8 6 6 12 14 16 20 19 15 18 19 21 24 28 30 25 29 21 13 10 8 9 8 8 8 13 14 17 15 14 15 17 16 14 14 14 13
23 20 9 8 6 7 6 10 13 16 16 17 21 18 16 17 19 22 24 27 28 23 30 26 17 11 10 9 10 13 13 15 15 15 17 19 18 15 14 13 14 11 10
19 8 7 5 5 4 13 13 18 17 19 20 15 10 10 14 20 21 21 22 24 22 24 28 25 23 21 19 16 15 15 18 18 18 17 18 18 20 18 11 6 8 10
8 6 5 4 5 13 14 16 16 17 21 17 12 9 6 12 17 21 19 18 20 19 21 21 21 22 20 18 20 17 18 19 19 20 21 17 11 12 9 9 9 7 13
6 5 4 5 12 14 14 12 14 15 15 7 8 8 8 12 16 20 17 15 16 16 16 15 16 20 21 23 24 25 23 25 25 30 28 21 5 8 7 3 4 8 11
5 3 2 11 14 14 12 13 14 13 9 4 7 9 10 14 18 18 17 14 11 11 13 14 17 17 16 17 20 21 22 23 26 26 30 35 19 12 1 5 5 5 11
2 2 8 15 14 12 12 14 13 10 8 7 9 12 14 15 16 17 17 16 12 10 11 10 12 14 17 17 16 19 21 22 23 26 30 33 28 6 5 7 9 8 10
1 5 14 16 13 13 14 12 8 5 8 11 14 14 16 15 17 18 18 18 15 15 13 12 12 11 11 17 18 17 17 22 21 23 25 25 26 22 11 6 11 15 11
5 11 16 15 15 16 14 10 7 8 13 14 14 14 15 15 19 20 18 18 19 17 17 15 14 14 14 17 20 21 21 23 24 21 20 23 19 19 19 14 13 18 18
9 17 16 17 18 15 12 9 10 13 12 12 13 14 15 17 20 21 22 24 24 25 24 23 21 19 18 16 17 17 20 23 22 23 21 20 19 19 14 14 17 16 14
19 20 20 20 17 14 10 9 11 12 11 13 13 14 17 15 19 22 23 23 24 25 26 26 25 23 22 19 17 17 21 24 24 23 25 24 26 22 17 16 14 14 17
23 24 24 18 16 14 10 9 10 10 9 9 12 15 14 14 17 17 18 20 22 24 28 29 28 28 29 27 25 20 20 21 22 24 25 27 26 27 25 22 16 14 14
25 27 22 18 16 14 10 9 9 7 8 7 9 12 11 11 15 16 18 22 25 27 29 30 31 32 32 31 31 30 26 23 21 24 26 26 25 29 27 26 24 19 15
27 25 23 20 16 12 9 6 6 5 6 7 8 9 11 13 15 17 18 22 24 27 28 30 32 33 33 32 31 30 29 29 28 27 26 27 27 29 29 28 24 21 23
26 24 21 18 15 11 10 7 5 4 4 5 7 8 12 13 15 16 18 20 23 25 28 30 31 32 33 32 31 30 30 30 29 28 29 29 30 31 32 30 27 28 27
25 22 18 17 13 11 8 5 6 3 2 4 6 9 12 13 14 14 15 18 21 25 26 28 30 33 33 33 31 29 27 29 30 30 31 31 35 35 35 34 32 32 30
22 18 16 15 14 13 10 5 2 2 3 7 8 10 11 11 12 13 14 17 19 22 24 27 28 32 32 31 30 30 28 26 27 29 32 32 34 37 36 34 32 31 30
25 21 17 16 16 15 13 10 7 5 4 6 9 10 10 10 11 12 13 16 19 21 24 25 27 27 29 30 29 28 29 26 27 31 33 37 38 39 38 34 34 34 31
28 28 23 18 17 16 15 13 11 11 10 8 11 13 12 12 12 13 15 16 18 21 23 25 26 29 30 30 29 30 31 29 23 28 33 38 40 41 42 40 37 36 37

GFSSE_250_spd_021.txt.gz
Wind_Speed
24 22 17 18 16 16 17 19 22 27 27 23 17 21 26 19 13 16 19 17 14 11 9 8 13 16 17 19 19 17 22 24 18 20 17 17 14 13 11 11 10 10 11
28 26 24 16 13 13 18 18 19 15 14 14 17 20 15 12 15 19 20 15 16 5 7 9 13 16 16 18 17 16 14 15 20 21 18 21 20 19 14 15 14 15 15
30 27 23 15 13 19 19 18 14 14 13 14 14 11 12 16 19 22 24 20 18 6 8 9 14 15 17 14 10 12 10 10 10 11 13 14 18 15 16 18 18 16 19
31 27 25 6 14 18 18 14 13 13 10 9 7 13 16 20 22 24 25 26 19 11 6 11 11 11 12 11 9 7 7 7 10 9 8 12 13 16 15 15 16 16 17
30 26 15 16 18 17 15 8 8 7 6 6 14 15 18 21 23 24 27 24 19 16 4 10 10 6 4 6 7 5 4 5 9 15 12 10 6 10 13 18 16 15 17
27 23 18 16 12 12 6 5 6 5 4 15 15 16 19 21 24 28 28 28 27 20 7 10 9 5 3 3 4 5 9 13 14 14 14 11 5 4 15 13 17 16 15
28 23 19 11 8 6 8 7 4 7 13 16 15 18 19 23 26 31 28 27 29 30 17 12 9 8 7 5 4 7 12 15 13 14 10 6 9 14 13 11 13 15 13
25 24 14 6 5 7 8 6 10 13 17 15 16 15 16 23 26 30 27 28 30 32 28 19 13 10 9 9 8 11 13 17 17 15 15 15 14 14 11 8 10 11 10
23 17 5 3 6 6 9 12 15 16 17 17 14 12 16 23 27 28 27 26 28 31 30 26 25 22 21 22 21 23 21 21 20 19 20 16 11 13 11 9 10 7 11
18 7 4 6 6 10 12 16 16 18 17 14 13 11 16 21 23 22 24 23 24 22 22 24 23 23 23 25 23 21 23 23 25 31 28 15 5 9 10 3 3 6 10
8 4 5 6 9 11 14 17 19 19 14 14 12 10 13 16 18 17 19 19 17 18 20 22 23 25 26 26 27 24 23 23 24 33 30 21 14 19 6 2 2 2 7
5 3 4 9 11 12 13 15 18 13 11 11 11 12 13 15 16 14 14 13 13 14 17 20 21 20 19 19 22 20 26 25 25 32 38 13 25 21 14 9 4 5 6
4 1 6 12 10 12 14 14 14 10 8 11 12 12 14 16 16 16 15 12 11 12 11 13 15 16 19 17 19 22 26 24 25 27 30 29 15 14 10 16 12 5 6
3 3 11 13 10 11 15 16 14 11 11 11 12 14 16 18 20 19 18 16 15 13 13 13 14 13 13 16 17 19 22 23 23 24 25 23 21 4 8 7 12 11 8
5 7 13 13 10 14 15 14 10 12 12 11 13 15 19 20 19 20 20 19 17 16 14 13 11 11 11 13 16 16 19 22 22 21 23 22 21 15 15 13 9 11 12
7 12 16 12 11 16 14 12 14 14 12 13 14 16 18 21 22 25 26 26 25 24 24 23 22 21 18 15 14 15 19 20 20 21 22 22 21 18 16 13 12 13 10
11 17 17 15 17 15 14 15 15 14 13 15 18 19 20 23 24 24 24 23 23 24 25 24 23 22 21 22 17 12 16 17 18 19 20 19 21 21 17 15 13 14 14
15 20 17 19 17 15 15 15 14 13 14 17 18 17 17 17 17 20 21 22 23 25 26 27 27 25 25 26 26 24 21 18 18 20 20 19 20 19 18 18 16 14 13
20 21 21 21 17 16 15 15 13 12 12 15 17 17 15 16 16 17 21 23 25 26 27 27 29 30 28 29 29 29 28 26 23 23 22 24 23 24 25 24 20 18 18
24 23 25 21 17 15 14 14 11 10 10 12 13 12 13 14 14 17 20 21 24 25 27 28 31 31 31 31 30 29 29 28 27 28 26 27 27 28 30 26 22 22 21
25 26 23 21 17 15 13 11 9 8 9 11 12 12 13 13 13 17 17 20 22 25 26 27 29 30 31 31 30 28 26 28 27 29 30 31 35 34 33 28 25 27 26
27 26 21 20 17 14 13 11 8 7 7 8 10 10 11 11 12 13 15 18 20 23 24 24 26 28 29 29 29 27 27 25 25 28 32 32 34 37 37 35 35 30 28
26 22 20 17 16 13 11 10 8 4 5 6 8 9 8 9 9 11 12 15 18 20 21 23 24 25 26 27 25 25 25 21 23 27 32 33 37 38 42 43 41 37 34
26 22 19 17 15 13 11 8 7 4 2 3 4 7 8 8 8 9 9 12 15 16 18 21 22 24 25 27 25 24 24 22 16 19 28 33 37 41 46 47 49 46 37
26 24 21 18 16 13 12 10 9 7 4 1 1 4 5 8 9 10 9 11 12 13 15 18 19 20 22 25 26 26 29 21 18 17 21 31 44 48 50 52 50 52 51
26 26 23 19 18 16 15 14 14 12 9 7 5 5 7 8 9 11 10 10 11 12 15 16 18 20 22 25 26 31 28 26 18 17 17 25 46 52 56 57 55 51 54

GFSSE_250_spd_024.txt.gz
Wind_Speed
24 25 22 23 17 22 20 19 17 18 15 15 16 15 13 13 14 19 19 16 9 6 11 15 15 18 20 19 20 18 22 24 19 20 19 18 15 13 13 14 15 16 12
24 26 23 22 20 19 19 21 19 13 14 13 13 11 13 15 20 22 19 15 9 5 10 14 16 17 16 14 14 15 13 15 14 16 15 15 14 11 12 14 16 17 16
24 27 25 21 16 16 22 21 16 11 12 11 11 13 18 22 25 24 23 16 13 7 11 14 18 14 11 13 11 10 8 9 8 9 9 11 11 15 11 12 15 16 17
27 25 20 13 16 21 21 19 8 9 7 10 14 18 23 26 26 26 27 21 14 10 13 15 14 13 10 11 8 7 5 7 5 10 10 8 6 10 13 18 15 15 18
25 23 19 17 18 16 17 5 7 6 9 14 17 19 25 29 27 28 25 27 18 12 13 15 9 4 5 7 7 8 7 11 11 12 8 7 4 6 12 11 14 15 15
25 21 22 18 13 10 8 7 5 7 17 14 15 21 25 29 28 29 29 30 29 17 14 13 8 6 8 3 8 11 11 15 18 13 7 5 4 4 9 9 11 15 12
23 22 23 15 9 7 8 5 7 14 15 13 15 20 22 28 27 28 29 34 37 32 17 14 15 12 12 13 14 14 15 13 14 12 12 9 10 9 7 7 10 13 11
22 22 16 7 4 6 6 10 13 17 16 15 18 17 21 25 24 24 26 33 35 32 29 25 23 24 20 19 20 20 21 21 20 15 10 6 11 10 6 3 9 8 11
19 14 10 4 4 8 10 14 16 18 17 15 15 15 20 21 21 22 23 27 29 31 29 28 26 24 24 21 20 21 21 24 27 18 9 5 4 6 6 4 6 6 9
16 8 6 3 9 11 13 15 19 17 15 13 11 14 17 17 17 20 21 23 25 24 24 25 25 24 26 25 25 26 23 26 33 28 22 19 8 6 3 5 3 3 7
11 5 2 5 10 12 14 18 19 17 15 12 10 11 12 14 15 18 20 20 19 22 22 22 20 21 20 22 24 27 25 27 31 30 26 28 24 11 4 3 1 1 4
5 2 2 10 11 12 15 17 17 14 12 10 9 11 13 13 16 17 17 17 16 15 17 15 15 18 18 21 22 23 26 25 26 29 25 19 15 13 14 11 4 2 3
4 3 7 12 10 13 16 13 8 9 9 9 10 13 16 17 17 16 16 15 14 14 13 11 11 11 13 16 17 20 22 22 25 24 23 12 9 8 9 8 8 5 7
5 5 12 13 11 15 16 15 11 9 9 12 15 17 17 17 17 18 19 20 21 21 17 14 15 13 7 11 13 17 18 19 18 23 22 16 13 15 13 7 8 8 4
7 9 14 12 13 16 16 11 9 10 12 15 17 18 19 21 23 24 24 23 22 23 22 22 20 19 15 12 12 15 16 17 18 17 19 21 20 16 13 10 10 10 9
8 13 16 12 17 17 13 10 11 15 16 17 17 21 23 23 23 24 25 24 25 27 27 26 25 21 24 22 17 16 14 15 16 18 17 17 19 18 19 16 15 14 14
11 17 17 15 20 18 15 13 15 17 19 20 22 22 21 22 22 21 25 24 24 26 27 27 27 27 28 30 28 26 24 21 20 21 21 20 21 18 18 18 17 15 17
13 18 18 19 21 19 17 15 17 19 20 20 20 17 17 18 20 19 23 27 24 26 27 29 28 29 29 28 28 28 27 28 24 24 29 28 27 24 19 19 19 18 18
16 21 18 21 21 20 19 16 17 18 19 20 19 16 18 17 19 19 21 24 26 26 28 29 29 29 29 28 27 26 27 28 29 29 32 34 36 37 35 29 24 22 22
20 23 21 23 22 20 19 17 15 15 16 17 16 14 15 16 17 20 18 21 22 24 24 25 26 27 26 26 25 24 24 24 27 30 34 37 41 43 42 42 41 35 25
22 23 24 21 21 19 18 17 15 14 15 16 16 14 15 15 15 17 17 17 17 19 19 18 21 25 23 23 21 20 20 21 23 25 30 35 41 45 44 46 46 46 40
24 23 25 22 21 20 18 16 14 12 12 13 14 13 13 12 12 14 13 13 14 15 15 16 17 18 21 20 20 19 19 14 13 21 26 36 42 46 50 50 50 52 44
27 24 23 22 20 17 15 14 13 11 11 11 11 10 9 9 9 10 10 9 10 12 14 15 16 16 16 19 23 21 26 16 9 10 15 29 41 44 47 50 50 48 57
27 27 23 21 18 17 14 12 11 9 7 8 8 8 8 7 8 7 6 5 7 10 13 13 15 17 20 23 24 28 28 15 13 13 18 18 34 42 44 47 47 44 53
31 31 26 23 21 19 17 14 10 9 6 5 5 5 5 6 6 5 2 3 6 8 10 12 14 17 20 22 25 30 31 20 18 14 14 17 31 40 45 44 47 47 41
33 31 29 26 23 20 17 14 12 9 9 8 6 3 1 1 1 2 2 4 5 7 10 13 15 18 20 21 27 31 31 31 27 20 22 29 37 40 42 43 43 46 38

GFSSE_250_spd_027.txt.gz
Wind_Speed
27 20 23 31 27 24 23 22 23 20 15 17 14 11 16 16 16 18 12 8 9 15 12 14 17 17 18 18 17 20 18 19 17 16 17 13 11 10 11 11 11 13 6
26 14 33 26 20 18 20 23 26 21 14 12 10 18 18 19 22 18 12 11 8 14 14 15 14 14 14 13 11 10 12 12 13 12 9 10 11 6 7 12 11 15 10
30 24 26 19 18 16 20 23 21 11 8 8 17 22 23 22 23 23 13 12 9 16 15 13 12 11 11 11 9 9 8 8 7 9 5 6 8 9 14 13 13 14 12
26 27 22 19 19 18 18 17 7 7 5 16 19 24 24 23 23 21 15 14 12 16 16 15 12 9 9 10 8 7 5 7 8 9 6 3 2 7 10 11 14 13 14
25 25 23 21 16 12 10 6 7 5 12 18 20 24 23 23 26 23 25 21 17 16 14 9 5 7 7 9 12 13 11 11 14 13 4 1 1 3 9 11 14 13 13
29 24 24 17 13 9 9 5 3 9 13 12 18 22 23 23 26 28 34 34 19 16 10 8 7 11 13 12 9 12 11 11 10 8 6 6 3 2 6 9 13 14 12
28 26 19 12 9 7 5 3 7 12 9 13 17 21 21 22 26 29 33 35 30 22 19 19 18 18 17 17 18 19 18 16 13 5 2 5 8 6 7 4 11 9 11
32 25 15 10 8 3 8 8 13 11 12 13 17 19 21 21 22 28 31 33 30 27 24 24 23 22 24 23 20 21 24 21 14 1 1 2 3 3 3 2 6 7 11
37 23 11 7 3 8 9 12 16 13 12 14 15 19 21 19 20 21 26 25 25 25 23 21 23 24 23 26 24 21 26 29 23 16 10 7 9 2 1 6 4 4 8
28 15 7 3 6 9 12 18 14 13 12 13 15 17 17 18 19 18 20 23 21 21 23 23 24 23 21 25 26 24 26 29 25 25 23 13 9 3 1 2 0 4 7
14 8 4 5 8 9 16 16 12 11 12 12 14 15 15 16 17 16 16 15 16 16 16 16 17 17 20 21 24 25 26 28 26 25 24 23 15 9 5 2 3 5 2
7 3 3 9 9 11 19 15 10 9 9 12 13 14 14 15 15 16 16 15 14 15 13 11 12 12 17 18 22 23 25 26 24 16 17 15 12 11 10 11 6 4 6
5 3 8 10 9 14 17 11 8 8 9 11 13 13 15 18 20 18 19 17 18 15 14 14 13 9 13 16 19 21 22 22 23 22 18 14 15 13 9 7 7 11 7
6 6 11 10 10 14 12 9 6 8 11 13 13 14 18 22 22 22 22 22 21 22 22 21 19 15 13 13 16 16 19 22 22 22 22 20 18 14 11 10 9 10 7
8 9 13 10 12 14 13 8 7 10 14 14 15 21 22 21 21 23 23 23 24 26 25 24 24 27 26 19 17 18 20 23 23 22 24 25 23 21 18 16 15 14 14
10 14 15 10 15 16 9 8 11 14 15 16 20 21 21 23 23 24 24 27 29 29 26 27 30 32 29 30 29 27 24 25 27 27 29 27 26 28 27 23 20 19 19
13 18 16 12 16 13 11 13 14 17 18 21 21 19 20 21 25 25 26 29 30 33 31 30 30 29 29 29 31 32 29 28 28 32 33 33 35 34 32 27 25 25 24
15 21 18 15 16 13 14 16 17 20 20 17 16 16 19 22 23 26 26 28 30 30 31 30 29 29 29 29 30 33 36 35 35 38 40 39 40 46 50 40 33 28 22
18 22 19 19 18 16 16 16 18 20 18 18 18 17 19 19 20 21 24 24 25 27 28 26 25 26 24 26 25 24 25 30 33 35 42 44 45 47 47 52 54 37 28
21 24 20 22 19 18 18 15 18 19 18 16 17 17 17 20 19 20 21 22 22 21 22 24 25 25 22 20 18 18 17 19 23 33 38 37 43 47 44 46 49 55 47
22 25 21 22 20 19 18 16 16 16 15 15 16 16 16 15 16 17 17 18 18 17 17 19 19 19 22 22 21 24 16 7 10 16 24 31 40 44 42 36 41 40 50
24 24 22 23 22 20 18 18 15 14 14 14 14 13 13 11 12 12 12 14 14 14 12 15 17 20 23 24 26 26 16 9 8 13 20 26 30 44 40 39 39 36 40
26 26 25 23 22 20 19 18 17 16 14 13 11 11 10 10 8 8 8 10 11 12 12 15 17 19 22 24 27 31 32 19 16 16 22 24 29 35 36 39 34 36 30
28 26 26 24 23 21 19 18 16 14 11 10 9 8 7 7 6 5 4 6 7 8 10 12 16 17 19 22 25 28 29 29 26 21 23 27 30 34 35 34 33 34 30
31 29 29 26 26 23 20 18 15 13 12 9 7 6 5 5 4 2 2 3 6 9 9 12 14 16 18 21 22 23 24 25 26 25 23 27 31 36 33 34 33 32 31
35 33 32 30 28 26 22 19 14 10 7 6 5 4 3 1 1 2 3 3 5 8 11 13 14 16 17 18 21 23 25 27 27 27 27 31 34 35 37 34 33 30 30

GFSSE_250_spd_030.txt.gz
Wind_Speed
20 30 24 22 36 26 20 20 27 29 20 13 12 12 14 14 13 12 8 9 15 12 9 11 14 15 15 13 16 17 17 16 14 13 11 9 7 6 8 7 11 10 4
23 33 25 25 22 19 19 21 24 13 13 12 14 16 16 14 13 10 9 12 17 13 11 10 11 12 10 10 10 11 11 10 9 7 5 7 9 7 7 8 7 11 7
34 28 30 23 20 19 19 17 10 12 13 13 17 18 18 15 12 8 8 15 16 15 11 8 8 9 11 9 9 5 4 4 4 7 6 6 5 7 8 10 12 10 6
35 32 30 27 19 14 11 10 10 13 13 15 17 19 18 19 16 8 12 17 17 16 10 8 7 7 8 11 10 8 7 7 5 6 4 4 1 6 9 11 13 9 8
32 34 34 27 16 8 7 9 10 16 13 14 19 19 22 23 19 14 21 20 18 13 8 3 5 7 4 4 6 8 6 6 7 5 3 4 2 1 6 7 13 12 9
36 32 37 25 12 8 8 6 15 11 9 14 19 19 23 23 26 30 26 21 16 9 6 6 9 11 14 13 14 12 7 5 4 2 6 7 4 1 3 4 10 11 8
39 34 33 20 11 8 5 10 15 8 8 14 20 18 19 25 27 30 27 21 17 18 16 15 18 19 18 16 19 21 13 7 3 4 1 3 2 4 5 4 8 9 6
36 33 28 16 9 4 8 16 12 9 9 12 17 16 17 20 22 26 24 22 20 21 21 21 21 23 24 21 22 24 19 16 7 7 7 7 7 1 3 6 6 8 11
34 32 21 11 3 5 12 17 11 10 9 12 16 16 19 19 21 22 21 21 22 20 21 23 23 24 27 26 24 27 26 28 21 10 11 11 2 5 2 2 5 7 8
28 24 13 7 4 9 16 14 11 9 11 15 17 20 22 20 19 16 16 17 17 17 18 19 18 22 24 25 27 28 29 22 26 26 17 12 11 8 5 3 8 7 6
21 14 6 0 6 11 16 11 9 8 15 13 20 25 23 18 14 16 14 14 12 13 11 13 14 18 20 24 27 29 28 28 26 24 21 19 15 14 11 6 7 7 7
14 7 3 6 7 12 14 8 7 10 14 17 21 19 21 18 14 16 18 19 17 17 19 17 17 18 18 22 24 27 26 27 25 19 16 17 13 11 6 7 8 10 8
9 4 6 9 9 12 11 5 6 10 16 20 22 21 8 12 18 22 22 26 28 31 31 26 20 19 20 21 23 25 26 27 25 24 22 21 18 13 9 9 8 9 9
7 6 11 9 10 12 9 3 5 12 19 19 21 23 26 16 20 22 23 23 23 40 31 36 33 32 29 28 26 29 31 35 38 35 32 30 28 23 21 16 12 11 11
10 10 12 9 10 10 7 3 7 13 19 20 22 23 25 18 22 22 26 25 23 9 19 29 31 35 33 31 29 35 38 41 42 40 37 38 38 33 26 21 18 18 13
12 14 13 10 10 10 6 5 10 15 16 17 23 25 25 24 23 27 29 29 29 27 25 27 29 33 34 35 35 35 38 39 40 44 45 47 46 44 34 29 26 19 17
12 18 15 13 13 9 7 9 13 18 19 18 22 24 24 25 28 28 29 31 32 28 31 30 30 33 31 32 35 36 40 40 42 44 44 44 42 44 45 46 29 22 18
13 20 16 16 13 8 9 11 18 23 20 20 20 24 26 27 27 28 30 29 28 26 28 26 26 24 24 20 23 28 32 34 34 37 41 41 41 43 43 46 44 33 20
15 22 17 17 13 10 11 13 19 22 17 20 21 22 23 24 25 24 26 28 27 26 26 24 18 16 15 17 17 16 21 22 22 29 37 37 39 39 37 36 47 43 40
17 22 18 18 14 13 12 14 17 17 18 21 21 20 19 20 20 20 22 22 20 20 21 21 19 19 22 25 23 15 5 13 20 26 32 35 35 32 34 33 31 39 41
20 23 19 19 15 14 15 14 16 15 16 19 19 20 19 18 16 15 17 17 18 17 18 18 19 21 22 26 32 20 9 12 21 25 30 32 34 34 32 34 33 30 37
20 24 20 20 18 17 15 15 14 14 15 16 16 15 15 16 12 11 14 15 15 14 16 16 17 19 20 24 28 30 24 19 22 26 27 31 35 32 33 32 34 28 29
21 26 23 22 20 19 16 16 16 14 14 14 13 11 10 12 11 9 10 12 12 11 12 14 14 16 18 21 24 27 26 24 25 23 26 29 32 34 32 31 27 30 36
25 28 25 26 23 21 18 16 15 14 13 12 9 9 7 8 8 6 7 7 7 9 10 13 14 15 17 19 20 21 22 23 24 23 25 29 33 35 35 27 26 23 32
28 35 29 28 26 24 22 19 15 13 11 11 10 8 7 6 5 5 4 4 6 9 10 11 13 15 16 16 18 19 19 21 23 24 27 29 32 32 33 28 23 25 36
27 37 34 32 28 27 26 22 18 16 12 11 11 8 5 4 3 3 3 3 6 8 10 11 13 15 16 17 19 21 20 19 21 24 27 28 32 33 34 30 16 28 34

GFSSE_250_spd_033.txt.gz
Wind_Speed
32 33 33 31 27 26 23 22 20 13 6 9 8 12 9 7 9 5 9 16 14 10 10 12 14 11 9 11 12 13 13 12 11 9 8 7 6 5 4 3 6 6 4
30 34 37 37 32 23 21 16 11 6 9 9 11 12 11 9 4 5 13 17 13 10 11 9 10 12 7 9 7 7 7 6 6 4 2 5 6 7 7 6 8 8 6
31 37 37 37 34 21 12 14 8 10 8 11 13 13 12 10 3 10 17 18 13 9 8 5 5 8 7 7 6 1 3 3 5 5 3 3 5 4 6 10 9 7 6
33 38 38 37 30 14 7 11 9 8 8 13 13 16 16 11 7 15 19 17 13 9 7 6 9 6 4 8 10 9 8 8 6 5 7 3 1 4 7 9 11 10 6
35 37 36 36 25 11 8 6 9 6 10 13 14 19 22 16 20 23 20 19 14 8 3 8 8 8 5 5 6 7 7 7 6 7 5 5 4 2 4 5 11 11 6
35 36 33 31 18 12 8 7 8 4 10 13 16 22 22 28 27 24 21 16 9 3 5 8 11 9 9 10 11 7 7 5 2 3 8 8 5 4 5 4 9 10 5
32 34 32 26 15 10 6 9 6 5 8 12 15 17 23 28 29 25 22 19 16 16 15 15 19 20 18 17 18 18 6 3 7 6 6 9 6 3 3 5 4 7 6
32 31 27 19 11 3 7 10 5 7 8 11 16 18 23 22 25 23 20 19 17 16 16 22 22 24 25 25 21 23 27 13 6 3 4 9 6 2 2 3 3 6 5
30 28 19 13 5 4 9 10 4 9 10 12 17 19 19 20 18 18 18 18 16 18 19 21 23 25 25 27 25 23 28 23 15 8 6 8 5 4 1 1 4 6 5
28 25 12 7 4 11 8 9 5 8 12 17 20 17 16 19 18 16 16 16 16 14 15 15 19 19 23 26 28 26 24 24 24 20 16 13 10 6 2 2 4 7 6
24 19 5 1 9 12 10 6 4 11 20 19 19 18 21 23 21 18 20 18 17 15 15 15 17 18 21 23 24 25 27 25 25 20 15 10 8 5 7 4 6 7 9
22 7 2 7 12 10 10 5 7 13 16 15 21 21 20 23 23 27 31 27 30 28 26 24 23 24 25 24 26 25 26 28 29 28 25 20 14 10 7 6 7 8 8
9 4 6 11 12 10 8 5 9 13 16 18 18 21 16 20 22 27 28 32 39 38 34 33 32 32 32 32 38 43 42 42 36 35 28 24 18 14 12 9 7 6 5
7 8 12 13 12 13 8 5 11 15 16 20 20 19 15 18 22 21 21 25 28 31 32 33 32 36 36 39 44 45 42 44 46 41 43 36 32 26 13 10 11 8 6
9 11 13 13 12 11 7 6 11 16 19 23 18 24 21 23 26 25 28 21 24 33 34 34 35 36 36 38 41 42 44 44 42 46 43 41 45 37 28 23 14 14 15
10 14 14 13 13 12 7 9 13 14 20 20 22 22 25 24 23 28 27 26 31 31 32 34 33 34 33 33 35 36 37 42 42 40 42 40 42 46 43 32 25 22 16
9 14 14 15 14 11 10 12 15 15 19 22 22 23 25 27 30 30 26 27 28 29 28 25 26 25 25 25 23 25 29 33 38 37 40 38 33 41 40 38 35 32 28
9 14 13 16 14 10 11 16 18 17 19 20 24 26 27 27 27 25 26 25 23 20 21 18 18 20 14 15 14 15 24 32 34 35 38 37 36 38 38 38 38 36 32
10 15 13 16 12 10 14 20 21 19 18 19 21 22 24 26 26 28 25 23 22 18 15 19 21 26 24 13 8 15 22 31 31 35 37 35 36 31 29 35 35 31 33
11 17 15 16 13 12 16 20 21 17 18 20 20 20 20 21 21 22 21 19 17 17 19 20 22 28 29 22 10 14 21 26 31 33 36 38 34 31 27 30 31 31 35
12 19 17 16 15 14 16 20 17 16 17 17 16 17 17 17 16 15 16 16 16 16 16 18 22 22 24 27 26 19 23 25 27 30 34 35 36 27 26 27 29 29 30
12 21 20 19 16 16 16 18 17 16 18 17 15 15 14 13 14 12 14 13 14 15 16 17 19 20 22 23 24 23 22 23 24 27 30 31 31 23 22 22 27 30 28
13 22 22 21 19 17 16 16 17 15 15 17 15 13 12 10 11 11 12 11 11 12 13 14 16 18 20 20 20 21 21 22 23 25 28 31 34 29 18 17 21 25 26
14 26 26 25 23 20 19 19 17 15 16 15 13 11 12 12 9 7 7 8 10 10 10 13 16 17 19 20 18 17 18 19 21 23 25 28 29 32 17 18 21 25 27
20 26 29 29 27 24 22 20 18 17 17 15 11 10 10 10 8 6 5 6 7 8 8 10 12 14 16 17 17 17 16 16 18 21 24 26 28 29 25 9 16 20 24
26 22 34 33 30 28 25 23 21 20 18 17 15 12 11 9 8 6 5 4 5 7 8 9 10 13 14 15 16 15 15 15 16 17 20 24 27 28 29 25 9 12 17

GFSSE_250_spd_036.txt.gz
Wind_Speed
33 33 36 38 36 28 19 15 6 5 5 6 10 14 15 14 10 1 13 14 9 8 11 12 11 8 10 8 7 8 10 9 7 6 6 5 4 1 1 3 8 8 6
36 35 38 42 37 25 11 11 6 6 7 10 14 13 13 12 8 6 17 14 9 8 7 6 11 5 4 3 2 2 3 2 2 2 2 3 3 3 2 5 7 7 6
39 37 36 38 35 22 8 10 5 7 9 14 14 14 12 7 1 11 18 13 10 8 5 6 8 5 3 3 3 5 6 6 7 3 3 6 6 2 2 7 7 9 7
37 37 35 35 30 18 11 6 5 7 13 16 14 18 11 10 12 16 16 11 8 6 6 14 11 3 6 10 11 11 11 10 11 8 7 6 5 3 1 6 8 11 8
36 36 32 31 25 16 9 5 7 10 16 16 18 21 21 18 18 17 14 9 6 7 11 11 9 5 5 8 12 15 13 11 10 12 10 8 7 6 6 6 9 11 8
38 33 30 25 19 15 4 5 7 12 14 16 19 23 25 22 21 18 14 8 5 8 10 12 14 12 9 9 13 10 8 9 6 9 11 9 7 0 3 5 5 7 7
35 29 28 20 15 10 3 8 9 10 11 13 15 21 25 23 20 17 15 13 13 12 15 18 18 19 16 14 16 10 4 6 6 5 4 8 7 3 1 4 6 7 8
31 27 25 15 10 4 5 9 9 9 10 12 16 18 19 21 19 17 16 14 13 15 18 19 20 21 23 18 23 24 17 7 3 1 1 7 6 4 4 4 7 8 8
26 24 22 9 5 3 6 10 9 9 10 12 14 17 16 14 15 13 12 9 12 12 15 14 18 20 24 24 23 26 25 19 12 9 7 4 0 1 2 5 6 7 6
21 21 12 4 3 6 6 10 9 10 14 13 13 14 17 15 14 15 12 10 9 11 13 15 19 19 24 27 28 28 25 22 17 12 9 7 5 2 2 3 6 5 6
21 18 1 2 5 8 9 9 10 15 10 18 17 23 18 18 21 22 20 18 15 17 18 20 21 25 36 33 37 36 31 26 18 15 10 7 4 0 2 3 3 6 7
22 3 4 8 9 8 10 9 10 14 11 13 19 21 22 28 27 33 33 30 28 26 26 25 34 41 44 46 42 40 41 36 27 20 19 15 9 6 4 4 5 7 6
3 11 8 12 11 12 9 9 10 14 12 18 18 19 22 17 23 29 29 32 32 29 29 32 36 43 41 47 47 45 43 42 38 39 39 28 16 9 9 8 8 8 8
12 12 14 13 14 14 9 10 11 15 11 15 18 19 19 22 20 24 31 33 33 37 34 38 41 37 39 43 44 42 39 39 34 33 39 37 29 21 13 9 10 14 13
11 12 17 14 15 12 11 12 12 15 12 17 19 21 23 23 23 24 30 32 32 32 33 31 31 31 32 34 38 40 37 39 37 37 39 41 38 36 30 25 20 18 18
9 15 16 17 15 13 13 14 15 18 16 18 19 22 24 24 26 28 28 30 30 26 24 21 19 26 19 27 31 34 35 37 37 38 36 39 38 38 36 34 34 31 29
11 16 15 19 16 11 15 18 16 18 16 17 21 24 25 28 29 24 23 22 21 20 21 20 16 11 16 21 29 32 33 35 35 33 30 31 31 30 32 32 31 32 34
12 15 17 20 16 13 16 20 18 20 19 21 20 23 26 27 24 19 18 17 16 16 17 20 17 11 14 23 24 28 32 34 34 33 31 28 28 31 31 29 34 34 37
10 15 17 19 15 16 18 19 20 23 24 22 20 19 18 20 22 20 20 15 13 18 19 22 23 20 24 21 22 23 27 28 32 35 27 24 26 27 28 33 35 37 39
8 16 19 17 15 16 21 20 20 20 20 20 19 20 19 19 18 17 16 15 15 17 19 22 23 24 21 22 21 23 26 26 30 31 28 19 22 23 26 25 31 33 37
7 16 19 17 16 19 24 22 19 19 19 19 19 18 18 16 14 13 13 14 13 15 18 20 21 21 20 20 21 22 23 24 25 27 26 20 17 17 23 21 25 25 29
8 17 19 19 17 21 24 23 17 20 21 18 18 17 16 15 13 10 10 11 11 13 15 18 20 21 20 19 19 19 20 22 23 26 28 25 13 15 18 17 18 23 23
12 18 18 20 20 22 25 23 21 21 20 19 19 17 13 13 13 11 9 7 9 11 14 17 19 19 18 16 16 16 19 20 21 24 26 28 23 12 14 14 21 19 21
15 19 20 22 21 23 25 24 22 22 20 19 17 15 14 11 11 10 7 6 6 8 10 13 13 12 13 13 12 12 12 15 19 22 24 24 24 21 9 10 12 15 14
17 19 24 26 25 24 24 24 22 22 23 21 16 14 15 13 9 8 6 5 5 5 6 7 7 7 7 7 8 10 13 15 17 20 22 25 25 23 22 14 10 12 14
23 20 27 27 28 26 24 23 23 23 22 21 17 14 14 13 10 8 8 5 3 3 4 6 8 10 10 11 13 13 14 16 20 22 24 24 24 26 22 21 18 11 15

GFSSE_250_spd_039.txt.gz
Wind_Speed
38 38 38 35 35 29 17 14 10 4 6 12 18 18 18 17 13 6 10 8 7 5 5 9 7 4 4 5 6 7 6 5 6 5 7 5 2 2 2 5 9 9 9
36 38 40 35 34 25 14 16 7 8 13 17 16 17 15 13 5 8 12 7 5 2 5 8 10 8 5 4 2 1 1 2 2 4 3 4 5 2 2 6 9 10 10
39 38 37 32 27 21 15 8 4 13 19 18 17 17 7 5 9 18 12 7 5 4 6 12 9 7 8 10 11 9 8 8 8 6 5 4 5 3 1 6 8 11 10
40 41 34 30 24 19 12 5 9 16 17 17 16 18 16 13 15 17 10 6 5 11 14 14 11 9 9 11 12 12 12 11 11 10 8 6 6 2 2 8 9 12 10
40 34 30 28 20 16 8 7 13 17 16 18 19 20 17 16 16 13 8 6 10 14 14 14 14 12 10 12 13 12 10 8 8 8 10 9 8 8 9 10 9 10 8
33 30 28 25 16 12 8 10 15 17 17 17 21 20 20 18 15 11 7 8 11 13 17 18 18 13 10 15 14 10 3 2 3 5 7 7 7 5 4 6 7 8 9
29 26 23 19 13 8 8 12 14 14 15 16 18 18 17 16 14 12 13 14 14 16 17 19 22 20 14 20 21 13 8 3 1 2 2 6 7 6 4 6 6 8 7
25 21 20 13 10 7 10 11 13 14 13 15 17 14 14 14 14 15 14 12 13 14 15 19 20 26 23 22 26 24 17 8 3 4 3 3 5 8 9 7 6 8 7
21 18 18 8 4 9 9 10 12 13 12 13 12 10 12 10 8 10 10 9 10 14 17 21 25 26 27 27 25 23 20 17 13 9 4 0 3 3 4 6 7 8 7
19 17 11 2 3 9 9 10 11 14 14 13 12 13 16 12 9 8 9 12 14 18 27 35 40 41 35 31 30 26 21 18 14 7 4 3 3 2 5 7 7 7 8
22 19 5 3 10 9 10 11 12 13 16 16 19 22 23 21 21 19 17 19 22 30 37 39 41 40 35 29 29 28 29 28 24 15 10 7 5 4 7 8 8 12 11
21 6 10 10 13 12 10 11 14 12 15 17 22 29 29 26 26 25 23 24 28 35 37 42 43 42 36 35 35 34 35 34 29 19 16 14 11 10 10 10 11 12 12
5 15 14 15 14 12 11 12 13 15 16 16 15 16 18 25 26 30 27 32 32 39 36 40 39 37 36 36 35 33 34 37 38 37 29 25 24 20 16 16 18 18 15
15 15 17 18 15 11 13 15 14 12 15 17 14 17 20 27 29 31 36 33 34 32 29 28 32 33 35 34 36 37 35 35 37 40 40 41 35 34 31 28 28 25 18
15 16 19 18 14 12 15 14 17 13 15 21 21 21 26 28 29 27 29 28 25 20 21 21 26 28 31 33 36 34 31 31 33 33 37 37 34 35 34 34 31 33 25
15 16 18 17 13 13 16 14 17 17 18 21 23 23 29 28 26 25 24 22 20 17 12 12 23 24 29 31 34 35 32 28 29 28 33 34 30 32 34 37 38 35 33
14 15 17 16 15 13 15 17 20 17 19 21 24 26 27 25 22 21 18 17 18 19 14 13 18 24 24 26 30 34 32 27 25 28 29 32 28 38 40 44 43 40 36
14 14 16 15 15 15 16 17 19 17 21 22 25 24 26 22 19 18 13 16 19 18 19 15 16 19 22 23 27 29 32 30 23 25 24 27 33 34 37 38 43 43 46
13 14 17 16 15 16 19 17 19 16 23 23 23 22 23 21 19 16 11 14 17 19 21 21 20 20 22 23 26 28 30 30 22 17 19 22 23 25 27 28 32 36 34
11 11 18 15 14 17 19 19 20 19 21 22 22 20 20 19 17 15 15 13 14 17 18 19 20 19 22 20 25 26 29 29 26 17 15 20 19 21 26 25 21 23 26
10 10 17 13 14 19 22 20 19 21 22 22 22 23 19 16 13 11 12 12 14 15 16 16 18 17 19 21 21 24 25 26 29 28 15 14 14 14 17 20 17 21 27
12 14 15 15 15 22 23 22 19 19 23 21 19 18 16 13 11 9 9 10 11 14 14 15 16 17 17 18 17 20 21 22 25 26 28 16 15 15 17 18 17 19 24
12 16 13 16 17 21 25 23 20 20 20 18 17 15 14 11 10 9 8 6 8 11 12 13 14 16 16 16 17 18 19 21 23 23 23 22 21 17 13 13 13 13 14
12 19 17 18 17 23 25 22 21 22 19 16 17 15 13 12 11 9 5 4 4 6 8 9 10 11 12 13 15 17 19 20 21 21 21 22 22 21 20 18 18 18 18
11 18 20 19 20 23 25 22 22 22 19 18 19 14 14 13 11 9 6 3 2 1 4 6 7 8 8 11 14 17 18 18 20 24 26 25 24 24 22 22 22 23 22
17 18 21 21 23 22 24 23 23 23 22 21 19 16 16 14 12 11 8 5 3 1 1 3 5 8 11 13 14 17 19 21 22 23 24 25 27 29 29 28 26 24 24

GFSSE_250_spd_042.txt.gz
Wind_Speed
41 41 37 34 32 27 21 18 11 10 15 15 13 14 15 11 5 5 8 7 5 6 7 8 10 9 7 6 6 7 6 6 7 8 10 8 5 3 2 2 5 6 8
40 39 34 30 30 23 19 12 10 14 14 14 15 14 8 2 7 13 8 6 5 6 8 10 9 6 4 5 6 6 4 4 4 7 5 5 5 2 2 4 7 8 8
40 34 30 29 25 18 13 9 12 15 17 16 12 9 11 14 14 14 9 8 8 10 12 13 11 8 7 9 10 8 7 8 8 7 7 5 6 1 1 4 7 8 8
39 32 28 26 20 16 12 11 15 15 18 18 18 16 17 17 14 11 9 8 11 15 16 15 11 7 7 8 9 9 9 6 8 8 7 6 6 4 6 7 10 9 8
32 28 25 23 18 13 10 13 15 17 19 21 20 21 17 15 12 10 8 11 14 16 17 18 15 12 9 9 7 5 7 3 3 6 6 6 6 6 8 8 7 8 8
28 26 22 20 14 9 9 13 16 18 19 19 21 20 18 14 12 9 11 14 16 17 18 22 19 14 15 18 12 8 5 3 2 2 4 4 6 5 4 5 7 9 7
28 20 20 17 10 9 9 12 14 15 16 19 17 15 16 15 14 15 14 13 13 16 18 22 24 19 22 23 20 16 8 5 3 3 1 3 6 5 5 7 7 7 7
24 17 19 12 7 9 9 13 14 13 13 16 13 12 13 13 12 11 11 11 13 19 21 23 25 27 25 24 25 21 15 8 4 3 2 3 6 8 11 9 7 10 10
25 21 16 7 7 7 9 16 14 14 13 12 11 10 9 9 8 5 9 16 27 30 33 31 31 28 27 30 28 25 20 14 9 6 5 4 4 5 6 8 9 11 10
31 24 17 2 9 6 9 16 17 18 17 15 11 11 9 8 8 10 27 37 35 38 33 33 30 32 34 34 30 28 21 18 14 10 8 8 7 8 8 10 10 10 13
33 29 11 8 11 6 10 14 15 21 23 21 20 18 21 22 22 30 36 38 40 42 37 33 33 31 33 32 34 30 29 24 24 22 18 17 15 13 13 12 11 11 11
29 5 13 15 13 8 13 13 13 20 22 22 21 22 25 28 28 38 38 37 38 39 36 34 35 31 29 32 34 35 43 41 36 35 35 31 25 21 18 14 14 14 13
4 11 18 18 14 9 14 13 14 18 14 16 19 24 29 29 35 37 33 28 33 35 36 35 33 33 32 31 33 34 39 40 41 41 41 39 36 30 26 25 22 22 18
9 14 19 18 13 10 15 14 15 14 14 16 21 27 31 30 37 32 26 26 25 28 34 30 32 34 34 31 29 30 35 37 35 39 41 42 39 34 33 31 32 33 30
11 15 18 17 11 12 17 14 14 13 16 17 21 27 30 31 26 27 21 17 18 21 29 28 29 33 36 33 28 28 30 35 36 40 41 43 46 39 42 43 44 43 41
13 15 16 14 10 14 18 18 15 15 17 17 26 25 24 26 26 22 18 15 15 19 24 25 25 30 36 36 31 28 31 30 30 37 40 41 42 42 43 47 44 47 49
14 13 14 13 9 15 17 20 18 18 18 20 23 21 21 22 23 21 19 17 17 18 23 24 26 28 32 32 32 28 27 31 29 31 33 35 34 37 34 37 37 41 43
14 12 13 12 10 14 16 21 18 17 19 22 22 18 14 15 17 19 19 19 17 22 23 22 24 26 29 30 32 31 28 23 25 24 25 28 30 28 28 24 29 32 34
12 14 12 9 11 14 17 20 18 18 21 21 22 17 12 17 16 15 15 15 16 20 22 22 22 26 27 30 31 32 33 27 20 22 21 23 26 27 25 25 27 27 27
10 14 13 11 11 14 17 19 17 18 22 20 20 18 14 15 15 13 13 14 14 17 19 20 20 23 25 26 27 27 28 30 27 18 19 20 21 23 21 22 26 26 27
10 8 13 12 11 13 14 18 18 19 20 21 19 16 15 13 12 12 13 12 12 15 18 18 18 21 23 23 24 24 25 27 27 28 21 18 19 19 21 21 19 21 25
10 12 14 13 14 17 17 18 20 19 18 16 18 14 12 11 10 11 9 11 10 13 16 17 19 19 21 22 23 24 25 25 24 23 21 21 22 22 21 22 19 20 20
11 10 13 12 13 15 19 19 20 19 18 18 17 15 11 9 7 7 9 10 10 10 13 14 15 16 17 18 20 23 25 25 24 23 22 21 21 20 20 20 20 20 19
8 12 14 15 14 17 19 20 21 20 21 19 16 14 10 8 8 7 4 6 7 7 8 10 10 11 13 15 18 19 20 20 22 26 26 26 26 27 26 24 22 21 20
8 14 12 15 16 18 22 22 20 19 20 18 15 12 10 9 8 6 2 3 4 4 4 5 9 12 14 15 15 18 18 20 23 25 28 31 32 31 29 26 25 22 20
14 13 15 15 16 16 22 23 19 21 20 17 15 13 11 9 8 6 3 2 1 2 3 8 12 14 14 13 15 18 20 23 27 31 34 35 31 27 26 24 22 20 19

GFSSE_250_spd_045.txt.gz
Wind_Speed
41 38 27 29 25 19 13 11 11 14 13 11 11 11 9 3 5 9 9 6 4 8 10 9 10 7 5 4 4 4 5 5 7 10 9 9 7 5 4 3 3 4 4
41 34 29 25 21 17 11 11 14 11 14 14 12 8 3 8 12 11 8 8 9 9 8 6 7 6 4 4 5 5 5 4 4 6 5 5 4 2 2 3 4 7 7
41 31 30 24 19 12 12 14 12 14 17 17 16 13 17 17 15 12 7 9 9 10 9 7 5 4 4 5 4 5 4 5 6 5 3 3 5 1 2 2 8 9 9
37 33 26 25 16 11 13 14 13 17 19 19 19 19 19 18 14 9 8 11 12 13 16 12 10 8 8 5 4 4 3 2 3 4 3 2 3 2 6 7 10 10 9
39 32 24 23 13 11 14 12 14 17 19 24 21 20 19 17 11 10 13 13 15 17 19 16 16 15 13 4 2 3 2 1 1 1 2 1 2 5 6 6 6 7 7
40 29 25 20 10 11 12 11 14 18 17 22 21 19 17 15 10 12 13 14 14 16 21 18 21 22 20 14 8 4 2 3 3 3 2 1 2 2 4 4 8 8 8
39 27 25 19 10 13 12 12 15 15 17 15 18 18 19 17 14 13 17 16 17 18 21 24 23 21 22 20 14 9 5 4 4 5 3 2 3 4 6 11 9 8 9
34 26 21 15 10 13 11 15 14 14 15 12 12 12 14 13 12 12 17 22 23 23 24 26 25 27 28 22 18 15 11 8 6 5 6 4 3 6 6 7 8 9 10
31 24 19 9 5 10 12 15 16 15 13 11 10 9 10 10 11 21 23 27 25 25 28 29 27 23 23 22 20 19 18 15 12 11 9 8 8 7 7 9 8 9 10
36 30 11 6 6 8 13 14 19 18 17 15 13 11 9 17 32 32 30 25 26 28 29 26 25 28 33 35 33 31 28 24 19 17 16 15 13 11 9 7 7 9 8
38 12 5 16 12 10 12 13 19 21 23 21 20 21 31 38 37 32 34 31 28 31 27 24 27 32 38 43 44 45 44 38 32 27 23 20 18 15 12 11 12 10 9
20 4 17 18 15 13 12 11 14 20 23 26 24 26 40 35 34 35 36 34 31 30 30 28 25 31 38 40 42 41 43 40 38 37 35 35 31 32 28 24 20 20 16
6 12 20 18 16 14 14 12 16 23 24 28 31 36 29 29 27 31 33 33 28 30 34 32 31 30 35 38 39 38 42 43 45 43 43 45 46 45 45 43 37 32 26
7 16 17 18 16 15 15 14 18 21 24 26 29 34 30 25 25 24 28 29 28 30 33 37 36 33 33 36 36 42 43 45 48 45 46 47 47 46 49 50 50 50 50
9 15 14 16 14 15 14 15 19 20 24 27 27 30 23 23 20 18 23 25 25 26 30 35 37 37 33 36 34 34 38 39 40 40 43 41 40 43 47 47 48 50 53
7 14 12 13 13 16 15 16 20 19 23 24 26 23 19 20 20 20 19 23 23 25 29 31 35 36 35 32 32 29 30 33 34 34 34 34 32 34 37 38 39 41 41
7 11 12 13 14 15 14 17 21 20 22 21 21 20 22 19 18 24 25 23 21 25 28 30 33 36 39 38 31 29 27 29 31 31 32 30 27 27 27 27 30 34 38
8 8 11 13 13 15 16 17 21 20 22 21 20 14 13 15 18 20 24 24 24 24 25 29 30 33 35 36 35 28 23 25 23 25 25 27 26 24 27 27 31 31 29
8 7 10 11 13 15 19 18 20 20 21 20 15 13 13 12 15 18 18 21 22 22 23 25 27 29 29 30 31 32 29 21 20 23 23 25 25 25 25 26 28 30 30
8 9 10 12 13 16 20 18 19 20 19 18 13 14 14 12 11 14 18 19 20 20 20 21 24 25 26 27 27 27 26 26 25 23 24 22 20 21 20 19 20 21 24
6 7 8 11 12 16 19 16 18 19 19 17 14 13 10 10 11 13 16 17 19 21 20 21 22 22 24 25 25 26 25 24 21 19 19 20 20 20 20 19 20 20 16
5 8 10 11 14 17 19 19 19 20 19 16 15 15 9 7 9 9 14 14 15 17 16 17 20 21 21 22 22 21 22 22 23 22 21 20 19 17 16 17 17 16 14
5 6 8 9 11 17 18 20 18 19 18 16 15 12 7 4 5 7 10 11 12 12 13 14 16 16 17 18 20 20 21 22 24 26 27 27 25 21 19 16 13 12 11
5 6 9 11 10 15 18 19 20 21 20 17 16 11 6 3 4 3 7 9 8 8 10 12 13 14 16 17 19 19 21 25 28 31 32 29 26 24 21 19 16 12 10
1 5 7 11 11 14 19 21 21 20 18 17 14 11 9 4 3 1 3 6 5 5 7 10 13 15 16 16 17 18 23 27 32 33 29 29 29 30 27 22 18 18 15
5 5 8 13 13 13 20 21 20 20 21 18 14 12 9 6 4 4 3 1 2 2 6 9 12 14 15 16 17 19 22 27 34 31 29 29 30 32 34 24 17 13 15

GFSSE_250_spd_048.txt.gz
Wind_Speed
43 32 29 23 17 12 10 12 13 10 10 10 10 9 5 4 11 10 6 5 6 8 7 7 8 6 3 1 1 1 2 3 5 8 9 10 7 7 6 3 2 2 1
52 36 26 23 16 10 12 14 12 13 12 11 5 7 12 15 12 10 9 10 9 9 8 8 8 5 5 3 3 3 4 4 2 4 6 6 4 4 6 4 3 4 4
47 34 27 22 13 12 14 12 13 16 15 13 17 20 19 17 13 9 8 10 12 12 11 7 5 1 2 3 1 0 4 4 3 1 2 3 3 4 5 1 5 4 7
41 33 27 22 11 14 12 11 13 16 18 22 23 21 19 15 13 12 12 12 13 17 14 13 10 7 2 2 4 1 1 3 2 1 2 2 2 1 2 3 5 5 6
41 32 26 19 13 14 9 11 13 16 20 23 23 19 16 13 13 14 14 14 13 16 15 18 16 13 11 6 2 1 4 2 3 3 3 4 3 4 3 4 4 5 6
43 31 22 17 13 13 10 10 12 14 18 20 19 17 15 15 14 16 17 16 17 18 18 16 18 17 13 11 9 6 7 6 6 5 4 2 1 2 5 3 7 7 6
41 35 20 15 12 12 10 11 10 11 15 17 17 16 17 14 17 19 20 20 19 18 18 20 19 16 17 14 11 8 6 5 6 4 5 3 5 5 6 8 6 6 6
44 41 17 7 9 12 14 12 13 13 12 12 12 14 17 19 20 22 20 20 19 21 20 19 22 17 18 16 14 12 11 9 7 6 4 1 2 4 4 5 5 6 5
51 35 6 3 10 13 18 17 17 15 15 12 16 21 25 24 24 20 22 23 20 18 22 23 26 30 27 25 20 18 17 13 12 9 6 4 4 4 5 5 5 7 7
51 17 1 8 13 12 18 18 19 20 21 21 30 29 28 27 22 22 23 21 23 23 29 35 39 43 43 42 36 28 24 19 18 16 14 12 10 9 9 10 9 7 5
43 5 7 13 15 10 14 18 22 23 26 32 32 31 34 33 27 26 26 25 24 26 32 36 38 40 45 42 39 43 39 35 33 35 33 29 28 28 25 23 17 12 7
25 11 13 16 15 11 13 16 25 23 28 36 33 32 33 34 34 29 31 30 30 31 33 34 34 37 39 41 45 46 48 47 50 49 51 50 49 49 49 45 40 27 17
8 11 14 17 15 13 14 18 23 31 31 32 33 31 30 33 32 28 31 32 36 32 32 32 36 38 43 45 46 46 48 46 46 46 51 48 50 49 50 48 48 52 44
3 12 14 17 15 14 15 19 23 28 30 31 27 27 29 31 29 27 29 31 35 37 34 35 32 35 38 42 41 40 40 41 41 41 42 43 43 44 46 47 50 48 53
2 11 11 16 16 14 17 19 21 22 25 26 24 26 25 21 22 27 27 31 32 36 36 30 32 34 31 35 33 35 33 34 35 31 32 34 36 37 41 44 41 43 47
3 8 9 14 17 13 16 18 22 23 22 23 17 18 21 16 23 22 26 28 31 35 37 38 33 31 29 29 31 31 32 31 32 31 30 32 31 31 32 38 40 39 39
4 7 8 13 17 14 17 18 22 23 22 24 22 19 20 21 21 21 22 28 29 31 33 35 36 33 27 27 25 26 27 28 29 30 29 29 28 29 34 34 32 38 37
5 7 9 14 18 14 16 18 23 23 22 20 18 20 21 23 21 18 21 26 27 27 30 31 31 31 32 29 24 23 24 25 25 26 24 23 22 22 23 27 28 29 31
7 7 10 14 18 16 14 18 22 23 19 17 14 17 18 20 18 17 18 22 23 23 24 26 26 27 27 26 24 24 24 25 24 24 22 21 21 20 20 20 17 18 22
8 9 11 14 17 17 16 19 19 21 20 17 15 16 15 16 16 16 18 18 18 23 24 25 25 25 23 22 21 22 22 21 20 19 18 16 16 16 15 15 16 14 16
7 6 10 12 15 16 17 18 19 20 18 17 18 16 15 15 15 14 17 16 18 19 21 20 20 20 19 19 20 20 21 22 21 19 18 16 14 13 12 10 9 9 10
8 7 9 13 15 19 20 19 20 19 18 16 16 14 13 12 12 14 13 13 16 17 17 16 17 16 17 20 18 21 23 25 26 24 21 20 19 18 13 9 6 4 3
11 9 10 12 12 18 21 17 18 20 18 15 15 12 12 9 10 11 10 12 12 12 13 15 14 14 15 18 17 21 25 30 28 24 22 24 24 21 15 9 8 5 5
11 11 12 13 12 15 19 20 18 20 20 17 15 12 10 8 8 9 9 7 8 9 11 12 12 13 15 17 17 22 26 31 30 27 27 27 29 30 25 14 7 5 5
9 10 11 12 12 14 17 22 22 21 19 17 15 12 9 8 6 5 6 4 7 6 10 10 12 12 14 15 18 22 25 30 32 29 27 29 30 33 32 22 14 8 8
12 11 14 10 12 14 19 20 21 19 19 18 17 13 10 9 8 4 3 2 3 4 6 7 10 12 13 15 19 22 25 29 32 29 27 30 30 32 35 33 25 16 11

GFSSE_250_spd_051.txt.gz
Wind_Speed
51 32 25 24 18 9 11 14 12 12 12 11 9 5 2 6 8 6 6 6 7 7 9 9 10 8 6 5 4 3 3 2 5 6 8 8 7 9 7 4 3 2 2
49 32 29 24 12 11 13 10 11 12 12 5 5 13 15 12 8 7 9 10 11 10 8 6 7 8 6 6 5 6 6 3 1 4 4 5 4 6 6 5 2 2 2
45 34 29 21 11 13 10 9 10 11 10 17 21 22 17 12 10 11 13 12 13 11 10 8 3 0 6 5 1 3 4 2 2 5 2 2 2 5 7 5 5 5 6
44 40 27 18 12 10 9 11 13 16 17 22 22 17 14 15 16 14 13 13 13 10 12 12 9 1 7 10 6 3 1 3 5 5 3 2 4 3 5 5 6 5 5
53 47 23 10 10 9 9 11 13 16 19 18 16 14 14 15 15 15 15 15 14 12 11 12 10 11 8 7 4 4 1 2 4 3 2 3 3 6 7 5 4 3 3
54 52 17 5 11 10 11 10 13 14 15 15 15 15 15 17 19 17 16 16 16 16 16 12 12 7 6 8 7 6 5 6 5 4 5 0 2 3 7 6 8 7 6
54 42 11 6 12 11 11 9 9 12 13 14 15 15 20 20 17 15 16 18 21 17 17 17 13 12 11 13 9 8 7 4 5 5 4 3 8 9 11 9 8 7 8
57 29 6 7 13 12 13 11 9 10 10 10 14 19 20 19 19 18 21 22 25 20 20 22 21 16 14 13 11 10 7 5 4 2 4 8 8 9 9 9 10 8 7
57 12 6 10 14 16 13 14 13 12 11 16 18 19 18 20 18 19 26 31 33 36 37 37 35 30 25 20 16 15 12 11 10 8 4 5 6 6 7 10 10 10 10
49 9 12 13 15 18 15 16 19 20 27 21 22 21 22 23 22 22 28 32 33 35 40 39 44 47 47 41 38 34 32 30 30 35 37 28 25 23 15 4 3 3 4
32 13 14 15 16 16 16 19 28 27 23 26 27 26 27 27 28 27 31 32 32 32 35 39 43 52 51 51 47 49 48 45 46 43 42 43 45 44 39 20 8 5 6
22 12 11 15 17 16 18 23 31 24 30 29 30 31 30 31 31 30 30 32 32 33 36 41 45 45 43 42 44 46 47 44 45 47 44 42 43 43 49 44 28 20 15
15 10 10 13 16 19 23 23 26 29 30 28 33 34 30 31 32 32 32 32 31 35 36 41 43 47 34 36 37 39 37 38 38 39 39 41 41 42 46 49 46 36 31
14 6 9 12 16 18 23 24 24 25 30 30 30 33 29 30 31 31 32 30 32 32 34 34 37 37 34 35 36 37 35 35 33 33 37 37 41 40 41 46 51 53 46
10 2 5 10 14 18 20 19 23 23 26 26 24 26 27 29 29 31 33 31 31 32 30 28 31 31 31 29 34 33 33 31 32 32 35 37 37 42 41 37 41 42 44
7 1 4 9 11 15 17 18 17 19 22 21 22 20 24 25 26 29 32 34 33 30 30 27 26 26 26 27 30 29 30 29 29 27 29 31 33 33 35 36 36 37 36
5 4 5 8 10 12 11 15 13 17 17 14 15 16 19 21 22 26 28 31 32 33 32 30 26 25 23 23 25 27 28 26 23 21 20 22 22 23 26 28 30 32 31
4 6 5 9 14 13 11 15 12 18 18 21 19 18 22 19 20 22 26 25 26 27 28 26 26 26 25 25 25 26 25 23 22 20 19 18 20 20 17 17 18 23 28
5 8 7 12 16 14 13 15 13 15 14 18 19 19 21 19 19 17 21 21 21 22 23 22 21 22 22 22 22 22 20 18 17 17 17 17 16 15 15 14 13 16 20
7 10 10 14 18 17 16 15 15 14 16 17 19 19 19 18 18 17 16 18 18 17 18 18 18 20 21 22 22 22 21 18 17 16 16 15 13 12 11 9 10 11 11
9 8 9 13 18 17 18 16 18 15 16 17 20 19 19 18 17 15 17 16 16 16 15 15 15 17 20 22 23 25 25 21 22 22 21 19 16 14 9 6 4 4 5
10 10 11 15 18 20 20 22 19 14 12 14 15 16 16 15 16 16 16 13 13 15 16 14 14 17 20 22 24 29 28 24 22 23 24 25 25 16 9 7 3 3 2
15 13 11 15 16 20 20 22 21 18 15 13 13 13 12 14 13 11 13 11 12 13 14 12 14 17 20 21 23 27 30 27 23 26 28 30 32 29 20 6 4 3 7
17 14 13 16 16 19 21 18 21 22 17 15 12 10 10 12 12 11 10 8 8 11 12 11 13 16 19 21 24 25 29 30 26 26 29 33 33 33 33 20 8 7 7
20 18 14 16 16 19 22 21 21 23 20 16 13 9 6 9 10 11 6 7 6 8 9 10 12 14 17 21 23 24 26 29 30 27 30 33 34 34 35 33 25 12 5
17 22 20 18 15 19 22 26 22 21 20 17 15 13 9 7 7 8 5 4 4 5 5 7 8 10 13 17 21 23 24 27 31 29 28 30 32 36 36 36 32 28 14

GFSSE_250_spd_054.txt.gz
Wind_Speed
45 44 43 24 20 15 17 15 16 16 14 11 8 2 4 7 5 2 2 5 5 7 9 10 12 11 9 9 5 4 4 2 4 5 5 6 2 17 24 16 4 3 3
47 49 32 19 12 17 14 15 18 17 9 2 14 16 13 8 3 3 4 6 7 6 4 7 9 11 8 9 7 7 6 4 3 3 2 4 3 2 5 4 4 3 3
48 51 34 14 13 12 14 16 15 12 19 24 22 16 10 8 6 7 8 8 7 5 8 6 2 4 8 9 5 3 3 3 4 0 3 1 3 5 10 9 7 8 7
51 49 28 11 12 11 13 13 14 17 20 20 17 14 13 9 11 13 15 13 10 8 9 8 4 7 8 9 5 2 2 4 2 4 4 3 4 5 6 9 9 7 4
51 46 17 9 11 10 12 12 12 15 15 15 15 15 15 14 17 17 16 14 13 12 9 9 8 11 10 9 3 2 2 6 5 4 6 3 2 7 11 7 4 3 3
50 39 10 10 12 11 11 9 11 15 15 17 16 17 17 17 18 17 16 15 11 12 12 9 8 9 10 9 9 7 3 4 3 7 7 7 3 7 8 10 10 9 7
51 22 9 12 13 12 11 7 11 14 15 16 17 19 20 19 20 17 14 13 14 17 17 16 16 13 12 11 8 7 5 1 2 5 6 4 11 11 15 15 13 9 5
51 10 11 15 16 14 14 10 10 13 13 16 19 18 18 20 21 26 28 29 32 39 38 34 29 22 15 11 9 8 7 6 4 5 6 9 16 17 16 15 13 11 7
41 9 13 17 20 16 16 14 12 13 15 17 18 20 20 23 27 28 34 40 45 49 53 49 50 40 30 24 26 34 27 23 23 22 19 15 7 12 12 12 11 10 8
29 9 15 20 22 19 18 18 20 18 16 17 22 22 24 25 28 31 34 40 48 54 55 52 53 55 51 51 47 46 44 41 38 37 37 34 27 10 5 3 5 6 6
21 8 14 19 21 20 24 20 21 20 20 23 24 25 26 28 28 30 34 37 47 51 51 50 44 46 46 41 43 41 42 41 41 37 38 41 48 29 16 7 9 12 11
18 8 12 19 18 20 22 19 23 25 25 25 28 29 28 28 28 30 32 36 34 38 33 34 33 35 31 35 37 35 35 38 39 39 37 40 46 50 34 22 20 20 18
18 5 10 16 17 20 16 22 22 26 27 27 29 31 29 29 28 28 32 34 40 44 35 29 30 34 31 30 33 31 34 38 38 40 38 40 44 49 52 42 31 26 24
17 4 7 13 17 17 18 17 23 27 29 30 30 31 31 28 28 27 27 30 34 37 34 30 29 32 24 31 33 30 31 33 37 37 36 37 41 45 43 44 47 44 35
15 3 4 8 13 12 17 18 20 21 24 27 28 30 28 30 29 30 28 26 29 30 29 27 25 27 28 28 27 28 29 28 29 30 31 33 35 39 40 37 39 38 41
13 1 5 6 17 15 16 15 14 20 20 23 24 27 28 30 32 28 26 25 21 25 24 22 22 26 27 27 27 26 25 24 25 27 27 27 27 29 33 34 30 35 35
12 4 7 9 11 18 15 13 17 17 19 19 22 21 25 28 30 30 29 26 25 26 24 25 26 27 26 27 27 26 24 22 21 21 20 22 23 21 23 28 29 29 30
10 6 7 9 11 14 16 12 14 17 19 18 18 21 21 23 26 25 24 22 22 22 24 23 24 25 26 26 25 23 21 20 18 17 15 14 14 15 16 18 22 24 26
11 10 9 11 15 13 16 13 13 14 15 18 17 19 18 20 20 22 21 20 20 21 21 21 22 24 25 27 27 25 24 23 22 22 20 17 12 9 10 11 13 16 18
11 12 10 12 17 14 16 15 14 14 14 15 19 17 17 17 16 18 18 19 18 17 18 19 20 22 24 29 30 26 23 24 24 25 24 19 14 11 5 5 6 7 11
12 12 9 12 17 19 17 19 16 16 14 15 15 17 16 15 15 17 15 16 16 16 16 16 20 21 23 27 30 29 23 23 24 25 28 27 20 11 8 4 2 3 4
13 15 12 14 19 20 19 20 17 16 16 15 15 15 14 14 14 14 13 13 14 15 17 17 20 22 24 26 29 32 27 23 25 27 28 29 31 23 7 3 1 4 3
17 17 15 16 18 20 22 20 21 18 18 14 12 13 13 11 10 12 10 9 12 14 15 17 20 22 25 26 27 29 31 28 25 28 31 32 33 31 22 6 4 5 7
18 20 18 18 18 21 20 23 22 20 17 16 12 11 12 10 9 10 6 6 9 12 12 15 17 19 22 25 26 27 29 31 30 26 28 31 34 35 30 23 8 4 7
20 22 19 19 18 22 23 24 23 21 19 17 14 9 10 8 8 8 5 3 7 8 8 11 13 15 19 23 25 27 27 29 32 31 25 28 32 35 36 31 25 9 6
22 23 23 22 20 22 26 25 24 23 20 17 14 10 7 7 6 6 3 4 4 5 5 6 10 12 14 19 23 26 25 28 29 32 30 28 29 35 37 35 32 30 18

GFSSE_250_spd_057.txt.gz
Wind_Speed
49 49 36 19 10 14 12 13 15 14 10 7 8 2 4 4 2 4 7 9 8 10 10 12 13 12 11 9 6 3 2 3 5 6 7 5 3 8 13 17 17 8 5
51 51 30 12 12 13 17 17 16 12 8 10 15 12 7 2 3 6 7 9 9 8 5 6 10 10 9 9 8 7 7 5 5 4 3 3 2 2 2 4 7 6 3
52 48 18 13 13 17 18 18 16 21 24 20 15 10 5 3 5 7 7 5 3 2 4 4 4 5 8 9 6 6 5 5 4 2 1 3 4 3 7 6 5 6 8
56 37 16 13 13 17 16 16 18 18 17 17 14 8 8 11 12 11 10 7 5 8 7 8 1 6 8 9 7 4 2 2 1 4 3 7 7 4 5 5 8 10 8
53 21 15 15 16 17 15 15 16 16 17 15 14 17 18 19 16 14 13 10 7 10 6 6 6 9 9 8 3 2 2 4 3 6 9 8 8 7 10 9 5 5 3
42 17 14 16 18 15 13 14 16 17 16 16 20 25 24 20 18 14 12 11 9 9 9 13 13 12 9 4 3 4 3 1 6 6 13 13 9 8 9 9 11 8 6
32 18 18 18 19 17 13 13 13 15 15 19 23 22 22 24 25 28 26 28 28 23 20 20 19 16 14 8 9 6 5 4 8 11 12 13 13 13 14 14 12 10 5
28 19 20 20 20 16 13 10 12 14 15 21 23 22 24 25 34 37 45 49 50 44 36 30 28 27 24 21 21 20 18 21 22 24 10 13 18 20 16 15 12 10 6
25 20 21 21 20 14 13 13 13 15 19 23 23 26 29 30 43 45 45 50 55 57 55 50 47 44 44 43 37 34 30 30 32 31 27 8 12 13 12 10 11 9 7
25 19 19 23 22 23 20 16 15 20 20 22 26 29 31 33 39 47 46 43 47 49 47 43 39 39 41 41 42 35 30 27 31 38 44 26 17 4 3 6 8 9 10
25 16 17 22 21 22 17 17 18 20 20 22 26 31 31 30 40 31 33 35 37 35 32 37 36 35 37 37 36 34 35 33 36 41 45 48 32 23 16 13 11 13 11
25 14 11 19 23 22 21 20 21 21 22 23 26 27 27 30 25 30 40 38 33 31 28 30 29 29 31 33 35 35 32 35 38 43 44 47 46 33 26 23 19 17 15
24 10 7 16 21 21 23 23 22 21 23 23 25 25 26 30 30 30 28 26 23 27 31 29 29 27 27 28 28 30 29 30 33 37 42 44 46 43 34 27 23 21 19
22 9 3 13 17 22 20 21 21 22 24 25 22 26 25 27 27 24 25 34 31 27 29 27 22 27 27 25 25 26 30 28 28 32 35 39 41 43 42 39 33 30 27
19 9 2 2 9 16 18 19 23 21 23 18 27 25 29 28 28 24 22 22 24 23 22 27 29 29 28 26 25 24 24 25 28 29 29 32 35 36 37 36 39 41 41
18 9 1 2 10 12 12 14 19 18 19 19 17 22 27 25 25 20 22 21 21 23 28 29 28 27 25 24 24 21 21 21 22 21 22 25 28 32 32 34 34 31 30
16 10 4 5 8 10 9 14 12 13 18 21 23 24 26 25 26 25 24 26 25 24 25 26 26 27 28 29 24 24 26 24 21 17 16 18 21 25 29 31 30 30 29
13 9 5 8 9 10 11 14 12 13 18 19 21 20 24 24 22 21 24 25 24 23 23 25 26 30 32 30 29 29 30 29 25 21 18 13 13 15 19 21 24 24 24
13 9 7 12 11 13 11 14 15 12 13 17 18 20 17 20 16 18 19 21 21 21 22 23 25 28 33 31 27 27 27 26 28 24 18 13 9 8 11 14 16 19 21
14 7 7 11 12 15 15 15 15 13 14 13 14 14 13 17 16 15 18 18 19 20 19 20 23 27 33 33 28 28 28 24 25 27 27 19 8 7 6 7 9 12 14
12 7 8 14 16 16 20 18 15 13 14 13 14 14 13 11 14 13 15 16 18 20 20 21 24 27 31 33 30 28 28 27 28 28 30 26 18 5 6 5 6 7 10
10 10 11 15 17 16 19 19 18 11 12 13 13 12 11 10 11 11 12 13 15 18 19 20 23 27 28 30 32 31 26 25 29 31 31 29 25 16 5 7 6 5 5
11 12 14 17 20 18 17 20 19 16 14 12 12 12 11 10 9 8 9 12 14 15 16 17 21 24 26 28 30 30 32 27 25 29 32 32 27 26 17 4 6 5 7
13 15 15 19 19 20 22 22 20 18 16 12 11 11 10 9 7 4 5 9 12 12 13 15 17 21 24 26 26 29 30 32 29 28 29 31 31 28 29 20 6 5 7
15 17 16 21 20 21 23 24 23 20 17 14 11 10 8 6 7 4 3 4 8 9 9 11 14 18 20 24 27 26 28 29 33 33 28 29 34 31 31 32 25 12 3
19 19 16 20 21 22 26 27 26 24 20 17 12 10 9 7 8 4 2 3 5 6 6 6 11 15 19 20 23 24 25 25 29 32 32 29 32 33 35 33 31 30 21

GFSSE_250_spd_060.txt.gz
Wind_Speed
54 31 18 13 12 10 12 12 8 7 5 5 6 6 5 3 4 6 9 12 12 12 13 15 16 14 11 8 7 7 8 6 6 7 4 5 5 3 5 6 11 13 8
46 20 17 14 15 17 20 19 16 14 11 11 10 8 5 6 8 10 12 12 11 12 7 7 10 11 10 9 10 11 10 8 8 5 2 3 3 4 3 3 5 5 4
32 20 16 15 16 19 19 23 23 21 18 15 12 10 9 9 8 9 8 7 5 5 7 7 6 6 7 6 5 6 8 8 7 4 3 4 3 2 4 7 8 8 7
29 23 17 16 16 17 18 19 17 16 14 14 16 15 13 11 9 9 7 5 2 6 4 5 3 1 4 5 3 6 8 8 7 5 6 7 10 8 7 6 6 9 9
32 26 16 17 15 16 18 18 16 15 18 19 20 21 20 17 12 8 6 5 5 3 3 7 10 8 8 4 1 4 10 8 8 9 8 11 12 10 10 11 8 6 7
31 30 18 18 16 16 15 14 14 17 19 20 23 26 26 25 22 17 13 9 11 13 15 16 13 11 7 2 2 4 5 10 13 14 14 17 15 12 7 7 7 9 9
30 30 19 18 16 15 13 13 14 18 18 23 25 28 35 40 37 35 32 28 27 26 23 18 15 13 10 9 8 8 10 16 16 10 14 16 14 14 11 10 10 11 10
28 30 21 21 16 14 13 12 17 17 18 25 28 36 44 48 52 52 52 49 47 43 38 33 32 31 28 29 28 24 23 27 29 13 11 14 14 18 19 15 15 13 9
26 27 21 24 21 18 15 15 18 17 24 29 33 41 37 39 42 45 46 45 46 44 41 38 36 33 31 27 24 22 28 32 35 26 13 6 6 8 10 13 13 11 9
24 23 20 21 19 17 19 19 16 21 29 31 36 37 34 35 34 34 34 33 36 35 36 35 33 34 32 29 29 32 31 33 36 39 27 17 9 9 10 12 12 11 9
22 20 21 23 24 22 21 19 18 22 29 29 30 33 28 24 26 28 31 31 29 30 30 30 30 27 28 30 28 27 29 33 39 41 38 30 23 19 15 12 11 9 8
20 17 19 22 21 21 22 21 20 22 24 25 24 22 26 30 27 29 30 32 31 30 29 28 26 24 26 25 23 23 26 32 39 42 41 34 28 23 20 17 14 12 11
18 12 16 18 22 21 22 20 20 23 19 17 17 18 22 22 23 22 24 29 29 30 26 25 26 23 22 24 24 27 27 31 35 39 39 41 31 26 25 24 22 21 17
16 10 10 12 15 20 23 22 25 22 18 20 21 20 20 20 20 23 23 24 25 28 28 28 28 27 24 22 21 22 22 26 29 33 35 38 39 39 30 28 28 25 22
16 8 5 6 8 15 17 18 22 29 25 20 18 19 18 18 16 19 21 21 27 27 28 29 28 26 25 23 22 21 22 22 22 26 31 35 38 34 36 38 37 37 36
15 9 4 4 6 9 14 12 15 20 22 20 21 19 17 18 21 20 22 23 26 28 29 31 32 30 31 29 28 28 25 18 17 20 24 28 31 34 33 31 31 31 32
17 7 2 3 5 4 8 11 14 17 19 21 20 21 20 23 21 20 22 24 25 26 28 31 31 31 29 28 29 29 25 21 18 16 16 21 24 28 30 29 30 28 31
17 5 1 5 7 4 7 10 11 17 18 20 21 20 19 18 19 21 20 21 21 23 26 29 32 30 28 29 30 26 25 26 22 14 11 12 18 20 23 24 23 23 23
16 5 3 6 10 8 5 11 14 11 16 16 16 16 17 15 18 19 20 20 19 23 24 26 30 30 27 28 26 25 26 29 27 22 10 8 10 12 16 19 20 18 19
15 5 6 6 13 14 10 12 14 13 13 13 10 12 12 16 16 16 17 19 18 18 23 25 27 29 29 27 25 26 28 29 29 25 19 6 5 8 10 12 14 14 15
16 6 9 9 16 18 14 15 14 15 13 12 9 9 10 12 14 15 15 16 15 18 21 22 23 26 27 29 29 26 27 29 31 27 23 19 5 6 10 11 10 13 14
15 9 11 12 18 20 18 17 16 14 12 12 10 8 9 10 12 13 12 12 14 16 19 20 22 23 25 26 30 29 29 28 29 30 26 29 18 5 5 9 11 11 10
12 13 15 15 21 21 23 20 18 15 15 13 10 9 8 8 7 10 12 10 10 12 15 17 20 22 23 23 26 30 32 31 30 31 33 31 32 22 5 8 10 9 8
15 16 18 18 23 24 23 23 21 17 16 12 10 8 7 7 5 6 6 7 7 10 12 16 18 20 23 23 23 25 28 32 31 31 31 35 36 35 30 12 3 7 8
17 18 19 19 23 27 25 27 23 21 17 13 9 8 7 6 5 5 4 4 5 5 8 13 17 17 20 21 21 21 24 28 30 33 31 30 35 37 34 34 27 14 1
20 20 20 21 23 29 29 28 28 24 20 16 12 9 7 5 5 2 0 1 3 4 7 10 14 16 16 18 19 20 21 25 27 30 32 31 33 34 38 37 35 34 31

GFSSE_250_spd_066.txt.gz
Wind_Speed
33 23 16 15 18 21 23 22 16 14 11 7 3 2 4 5 6 6 8 10 11 10 10 12 13 13 13 14 12 11 10 11 10 11 11 6 3 1 3 5 6 1 1
30 23 16 16 17 19 21 20 18 16 12 9 6 4 5 6 5 5 6 6 6 6 6 5 7 7 7 10 9 11 12 11 11 11 9 6 2 2 4 4 3 2 4
29 21 14 16 20 23 22 21 20 19 17 12 9 9 10 10 7 3 1 3 7 4 3 6 5 3 3 2 3 4 7 9 8 10 8 7 5 1 1 1 1 4 4
28 22 14 17 21 22 21 22 23 21 19 19 21 20 17 13 7 1 0 5 4 7 6 7 9 8 9 8 6 8 8 8 8 8 9 11 9 4 4 3 4 3 1
30 22 16 18 21 19 20 22 25 26 26 28 30 31 32 32 29 21 16 14 15 15 15 15 14 13 11 10 11 9 12 10 10 14 14 13 10 7 4 8 6 1 3
31 22 15 16 18 17 22 26 31 38 41 40 44 45 42 37 34 29 27 21 19 19 18 17 16 15 14 15 13 12 17 20 19 18 15 15 12 10 8 6 7 7 4
31 20 19 17 16 19 23 32 38 37 38 38 39 42 42 42 42 38 34 31 28 28 29 29 29 26 25 23 19 17 19 21 15 11 9 13 15 11 9 10 9 5 3
31 24 23 21 20 24 31 33 32 30 34 36 32 38 37 39 37 35 33 33 31 29 29 28 25 24 23 24 22 20 22 22 15 7 4 11 15 15 15 14 9 6 3
31 26 22 23 22 24 28 28 28 26 27 35 36 35 34 34 34 31 29 30 29 29 28 26 23 22 19 23 25 25 29 24 26 18 14 12 14 16 14 13 10 7 4
29 28 22 22 21 24 27 27 25 24 23 29 33 34 36 34 30 30 29 28 26 25 24 23 22 22 22 23 28 29 37 29 31 27 21 19 17 15 16 11 9 7 6
26 27 25 21 20 21 21 20 20 23 25 22 26 30 34 33 32 31 28 27 23 20 19 19 20 20 20 23 27 30 38 39 30 31 26 20 18 17 16 13 11 8 5
22 24 25 20 20 19 16 15 11 15 21 24 25 26 30 31 30 32 34 32 28 25 23 23 24 22 21 22 26 30 35 41 40 33 32 27 22 19 15 13 11 10 12
21 20 21 23 18 18 13 11 10 11 14 20 21 23 27 30 31 32 35 34 32 31 30 29 29 29 26 24 25 29 33 37 43 43 36 31 29 26 23 21 21 20 20
24 17 17 18 20 19 15 15 15 13 16 17 18 20 25 27 30 32 34 34 33 33 31 30 31 30 29 27 25 26 29 32 36 39 43 41 33 29 27 25 26 25 26
27 16 12 13 16 16 15 17 15 16 15 17 20 20 22 25 27 30 32 33 32 32 33 34 34 33 33 30 25 22 26 26 32 35 35 37 39 37 32 30 30 32 32
24 17 11 9 12 13 15 16 18 16 17 17 20 19 20 23 25 28 27 30 33 33 35 34 33 33 35 33 31 22 20 22 28 31 32 32 34 36 37 35 34 33 33
21 16 10 6 8 10 7 12 15 16 16 18 21 18 18 21 22 26 26 28 30 32 35 35 31 30 34 36 34 27 19 20 24 25 27 30 30 29 29 29 29 29 30
17 16 8 5 4 7 6 7 10 14 16 17 19 18 15 16 21 24 23 25 27 29 33 35 35 34 33 35 34 30 27 22 18 21 21 24 27 26 24 24 24 24 25
15 16 10 2 1 3 2 4 8 7 10 15 18 16 14 15 17 20 22 24 25 27 29 32 35 37 36 36 35 32 32 28 18 15 18 19 21 23 22 20 20 20 20
17 18 8 5 5 4 5 4 4 4 7 12 14 12 11 14 14 18 19 22 24 25 25 28 32 35 37 36 35 35 36 33 25 14 14 16 17 17 20 19 19 17 16
19 15 11 9 9 10 8 7 6 4 6 7 8 9 10 13 14 14 15 18 21 23 24 26 28 31 34 36 36 35 36 34 30 24 13 14 13 14 14 17 16 16 14
14 15 15 9 11 13 12 11 10 10 7 4 3 8 10 12 11 11 11 16 19 19 21 23 24 26 30 33 37 37 37 35 34 33 22 13 15 14 13 12 14 15 12
17 19 20 9 14 13 17 14 12 13 10 6 7 6 8 7 9 7 8 13 16 18 19 21 23 24 25 30 34 37 37 36 37 38 35 25 13 14 13 11 10 8 6
19 21 23 14 12 14 19 18 14 12 10 9 11 7 5 3 4 4 7 9 12 14 17 17 21 22 24 26 30 32 35 34 32 35 37 38 32 18 11 9 5 2 1
20 22 20 17 12 14 19 19 18 14 13 11 10 7 5 4 2 2 5 6 8 12 14 16 18 20 22 24 26 27 29 32 35 36 36 36 36 37 37 32 25 20 18
23 22 21 17 11 14 19 23 23 19 16 13 12 11 6 6 3 2 3 2 5 8 11 15 15 17 19 20 23 25 25 27 30 31 33 35 34 33 32 32 31 31 30

GFSSE_250_spd_069.txt.gz
Wind_Speed
26 17 16 16 14 15 16 12 9 4 2 3 4 5 6 6 4 3 4 6 7 6 5 7 8 7 8 10 11 10 9 10 10 9 8 4 1 3 5 8 9 4 5
24 16 18 17 18 20 21 18 14 11 10 9 8 9 9 6 3 1 2 3 3 1 1 2 5 5 3 6 5 6 8 9 8 8 8 5 4 3 5 4 5 5 8
23 15 18 18 21 24 22 19 19 18 15 12 10 6 3 2 4 4 5 5 8 6 5 3 4 3 4 4 3 4 6 8 8 8 8 5 6 5 6 6 6 7 7
22 16 19 20 23 24 24 27 33 36 36 33 31 31 27 21 14 9 8 6 5 11 13 13 13 13 10 8 8 4 3 6 9 8 6 7 8 7 6 7 7 7 5
23 17 18 19 24 26 33 37 38 40 42 43 44 39 38 37 32 25 18 15 14 16 15 14 14 13 11 7 3 4 7 14 15 15 12 9 10 10 10 9 5 5 7
23 16 18 19 26 35 33 36 34 37 38 39 43 44 42 40 35 29 24 21 18 17 18 22 24 20 17 14 14 13 16 19 19 18 20 14 9 10 12 11 5 7 8
23 22 21 22 29 31 32 36 34 30 36 35 36 39 39 38 36 33 30 29 28 26 23 24 24 24 23 20 20 19 22 16 12 9 15 20 15 11 10 11 12 8 7
24 24 23 24 26 27 25 30 34 32 31 31 33 35 32 32 32 30 28 27 27 25 22 22 20 19 22 21 20 21 14 12 4 8 16 22 24 18 17 17 11 7 8
27 24 21 22 24 24 23 24 25 30 31 31 29 31 30 27 26 24 23 23 22 21 19 19 18 16 18 21 25 21 22 21 16 15 17 24 26 22 20 16 14 11 8
31 25 21 20 19 21 22 22 21 25 26 31 30 30 30 27 24 23 19 18 16 15 13 13 15 16 19 24 28 27 27 28 25 29 22 23 24 22 20 17 13 11 9
28 28 23 18 18 15 14 17 20 23 25 29 27 27 30 33 31 29 28 27 26 26 24 23 19 16 19 24 33 37 33 32 31 29 30 26 22 21 17 14 11 9 9
24 27 25 22 14 13 12 15 15 18 23 25 25 27 29 34 32 30 31 30 30 28 28 27 24 20 22 25 31 40 40 34 31 29 27 26 26 22 18 15 12 13 14
22 23 23 25 18 12 12 13 16 15 19 21 23 24 27 31 34 32 32 31 32 32 31 29 27 22 21 26 29 34 38 41 34 33 31 28 25 22 21 20 19 19 19
26 18 18 22 19 15 14 15 16 17 18 20 22 23 25 28 31 32 33 33 33 33 33 33 33 26 20 23 28 31 34 36 40 34 34 33 32 30 28 27 26 24 22
26 21 15 17 17 16 14 15 16 16 17 20 20 21 22 26 28 30 32 34 35 32 31 32 34 32 24 20 25 29 29 34 36 40 36 34 35 34 33 31 30 33 34
24 22 16 13 14 13 11 12 15 16 17 18 19 21 22 24 27 27 29 32 34 35 34 34 34 33 31 23 20 25 27 31 35 38 39 38 37 36 36 35 35 35 34
21 21 17 10 12 11 9 8 11 16 17 17 18 20 21 22 26 27 28 30 33 35 37 37 35 35 33 30 23 19 22 26 33 35 34 34 36 34 34 33 32 32 30
18 23 17 10 7 9 9 6 8 11 13 15 18 19 18 20 25 26 28 28 30 32 35 37 35 35 35 34 30 20 16 21 29 31 32 30 29 27 28 29 29 29 26
16 20 16 11 4 6 5 4 6 8 12 12 14 17 16 19 21 24 26 29 30 30 33 35 35 35 35 35 31 26 16 17 24 28 28 29 27 26 25 24 22 21 21
12 16 16 11 5 0 3 2 3 6 8 9 11 13 14 15 19 20 24 26 29 29 30 33 34 36 37 35 34 31 26 16 20 22 23 23 26 24 23 21 19 15 13
9 10 18 14 8 6 2 1 2 4 6 7 8 9 11 12 16 18 21 23 25 27 28 29 31 33 36 37 35 35 35 27 18 21 19 19 19 21 21 20 18 15 12
9 9 14 17 9 8 7 4 3 2 3 5 4 5 7 10 13 15 18 21 22 23 26 26 28 30 33 34 34 33 36 38 27 17 19 17 15 13 14 13 11 10 8
16 12 13 16 14 8 10 9 7 4 5 5 3 0 6 7 12 14 14 17 19 19 22 24 26 27 29 31 34 35 36 39 39 29 16 16 15 12 10 10 9 6 2
20 18 11 14 16 11 10 13 11 3 4 6 4 2 6 5 8 10 12 15 15 17 18 21 23 24 26 28 29 31 36 38 39 39 33 18 13 11 7 5 4 2 1
22 17 12 11 15 14 11 13 14 9 6 6 4 4 8 3 4 4 7 9 12 14 17 19 19 21 23 25 27 29 30 34 37 35 36 35 30 22 19 20 21 24 25
26 21 19 10 11 11 11 14 15 14 9 8 8 7 7 7 0 3 6 7 10 10 12 15 16 17 21 22 25 27 27 28 31 32 32 32 29 28 26 24 26 26 26

GFSSE_250_spd_072.txt.gz
Wind_Speed
20 20 19 15 13 10 9 8 6 4 6 8 10 10 8 7 6 5 5 6 7 8 8 8 9 8 9 9 10 10 10 9 9 7 7 4 1 4 8 12 10 8 10
21 19 20 18 19 22 21 19 14 9 7 5 5 6 5 4 2 2 1 3 2 2 3 3 5 5 5 4 1 1 4 6 8 6 5 8 7 6 9 8 6 8 11
19 20 19 20 26 32 35 34 30 25 22 17 11 7 4 5 5 6 6 8 6 6 2 1 2 3 7 9 6 3 8 10 8 8 8 8 10 8 9 9 9 9 9
20 20 22 27 33 36 36 36 40 36 35 35 31 24 18 13 8 6 6 6 10 11 12 12 12 10 8 6 5 9 11 8 8 6 7 11 12 12 11 8 9 8 8
20 20 26 31 32 31 31 32 36 38 41 40 37 35 32 26 21 18 16 14 14 15 15 15 14 10 7 2 6 9 14 14 16 15 12 5 12 13 13 11 11 11 10
23 21 27 29 34 35 29 32 33 34 35 35 36 35 34 32 29 26 23 21 21 23 22 20 16 13 8 6 8 12 15 18 19 18 13 11 13 16 16 11 6 10 12
25 24 25 26 30 32 33 30 30 32 31 31 32 31 29 28 29 27 24 22 22 20 17 16 16 14 14 13 20 18 10 11 10 14 25 19 14 15 15 13 11 11 10
26 21 22 24 26 29 31 30 31 29 29 28 26 25 24 24 24 22 20 19 17 16 15 14 14 14 14 18 19 8 9 3 6 17 22 22 18 16 16 17 13 11 13
27 22 20 24 25 26 27 27 28 28 28 31 28 23 19 18 16 15 13 13 13 13 11 10 12 16 19 20 15 16 15 17 17 21 33 27 24 22 21 16 15 15 12
29 23 19 18 22 22 24 25 24 27 25 27 29 27 26 26 24 22 20 18 13 9 8 6 11 18 25 25 22 22 26 31 23 29 31 28 25 25 20 18 15 12 13
29 27 19 17 16 18 20 20 21 22 24 27 29 30 28 27 27 25 22 21 20 18 14 10 14 16 20 29 25 27 32 28 22 27 31 29 27 24 21 16 15 12 14
26 28 22 15 14 15 17 16 18 18 22 24 28 30 31 29 27 27 26 25 24 22 19 14 15 18 18 26 30 30 31 31 29 28 28 25 25 22 20 17 15 13 16
24 24 26 20 16 14 13 16 18 17 21 23 26 30 30 31 31 28 26 26 27 26 24 17 15 18 20 26 32 29 30 29 26 27 27 27 25 21 19 16 17 18 19
24 20 23 20 17 14 14 16 17 18 21 22 25 28 28 30 32 33 31 26 26 27 27 22 15 17 21 24 31 32 30 31 28 26 24 24 22 21 20 21 21 23 24
23 20 17 18 19 15 15 14 17 19 22 23 24 26 28 29 33 32 34 33 31 30 29 27 21 17 19 22 29 32 32 31 30 29 29 29 30 28 27 26 27 27 29
22 22 14 15 16 14 14 13 15 19 21 22 24 26 27 29 33 31 31 34 35 33 33 32 28 21 18 20 25 30 31 32 32 33 34 33 33 33 35 36 34 33 30
20 22 14 11 14 13 11 11 13 16 22 23 23 25 27 26 31 30 30 33 34 35 32 33 32 27 18 18 22 26 28 31 33 36 38 37 36 36 35 35 32 29 29
18 20 15 10 9 11 10 9 13 13 17 22 21 23 25 25 26 29 31 32 33 35 35 35 34 32 27 16 18 21 24 25 29 32 35 34 33 32 31 30 28 28 23
13 15 17 14 7 6 7 7 10 11 14 20 19 20 23 24 23 26 29 30 31 32 34 35 35 36 34 27 16 19 22 21 25 27 30 31 31 30 28 26 24 20 17
9 11 17 16 12 3 3 5 6 8 11 16 16 16 20 20 21 23 24 27 28 29 32 34 33 34 35 34 28 15 21 22 22 24 26 30 29 26 24 22 19 17 13
4 7 14 16 15 6 1 5 4 4 7 12 12 14 16 18 17 21 22 22 26 27 29 31 32 33 35 37 36 25 18 21 23 22 22 21 19 18 17 15 13 11 8
8 6 9 13 14 11 4 5 6 3 1 7 7 10 12 15 14 18 21 22 23 25 26 28 30 31 34 36 38 36 22 18 19 22 20 18 18 15 13 10 7 5 2
14 11 7 9 10 11 10 5 6 5 1 1 4 4 9 10 12 14 18 20 21 23 23 26 28 29 30 32 34 37 37 21 17 16 15 14 12 10 7 5 3 1 2
20 15 9 7 9 10 9 8 6 6 5 3 1 4 4 5 7 11 12 16 18 20 21 22 25 27 28 31 31 33 36 37 30 15 11 8 7 5 3 1 2 4 4
22 19 13 9 9 10 7 8 8 8 6 5 3 3 2 4 5 8 9 12 14 16 19 19 21 23 25 28 30 31 32 34 34 34 31 24 19 16 14 14 16 18 23
24 22 18 12 10 9 8 7 10 10 10 8 6 5 1 2 4 7 7 9 11 12 15 17 17 19 22 24 26 28 30 31 30 30 30 28 25 22 21 20 20 21 20

GFSSE_250_spd_075.txt.gz
Wind_Speed
20 19 19 15 13 9 5 3 4 6 9 12 13 13 12 9 7 7 6 6 8 10 11 12 13 14 13 13 14 14 12 12 9 10 8 7 3 3 8 13 13 11 10
22 21 23 26 28 26 25 23 15 7 3 6 9 9 8 6 3 3 1 2 1 7 9 9 8 8 9 9 6 6 6 4 9 9 7 7 5 8 10 9 10 10 11
23 26 29 29 30 35 34 33 32 30 25 21 15 8 7 8 6 6 8 4 3 1 3 4 4 4 5 6 4 5 4 7 9 7 7 11 9 8 9 7 9 11 10
26 27 26 26 27 30 33 35 35 33 34 32 28 23 15 10 7 6 5 3 6 8 8 8 8 7 6 4 6 14 13 14 9 10 12 9 11 9 10 11 11 10 8
27 29 32 28 28 28 30 31 31 32 32 31 30 28 22 16 15 15 12 12 12 12 11 8 6 3 2 6 12 13 14 16 15 12 9 10 15 12 12 11 11 12 13
23 26 29 32 29 27 29 29 29 29 27 28 28 26 24 23 24 21 19 19 18 16 12 10 10 9 7 10 13 14 17 20 19 16 15 11 15 15 14 15 15 12 12
21 23 29 31 29 31 29 28 25 25 22 22 23 23 23 22 20 19 17 15 12 11 10 11 8 9 12 13 15 15 14 18 23 22 18 15 13 19 14 10 12 13 10
22 22 25 26 27 27 28 26 24 28 26 23 22 20 18 17 15 13 11 9 10 10 8 6 10 16 21 13 9 9 13 13 16 23 24 20 16 18 16 13 12 12 12
19 20 21 22 23 23 26 23 24 28 29 27 26 25 24 22 20 16 11 8 8 7 6 8 11 18 22 14 10 9 15 19 26 23 29 23 19 17 20 15 14 13 12
22 18 16 18 21 23 21 24 24 30 31 29 26 26 24 22 21 19 16 13 11 9 7 6 9 18 21 18 16 24 24 31 38 27 27 26 20 21 19 19 16 13 16
22 18 17 18 23 20 20 23 24 25 29 30 30 28 24 23 22 19 19 17 15 14 9 9 11 17 19 19 23 24 33 33 35 31 28 29 25 22 20 15 13 16 15
25 23 20 20 21 20 20 24 24 25 27 31 32 32 28 23 22 22 23 21 18 15 10 10 11 16 21 21 25 26 29 31 34 29 27 25 25 20 17 14 14 16 19
22 24 23 20 19 20 20 23 24 24 26 29 31 33 31 32 30 25 23 23 22 19 11 8 12 17 23 22 24 27 28 30 31 26 23 23 21 17 15 15 16 19 20
22 21 22 20 19 19 20 21 22 24 26 29 30 32 31 31 34 32 29 28 26 24 16 9 13 19 23 23 24 22 26 26 26 23 20 20 17 17 15 15 18 20 21
22 19 17 18 18 19 20 20 20 23 26 28 29 31 32 31 32 33 33 30 30 29 24 13 13 17 21 24 24 24 23 23 23 22 20 18 17 18 20 20 22 21 22
23 17 15 15 16 16 19 19 20 21 24 26 27 27 32 33 32 34 33 33 32 32 29 21 12 16 18 22 25 27 24 24 23 22 24 25 25 25 24 25 25 26 24
22 18 13 11 12 14 16 17 16 20 22 25 25 26 28 31 32 32 32 33 34 34 33 29 18 12 15 18 25 27 28 27 27 27 28 29 32 33 32 32 29 25 21
17 20 15 10 8 10 13 14 15 18 19 21 23 24 26 27 29 30 31 31 33 33 34 35 30 17 11 14 18 25 28 31 31 32 32 33 33 31 29 26 25 21 16
11 16 18 13 8 6 9 10 12 16 18 18 19 21 23 26 26 28 29 30 31 33 35 35 35 32 14 12 15 19 24 25 26 25 27 27 27 26 24 23 19 13 13
7 10 15 13 9 6 4 5 6 12 15 16 18 19 21 23 25 24 26 28 30 30 33 35 36 36 29 13 15 17 20 21 20 21 22 21 21 19 20 17 12 10 7
8 9 10 13 9 6 4 2 2 5 10 13 15 16 18 20 23 23 24 26 28 28 31 32 34 37 37 24 16 19 20 18 18 21 21 18 16 14 13 10 6 4 4
12 10 7 10 11 4 4 4 5 4 4 8 9 12 14 18 20 20 22 23 25 26 29 32 33 34 36 36 18 19 19 19 18 17 13 11 9 7 5 2 3 4 6
18 14 10 9 9 10 2 5 6 5 4 3 5 8 11 14 14 16 18 20 21 23 26 29 30 33 33 36 35 18 17 14 13 11 9 9 6 3 0 2 5 9 11
19 17 12 9 7 12 6 3 5 4 5 1 1 3 8 9 13 12 14 16 18 20 23 25 27 30 32 32 36 36 19 13 8 6 4 3 3 3 5 6 7 7 10
19 18 14 11 8 7 11 2 4 8 7 4 2 2 3 7 11 10 11 12 14 17 19 21 23 25 29 30 31 32 33 31 23 17 16 15 17 18 19 19 21 21 23
23 20 17 14 8 5 8 8 3 10 10 7 5 3 1 3 6 8 8 8 10 12 15 16 18 20 23 25 26 28 29 27 25 22 22 22 23 22 19 17 16 15 15

GFSSE_250_spd_078.txt.gz
Wind_Speed
26 28 27 22 19 14 7 4 8 13 18 25 26 25 25 22 18 16 16 16 17 19 18 16 16 15 16 16 16 17 17 15 13 10 8 6 4 3 3 7 7 8 8
27 26 28 28 27 28 26 23 16 8 2 10 14 12 10 7 5 5 6 6 9 12 13 12 11 11 13 13 12 12 12 8 6 8 8 7 6 5 10 11 8 8 11
23 23 23 23 27 27 26 28 27 26 22 17 10 7 6 5 4 4 5 3 0 2 5 5 7 9 9 9 9 7 8 4 2 3 4 7 7 6 9 8 9 11 9
26 24 25 25 25 27 29 30 29 29 28 27 24 18 11 7 5 4 4 5 3 3 4 6 5 8 8 8 10 10 8 9 11 8 7 5 8 6 7 9 9 10 8
28 26 27 25 26 27 28 30 29 27 26 24 26 22 16 12 12 11 9 7 7 6 5 3 0 3 10 11 10 11 13 13 12 9 10 10 10 9 10 11 11 8 10
28 28 26 27 26 28 31 32 29 26 24 24 23 21 22 20 17 16 15 11 10 8 6 2 4 6 9 13 15 20 21 19 19 15 12 13 14 12 12 10 11 11 10
24 27 28 28 27 27 27 30 29 28 25 24 21 17 18 17 14 12 9 7 6 5 3 5 6 9 16 19 20 22 23 22 20 18 17 15 16 13 13 14 13 12 9
22 23 26 25 26 28 29 30 29 29 26 26 26 24 21 15 11 8 7 7 8 8 7 8 11 16 24 14 14 17 23 24 27 26 20 15 18 18 17 12 13 11 10
17 20 23 24 24 25 25 28 29 31 29 26 26 26 22 20 20 18 16 14 14 12 10 11 15 23 21 13 5 4 17 18 20 30 22 19 20 16 13 11 12 12 12
18 20 22 25 24 24 24 26 28 30 32 29 28 28 26 22 20 19 18 16 14 12 11 13 20 26 17 12 13 15 22 24 24 29 27 22 18 17 17 15 15 14 14
20 19 21 22 23 21 24 27 28 30 31 34 32 30 24 22 22 21 21 19 16 12 11 17 22 20 18 21 27 37 33 25 28 30 22 20 17 21 20 17 15 16 14
24 21 22 20 21 23 24 28 29 30 31 32 33 28 30 29 26 26 25 26 22 17 18 20 24 18 16 22 32 34 31 32 30 26 25 23 23 22 16 13 14 14 14
21 21 23 21 22 23 24 27 28 29 31 30 30 29 31 33 30 29 30 33 21 20 21 20 24 19 16 21 25 32 32 31 27 26 24 23 19 16 13 12 13 17 15
21 19 21 22 22 23 24 26 26 27 29 32 30 31 32 33 34 32 33 33 25 15 7 14 20 21 18 20 22 27 26 25 24 19 19 17 13 12 12 14 16 17 17
22 20 17 19 22 23 25 25 25 26 26 28 32 32 32 33 34 34 34 35 25 14 6 12 18 24 21 19 19 22 23 21 18 17 16 14 13 13 13 17 17 19 22
21 20 18 17 19 20 22 24 24 25 26 27 28 32 34 32 33 35 34 35 34 27 17 10 17 24 22 21 22 19 19 18 15 14 15 13 13 15 18 20 23 21 18
23 23 18 17 15 16 20 22 23 23 25 25 28 30 16 30 33 31 33 34 34 34 29 17 12 18 23 22 23 24 22 18 15 14 13 16 19 23 23 24 21 17 15
17 21 20 16 14 13 16 19 22 21 21 23 25 28 27 27 29 29 29 33 35 35 35 27 13 11 19 23 25 26 25 24 22 23 24 26 26 25 25 21 18 14 10
16 18 18 17 14 13 13 14 19 18 19 20 21 25 24 26 27 29 30 29 32 33 35 34 22 11 13 19 23 26 28 29 29 29 28 26 24 22 21 17 11 12 9
18 16 16 16 14 12 11 10 12 15 16 17 20 12 23 24 26 27 28 29 30 31 32 34 33 15 14 14 19 22 23 23 23 23 21 20 18 17 15 9 7 7 5
16 16 12 16 16 11 10 9 8 11 13 14 16 17 18 21 23 25 25 27 30 30 31 32 34 26 16 13 16 17 18 20 20 19 17 15 14 11 6 5 5 7 8
13 16 14 12 14 15 8 7 8 9 9 12 11 12 15 18 19 22 23 24 27 28 30 32 34 34 18 19 15 15 18 19 17 14 10 8 6 4 3 6 8 10 10
15 11 15 12 10 16 12 6 6 6 7 3 5 10 10 17 16 19 20 21 24 28 29 31 33 34 30 21 18 14 12 11 9 6 4 3 4 4 7 9 11 10 9
14 15 13 12 9 10 16 8 2 2 5 7 7 8 10 14 13 16 18 19 20 23 25 28 31 32 32 28 18 14 12 10 8 5 4 4 5 8 11 15 20 22 23
16 16 15 13 10 6 10 12 5 2 4 6 9 6 7 9 11 14 15 15 17 19 20 22 25 28 30 29 30 24 18 16 16 18 16 19 19 21 19 19 18 17 16
18 17 16 15 15 8 4 9 8 3 4 11 7 5 4 5 7 7 12 10 12 14 15 17 19 22 25 25 24 22 22 21 21 20 20 21 20 18 17 16 18 17 15

GFSSE_250_spd_081.txt.gz
Wind_Speed
24 29 30 29 28 23 14 4 15 21 26 30 32 32 32 29 27 27 28 26 24 25 28 29 28 28 27 26 22 19 19 18 15 14 11 9 5 4 2 6 3 4 5
25 25 27 29 27 27 24 21 14 2 13 23 26 27 27 24 21 18 16 15 17 21 23 21 20 20 20 20 18 16 14 13 11 8 6 6 3 1 7 9 9 7 7
27 25 25 25 28 28 28 26 23 19 13 9 7 14 13 12 10 9 8 7 11 13 12 14 14 14 14 14 14 13 9 9 10 4 4 7 7 7 7 7 9 10 7
28 27 27 29 30 32 33 30 28 25 23 19 15 10 9 9 7 5 6 5 4 3 4 7 7 6 9 9 9 10 13 14 12 8 5 8 9 9 7 7 11 9 6
26 27 27 28 29 32 32 31 31 27 24 23 20 15 10 7 7 5 4 3 2 3 2 1 3 4 6 9 12 12 16 12 8 10 9 7 9 9 10 11 8 6 7
26 28 27 29 30 31 33 32 32 32 27 22 19 16 15 12 9 9 6 5 4 3 2 5 7 8 7 9 16 20 21 18 14 12 13 12 10 10 11 10 8 8 7
25 27 26 27 30 32 34 34 32 32 31 28 26 21 15 11 8 6 5 6 7 7 8 11 11 15 18 23 20 24 25 18 16 14 12 13 12 11 10 10 11 9 7
25 26 26 27 29 32 32 34 33 32 34 32 31 26 22 20 17 14 12 11 10 9 10 12 15 19 22 17 15 18 26 24 17 18 16 12 14 8 13 13 12 8 8
25 26 26 28 30 32 31 30 34 33 34 35 32 29 26 24 22 19 17 14 12 11 11 15 21 25 21 11 2 15 25 28 23 20 18 14 13 15 15 14 10 9 11
25 27 27 28 30 31 31 30 32 30 29 28 32 28 26 26 24 21 19 17 16 16 19 24 22 20 15 11 10 14 22 25 28 25 21 19 19 16 13 10 10 8 10
24 25 26 28 30 30 30 31 31 30 24 20 26 28 28 29 28 25 22 23 20 21 27 26 24 23 18 26 27 22 24 24 29 27 21 20 17 16 13 13 9 10 10
23 24 27 27 28 28 28 31 29 28 25 30 30 32 31 32 35 32 26 23 21 24 29 29 27 22 20 26 26 28 30 31 31 24 24 20 17 15 13 9 11 11 9
24 24 25 26 27 27 26 26 30 32 31 32 34 34 32 23 32 35 24 20 20 21 25 25 18 18 21 27 30 31 34 31 25 25 21 19 21 13 9 10 11 11 11
24 23 23 24 26 25 25 26 26 30 29 33 38 36 36 31 30 35 28 26 20 17 20 25 21 20 19 24 28 28 27 27 26 23 21 18 13 9 10 11 14 13 17
29 23 22 21 21 23 24 26 28 27 28 23 29 31 29 35 33 32 31 27 23 18 18 26 22 19 19 20 23 23 22 21 21 19 15 9 9 11 11 12 14 17 16
30 27 20 19 19 20 22 23 28 26 31 28 24 26 30 32 32 35 33 34 32 23 20 21 25 20 17 18 18 20 18 16 16 13 10 10 10 11 13 14 15 15 12
29 28 24 19 17 15 20 21 24 23 25 28 28 27 30 31 29 32 33 36 35 30 18 17 21 21 20 19 16 14 15 19 16 13 12 13 15 16 17 18 16 12 10
27 27 23 20 16 15 17 20 21 22 22 25 27 27 27 29 28 30 31 34 33 32 24 13 16 23 23 21 22 21 20 20 20 20 20 20 20 20 20 16 12 8 5
21 24 22 22 17 14 14 17 17 20 22 19 20 24 26 26 27 30 31 34 34 34 33 16 15 19 23 29 30 28 27 28 27 27 28 25 24 21 17 12 9 7 7
16 20 18 22 23 16 14 15 16 18 18 19 19 19 22 23 25 30 30 34 32 34 36 25 12 17 20 23 27 30 30 28 26 24 24 21 20 14 11 9 9 9 9
12 15 18 18 21 23 14 12 14 13 15 18 17 20 16 21 23 24 30 30 33 34 36 33 14 15 17 20 20 21 25 25 23 20 18 16 13 9 7 8 8 7 7
9 11 13 16 15 21 17 10 11 13 13 14 16 15 19 14 19 21 22 28 32 34 34 36 21 16 19 18 20 19 18 19 17 15 13 9 6 6 8 8 7 7 6
8 8 12 13 14 16 20 10 7 8 9 12 9 13 17 15 16 18 20 24 26 31 35 36 32 17 18 18 17 15 13 12 11 12 8 8 7 6 8 13 14 16 17
8 9 11 11 11 12 16 11 9 7 8 12 12 9 14 14 16 15 17 20 24 26 29 32 34 26 15 14 12 12 10 8 7 6 7 8 14 18 18 19 18 18 18
9 7 9 10 9 8 11 13 12 7 4 6 11 10 11 10 10 12 14 15 20 21 24 27 29 30 27 23 20 18 19 17 16 16 19 19 18 17 17 17 17 20 17
12 9 10 10 11 7 6 12 11 7 1 8 5 2 9 8 8 7 9 11 14 17 18 21 23 24 24 23 21 20 20 18 19 16 17 18 18 17 16 16 16 16 17

GFSSE_250_spd_087.txt.gz
Wind_Speed
25 25 24 20 16 14 5 11 12 11 21 33 36 35 33 36 35 35 41 43 46 45 39 34 32 31 30 29 27 27 26 26 25 24 23 20 17 16 13 12 10 7 5
27 28 28 27 20 18 18 13 5 14 15 20 28 31 33 36 36 38 35 35 34 28 28 28 26 24 24 23 20 21 20 19 18 17 15 12 9 5 4 1 2 4 4
28 30 31 31 32 28 24 21 19 13 6 11 24 31 29 26 23 22 23 23 21 24 24 23 22 19 15 16 16 17 18 16 14 11 6 7 3 2 4 5 5 6 5
28 31 31 33 34 35 34 31 26 21 18 13 8 4 10 13 14 16 16 18 20 18 15 13 9 8 9 10 13 13 12 12 9 9 3 5 5 6 3 3 5 5 5
28 30 32 32 33 35 37 35 30 28 24 19 15 10 4 1 5 9 11 11 11 11 10 9 8 8 9 8 7 6 5 6 9 7 6 5 5 6 3 8 5 4 4
27 28 30 30 33 33 34 34 31 28 26 22 20 14 9 4 2 2 5 8 10 13 13 13 14 13 13 12 10 9 6 8 9 8 5 3 5 6 6 5 5 3 5
26 28 29 29 27 27 29 32 29 27 27 25 22 17 12 6 3 4 7 9 11 11 11 12 14 17 17 18 15 12 10 10 9 8 4 3 7 7 6 3 4 3 4
26 28 29 27 29 31 32 32 32 31 27 26 27 22 16 11 9 8 8 10 12 13 13 13 16 17 20 22 20 17 14 13 11 5 7 9 8 7 5 3 3 2 2
25 27 28 27 27 30 32 35 35 35 30 24 26 26 23 23 22 18 15 17 18 17 14 14 10 9 10 18 20 20 16 16 12 7 9 10 9 6 5 5 1 2 1
21 24 27 27 26 28 31 35 35 35 36 31 29 28 24 20 21 19 18 20 24 19 19 17 14 11 1 9 16 25 22 20 14 8 9 12 9 8 7 4 0 1 2
20 22 21 22 26 25 27 30 32 33 34 34 34 33 30 28 21 20 18 22 27 22 19 23 22 17 16 17 21 28 28 21 13 13 13 12 9 9 6 2 2 3 3
20 21 20 22 24 25 25 26 28 33 33 34 37 35 34 32 29 21 20 23 27 24 23 23 26 27 27 26 30 33 27 23 16 15 13 11 9 8 5 4 4 4 6
18 19 20 21 22 26 30 30 31 33 33 35 37 37 35 33 33 27 22 25 27 26 22 29 33 32 30 29 27 29 29 18 17 14 12 12 12 8 7 6 5 6 9
18 18 17 20 23 23 28 29 32 32 34 33 36 39 36 35 37 32 24 25 27 27 22 28 31 33 35 34 31 28 24 20 18 15 14 14 9 8 6 5 7 11 9
26 15 17 19 21 23 22 24 28 33 34 32 34 35 37 39 37 38 28 23 29 26 24 24 29 31 32 32 31 26 23 22 21 18 15 11 9 8 8 9 12 10 8
27 21 14 17 21 22 22 23 25 30 31 33 35 37 36 39 38 41 35 23 30 25 23 20 23 25 30 29 27 25 24 22 18 16 14 10 8 8 12 12 10 8 9
21 25 17 16 18 20 21 24 24 28 27 29 34 35 37 38 41 42 39 22 29 29 25 22 19 17 20 23 22 19 16 14 12 10 10 11 12 15 14 11 10 9 9
18 20 24 16 12 16 19 20 22 23 28 27 29 32 34 38 41 42 40 25 28 34 30 25 21 19 17 17 15 13 13 10 11 12 18 21 19 15 12 10 9 8 8
16 18 19 19 13 11 15 17 19 20 25 27 25 29 30 36 38 41 41 27 26 32 34 32 30 29 28 24 21 18 21 21 23 24 23 20 16 13 11 8 5 6 9
13 15 17 19 15 10 12 14 16 20 22 22 23 25 26 31 36 37 40 31 27 28 31 32 33 31 32 31 30 27 27 26 25 22 17 14 12 9 6 4 4 6 9
10 14 15 16 18 15 10 13 15 17 16 18 24 22 24 24 30 34 37 32 25 26 26 27 28 28 28 26 27 25 21 18 16 15 10 9 9 7 4 3 3 7 11
7 8 12 11 14 18 14 10 11 11 14 14 20 21 23 23 25 29 33 33 24 24 25 26 23 23 21 20 19 17 17 14 13 10 8 9 9 10 8 6 5 11 13
5 4 6 9 11 13 18 11 10 10 12 13 16 20 20 20 22 25 28 30 29 23 23 23 21 18 17 16 15 13 12 10 10 10 10 18 17 16 18 19 20 18 14
6 6 3 6 9 10 12 14 8 5 7 11 9 15 18 17 18 20 22 25 27 25 25 24 23 23 23 22 20 17 15 14 15 17 18 16 16 18 16 15 16 16 15
8 7 7 3 5 7 7 9 11 11 8 8 9 10 13 14 17 17 17 19 22 23 24 22 22 21 21 21 19 18 18 18 17 15 16 15 14 15 15 13 15 19 18
10 11 11 9 4 3 4 6 7 9 10 9 7 10 9 10 14 15 15 14 17 18 20 20 20 19 20 20 20 20 19 18 17 17 17 15 13 14 15 14 14 18 17

GFSSE_250_spd_093.txt.gz
Wind_Speed
23 17 12 11 6 7 19 22 33 35 37 37 36 33 35 34 28 27 29 28 27 32 30 33 36 41 43 35 30 28 22 17 16 15 13 12 11 9 7 4 1 3 5
29 24 20 17 12 10 6 17 26 27 25 23 29 40 28 28 32 30 32 34 34 35 36 39 40 37 28 26 24 18 12 9 8 7 8 8 4 2 4 6 7 7 6
28 27 22 19 18 16 13 11 7 15 25 22 13 23 39 40 38 33 32 35 32 33 33 29 25 23 21 16 12 8 6 6 5 3 2 2 5 7 8 9 8 8 8
28 30 29 26 23 22 19 15 12 10 5 10 18 21 25 29 31 31 32 29 26 24 21 20 18 14 10 5 3 4 2 2 3 5 4 7 9 8 7 7 7 8 8
30 32 33 32 30 24 23 20 17 14 10 7 7 9 14 20 24 25 26 24 20 18 15 15 13 11 8 5 2 9 8 9 10 7 7 10 9 8 9 9 8 7 8
29 32 34 32 32 31 25 20 20 20 14 8 4 3 3 5 8 10 12 13 15 17 17 17 15 13 13 9 5 7 11 13 11 12 11 10 9 12 9 7 7 8 8
27 29 34 35 33 34 33 27 22 20 19 15 7 3 2 4 6 8 9 11 13 14 15 16 17 17 16 13 9 12 14 14 12 11 12 10 11 10 8 6 7 8 8
29 30 31 33 34 35 32 31 28 24 23 15 13 10 7 4 2 3 2 8 14 15 17 19 19 19 17 16 13 17 13 10 8 9 13 14 12 9 7 7 8 7 7
29 31 31 34 34 34 35 35 31 28 25 23 14 8 10 6 5 0 8 6 3 5 7 11 12 14 16 19 19 21 16 9 8 15 14 13 10 8 7 8 6 7 9
29 29 31 34 36 34 34 34 34 36 29 27 21 10 7 6 5 6 7 9 9 7 3 6 11 13 17 22 24 20 16 9 10 16 14 12 10 10 9 6 9 8 10
28 26 26 28 32 37 36 38 34 38 36 31 29 18 17 12 10 12 16 21 21 21 15 17 21 22 25 28 25 23 17 10 14 16 12 13 13 10 8 11 10 11 12
26 28 28 27 26 31 37 38 38 40 41 40 37 25 20 14 13 15 22 27 25 27 28 27 28 33 36 34 28 23 16 12 17 15 14 15 12 10 10 11 14 14 12
24 25 27 29 32 27 32 36 38 42 43 45 42 30 23 20 19 23 26 29 27 29 32 33 36 41 39 33 27 23 19 18 17 14 16 14 12 12 13 14 14 15 15
23 24 25 27 29 34 31 34 37 38 45 46 46 34 30 25 23 27 28 29 32 33 35 37 40 38 36 31 27 19 18 18 18 18 17 15 12 13 15 14 15 15 16
24 22 23 27 28 31 32 33 36 36 43 47 48 36 35 29 25 27 28 27 33 36 39 40 38 35 30 25 20 22 21 21 19 17 18 17 16 18 15 14 13 14 15
28 22 21 24 24 28 33 35 35 38 39 45 48 39 39 33 31 29 28 27 28 33 34 34 31 29 27 24 24 22 20 17 19 21 20 19 18 15 13 13 14 15 16
29 25 23 21 22 25 31 34 35 38 39 43 47 42 41 38 34 34 31 27 25 26 27 29 28 26 25 24 21 18 14 14 19 23 22 20 16 14 13 14 15 16 16
27 25 23 21 21 24 27 31 33 36 38 41 44 44 41 39 35 34 34 33 29 22 19 21 22 20 18 16 14 14 16 21 24 23 21 18 15 14 12 13 15 14 17
23 23 24 21 19 22 27 28 32 33 36 38 40 42 41 40 35 31 30 32 33 32 29 23 18 17 16 16 17 22 25 23 20 18 16 14 14 11 11 11 12 14 19
18 21 22 23 20 20 23 27 29 31 32 33 36 39 41 40 37 34 29 28 29 29 28 27 26 25 23 23 24 23 20 17 15 13 12 11 10 9 7 8 11 18 20
13 16 16 19 21 21 19 21 26 26 29 30 32 35 37 38 36 36 32 29 26 25 25 25 25 24 21 22 21 17 15 13 13 13 13 12 8 5 7 10 14 17 22
9 10 13 14 16 20 21 21 22 24 24 28 30 31 31 34 36 35 34 33 31 29 25 22 19 18 17 16 15 13 11 12 15 17 15 15 13 11 14 15 15 20 22
4 4 7 11 13 15 18 22 22 22 22 23 28 29 28 28 31 32 33 33 31 30 31 27 23 20 17 16 14 13 14 18 16 17 17 15 15 14 13 15 20 22 24
3 2 3 7 11 12 14 18 17 19 19 20 22 27 26 27 27 27 29 29 31 30 30 29 27 23 21 20 19 19 20 18 18 17 17 17 14 14 14 20 23 26 26
7 4 0 3 6 10 12 13 15 14 20 20 21 20 23 24 25 27 26 25 27 30 28 26 27 26 24 22 21 20 20 18 17 15 17 17 16 15 15 21 25 26 26
11 8 5 2 5 7 10 12 11 12 12 19 20 20 19 20 20 21 23 24 23 25 26 26 25 25 25 24 20 18 19 17 16 15 15 17 17 16 16 18 24 25 24

GFSSE_250_spd_096.txt.gz
Wind_Speed
16 11 5 2 10 21 23 29 37 38 36 33 29 30 26 35 36 33 30 28 32 31 28 28 33 34 35 38 36 26 22 18 14 9 8 8 8 5 4 4 4 1 4
19 17 14 10 6 4 14 27 31 41 43 40 38 36 37 35 34 29 25 27 30 28 29 30 38 36 35 26 23 22 16 12 7 4 4 4 2 0 3 7 7 6 5
27 22 19 15 12 8 3 4 17 29 36 38 36 35 34 36 31 29 31 35 32 32 37 39 33 28 25 21 15 11 8 5 3 1 0 3 5 6 8 8 7 6 5
27 26 25 20 18 14 11 7 4 3 18 31 31 29 21 21 30 37 36 37 37 35 30 30 25 21 15 10 6 4 5 4 4 5 6 10 9 5 7 6 6 6 6
28 29 29 28 24 16 13 13 10 4 1 6 23 28 27 24 23 30 37 30 29 31 28 22 15 13 10 6 2 7 7 11 10 6 10 11 9 9 9 9 6 7 7
29 31 31 30 28 25 23 16 15 12 6 4 3 7 10 14 21 25 22 25 24 22 21 20 17 13 10 8 6 7 13 15 9 12 13 11 9 9 7 6 7 8 8
30 30 30 33 32 28 25 23 21 15 13 9 5 2 2 4 8 10 13 16 20 24 24 23 19 16 13 11 9 11 14 13 10 12 13 12 11 8 7 6 8 8 8
32 33 30 32 33 33 33 28 24 21 15 8 6 6 6 2 4 7 10 14 19 22 22 21 19 18 17 12 13 14 14 10 7 11 12 14 10 8 7 7 8 7 8
27 31 33 34 36 33 34 34 28 25 22 12 7 8 5 1 4 9 13 16 15 16 18 19 18 15 17 17 17 15 14 5 6 11 13 13 10 9 9 7 6 8 10
26 27 30 36 35 37 36 35 35 31 22 11 5 5 1 3 6 10 6 6 4 9 12 11 15 19 22 22 23 18 10 6 12 12 11 9 11 11 9 7 8 9 8
30 29 26 29 32 33 37 38 37 37 25 16 12 10 3 5 8 7 8 12 8 8 10 17 22 27 29 28 24 18 9 8 15 11 9 13 13 11 10 10 12 10 10
27 31 32 27 30 33 33 39 40 40 28 23 16 13 9 11 12 12 16 19 18 19 25 30 35 35 32 27 22 16 11 15 15 12 15 14 12 12 13 15 13 11 12
25 28 29 32 30 32 34 36 43 42 34 29 22 19 19 17 20 25 23 25 27 32 39 41 35 35 31 27 23 16 16 15 14 15 14 14 13 14 16 13 11 11 12
24 25 29 31 31 32 36 39 44 42 37 35 30 27 25 23 26 28 31 32 36 42 47 43 37 31 29 22 20 18 19 17 17 15 14 15 15 16 14 12 11 13 14
24 25 25 31 32 33 36 38 44 44 41 39 34 34 30 25 27 29 34 36 37 42 39 39 32 27 23 20 16 19 17 17 15 15 17 18 17 14 12 12 13 14 14
24 24 24 28 30 31 35 39 42 45 42 42 38 36 35 34 29 29 32 33 34 35 36 33 28 25 19 20 19 18 13 13 15 19 20 17 15 14 13 13 15 14 14
24 22 24 27 28 30 34 37 40 43 44 43 39 37 36 35 32 29 28 28 27 27 27 27 24 23 21 19 18 14 12 14 19 18 17 16 14 13 13 13 13 14 16
25 24 22 26 28 28 33 35 36 40 42 42 42 39 34 33 33 30 27 25 23 23 23 23 23 21 17 14 13 13 16 18 16 14 14 14 13 12 12 11 14 14 18
21 24 23 22 25 28 28 33 35 35 38 41 42 42 39 34 32 30 29 26 22 18 16 14 14 14 15 14 16 19 18 15 12 11 11 11 10 11 9 12 15 15 19
18 20 22 22 22 23 26 27 32 34 33 36 38 40 41 39 35 31 29 27 25 23 22 21 19 18 19 21 18 16 14 13 10 9 8 7 7 7 8 14 15 20 22
12 16 18 21 21 21 24 25 27 31 31 31 32 36 37 38 38 36 32 28 25 22 20 20 20 20 20 19 15 13 12 11 12 12 10 7 3 7 12 15 19 22 23
9 11 14 18 20 22 23 24 25 28 30 30 29 30 34 34 36 37 35 33 33 28 24 20 17 15 12 10 10 11 12 16 16 16 15 16 12 13 16 18 22 24 21
4 7 10 14 17 20 21 22 20 24 24 25 26 28 29 31 31 33 33 33 33 32 30 27 23 18 15 13 13 16 16 17 17 15 14 14 14 15 19 20 26 23 24
2 3 6 11 15 17 20 19 19 21 20 21 22 24 27 28 30 28 31 32 31 30 30 30 29 26 22 18 19 16 16 17 17 16 17 18 18 18 20 25 25 22 21
7 2 4 7 11 13 16 16 15 18 21 23 21 21 20 24 26 28 26 28 29 28 27 27 27 26 25 22 19 18 16 16 17 18 17 18 19 19 23 23 21 19 15
12 8 6 3 6 10 13 10 13 13 12 16 19 18 18 20 21 24 25 23 25 25 23 24 24 23 23 24 22 19 15 16 15 16 17 18 20 21 22 22 18 15 17

GFSSE_250_spd_099.txt.gz
Wind_Speed
11 5 7 15 20 22 26 24 28 26 17 19 17 15 22 28 32 31 31 31 33 34 32 22 21 24 27 28 31 34 27 25 21 15 11 10 8 8 5 7 8 4 0
17 13 9 5 6 18 24 28 29 33 37 32 30 28 28 27 30 31 33 32 31 21 19 24 26 29 30 36 33 29 26 18 10 5 4 2 2 1 5 4 2 2 1
19 14 12 10 7 5 9 22 35 36 42 43 38 33 35 36 39 37 37 28 26 30 31 31 32 34 33 26 24 19 15 9 6 6 2 5 5 4 5 4 2 3 4
20 18 14 12 10 7 4 4 8 17 32 43 46 49 48 42 41 40 27 35 34 35 35 35 31 26 20 16 13 10 8 5 4 5 7 10 8 2 5 3 3 6 5
24 23 21 17 13 6 5 4 3 6 9 15 28 37 40 35 32 32 28 34 37 34 32 24 16 11 12 9 7 6 5 6 9 5 11 11 11 6 6 5 5 5 4
24 26 28 24 18 13 8 10 5 4 4 5 7 14 27 37 39 36 35 31 26 23 20 13 12 7 5 7 6 4 7 11 9 6 11 11 11 8 3 4 5 5 6
28 29 27 26 25 18 13 10 8 3 2 4 5 8 11 13 15 17 20 21 18 18 17 18 15 12 10 10 7 6 12 10 9 8 10 10 10 6 4 4 5 6 7
29 30 32 33 30 27 24 17 10 8 4 5 5 7 5 3 7 9 14 17 19 19 20 18 18 14 12 12 11 13 11 9 8 9 10 10 7 4 4 5 6 7 7
25 28 29 28 33 35 30 24 16 10 8 6 5 4 3 7 12 14 19 20 23 23 23 20 16 18 16 14 16 14 10 4 9 8 10 8 6 6 7 7 6 6 7
22 25 28 29 31 35 36 28 18 12 11 8 6 2 5 11 14 14 11 13 14 14 15 11 19 20 18 19 18 14 8 8 11 11 9 7 10 10 9 7 7 6 8
28 26 29 31 34 37 38 32 26 19 16 11 3 5 8 10 10 12 8 5 2 7 10 16 21 22 23 23 18 10 8 12 11 11 10 11 12 9 8 10 8 8 10
27 28 31 33 37 40 38 35 31 27 20 15 10 7 9 11 13 8 7 10 13 19 21 24 31 30 28 23 14 11 9 14 11 11 12 11 10 10 12 9 8 10 11
28 29 31 35 37 40 38 37 36 34 28 22 18 16 20 22 22 19 20 24 28 31 34 36 33 30 24 19 13 11 13 13 12 14 12 11 12 12 9 8 10 12 14
26 28 30 34 37 41 39 35 35 39 36 32 28 24 25 29 31 27 30 39 39 38 35 35 33 24 20 16 14 13 12 14 14 11 10 13 14 11 8 10 11 11 12
25 27 30 33 36 40 43 40 37 36 38 37 33 27 30 30 35 35 39 39 38 37 36 30 27 21 18 14 12 12 13 10 7 7 12 15 12 9 9 11 12 13 12
24 26 28 33 35 37 42 43 41 38 36 37 37 33 30 29 32 33 33 32 35 34 28 25 23 20 17 16 14 11 8 5 7 12 14 12 10 9 11 12 13 13 13
22 25 25 31 34 34 37 41 42 41 39 37 36 34 32 28 26 27 27 28 27 25 24 23 22 20 17 16 10 9 8 9 14 11 12 10 10 10 12 12 13 13 15
19 22 25 27 30 32 33 36 39 41 40 40 39 36 33 29 25 23 23 24 22 23 21 20 19 16 13 10 10 11 10 10 9 9 8 9 12 12 11 13 14 16 17
20 20 20 23 27 29 30 29 33 37 40 39 40 39 35 33 30 27 22 18 17 16 16 14 11 10 11 12 14 13 11 9 8 6 6 9 10 11 10 13 15 14 13
16 20 20 22 24 25 28 29 30 33 36 36 38 37 38 36 31 28 26 24 21 17 15 13 14 15 17 15 13 11 8 7 7 6 4 4 6 9 12 17 18 14 18
13 16 20 21 21 23 27 27 28 30 32 34 35 35 35 35 36 33 29 25 22 20 17 15 17 17 13 12 9 8 9 12 14 14 10 7 9 12 16 18 16 15 14
9 11 16 20 21 21 21 24 25 25 27 29 32 31 33 34 33 33 34 32 29 25 20 16 12 10 9 10 9 14 14 14 14 14 15 14 15 17 18 19 16 16 19
4 7 14 18 20 20 21 24 20 20 24 25 27 29 28 29 33 33 32 31 32 31 28 24 19 16 15 16 16 15 13 11 11 12 13 17 16 20 20 19 15 18 16
3 3 8 14 17 19 18 22 23 22 20 22 24 26 27 27 26 28 30 30 28 28 28 27 24 20 19 17 16 16 15 13 13 15 16 20 21 22 20 20 16 16 15
8 3 7 11 14 15 14 15 15 14 19 22 21 21 23 24 24 22 25 26 25 25 25 24 25 23 21 18 16 15 15 15 13 13 17 23 24 23 19 16 14 12 11
11 8 6 8 9 13 14 13 14 14 15 15 16 14 16 20 22 21 21 24 24 25 23 22 20 20 20 18 16 15 15 18 14 14 19 23 24 17 16 16 16 14 17

GFSSE_250_spd_102.txt.gz
Wind_Speed
6 2 10 17 14 20 28 29 33 38 33 32 27 23 25 22 24 24 27 32 29 29 26 27 27 24 18 21 23 29 36 31 28 25 17 9 7 5 4 6 6 10 5
11 7 2 11 22 20 23 23 24 28 29 23 27 29 31 32 33 32 33 28 29 28 24 21 20 19 21 26 30 33 26 25 18 12 5 2 3 3 2 2 5 3 5
15 8 7 3 7 12 27 25 29 33 36 36 33 30 29 31 31 33 34 35 33 31 18 20 25 26 29 32 32 23 16 15 13 11 5 3 4 3 6 4 2 5 5
19 14 9 5 1 4 10 22 31 37 42 42 44 45 46 52 44 40 39 38 33 23 27 30 34 29 31 28 18 12 8 8 8 6 4 7 6 3 3 1 2 3 6
24 22 17 10 5 2 3 6 10 16 21 26 36 46 49 50 48 48 38 35 32 32 32 29 30 29 24 12 10 5 5 7 7 7 8 7 9 7 4 2 4 4 5
25 25 24 22 13 6 3 4 5 8 14 17 19 21 27 33 37 38 34 31 35 31 26 24 25 15 7 4 4 3 4 7 7 6 10 7 3 3 2 3 5 5 6
25 26 27 26 23 16 8 5 4 7 6 9 11 13 13 14 21 26 31 28 25 21 17 18 15 13 9 5 6 4 7 8 6 8 9 7 7 2 2 4 5 6 6
24 25 25 26 27 21 12 4 5 5 6 5 5 7 9 9 10 13 16 19 19 18 17 17 16 13 8 7 7 7 10 7 7 7 8 6 5 4 3 3 4 5 6
22 28 29 30 31 32 21 10 4 5 6 5 3 2 4 10 15 17 19 20 22 20 18 16 11 7 7 8 7 10 7 3 6 7 8 5 6 4 0 2 4 5 8
27 30 33 31 34 32 32 25 16 12 9 4 4 9 12 14 14 16 13 12 14 13 10 9 10 14 14 11 12 6 4 2 6 7 7 3 4 4 3 4 4 6 10
30 33 36 34 34 34 31 27 23 18 14 11 9 11 14 16 15 10 7 7 4 4 8 12 16 15 12 17 15 6 4 3 5 9 6 5 4 3 5 6 9 12 14
28 33 37 37 33 35 35 32 28 25 24 24 21 19 18 16 15 15 15 17 19 20 18 21 19 16 17 18 13 5 3 7 9 7 7 4 3 7 8 11 14 15 16
28 33 37 39 36 31 34 37 36 31 30 25 23 27 27 27 31 35 37 33 29 35 20 26 25 22 6 16 8 8 8 7 8 8 5 3 8 8 11 13 13 15 17
27 31 35 39 39 36 30 31 36 33 29 20 27 33 36 39 37 39 36 19 22 33 17 31 26 15 8 8 6 8 7 7 8 6 3 8 9 9 11 11 14 17 20
26 29 32 36 40 39 37 30 28 34 33 30 31 35 37 39 39 36 40 36 22 30 30 24 18 12 11 7 9 6 7 4 4 4 6 8 9 11 11 11 14 18 20
23 26 29 32 37 40 38 36 31 30 31 33 35 29 32 29 31 30 35 37 31 28 24 17 17 16 10 10 9 8 7 8 7 8 7 10 12 10 11 12 15 18 21
22 24 26 28 31 36 39 38 36 33 32 32 33 28 28 24 26 20 27 27 30 22 19 23 18 14 12 8 8 7 9 9 8 6 9 10 10 11 12 14 15 11 17
18 21 24 26 29 32 35 36 37 37 36 34 31 30 30 25 22 22 21 20 21 20 18 17 15 12 8 5 9 10 10 8 7 6 9 9 12 13 13 17 14 18 17
18 19 22 25 26 30 32 35 35 38 38 38 36 32 30 27 26 24 20 17 15 14 12 11 9 8 11 12 13 10 9 8 6 6 7 8 12 14 15 15 13 17 21
18 16 19 24 26 28 30 31 33 34 37 38 38 38 34 29 26 25 22 22 20 15 12 11 13 14 13 12 9 7 6 8 9 8 6 6 13 18 14 12 16 18 21
16 17 17 21 23 25 28 30 32 32 35 36 39 40 38 36 30 26 25 26 22 13 16 13 11 10 10 10 10 13 13 15 15 16 13 14 19 21 16 15 14 21 27
13 13 16 19 22 23 25 25 29 32 33 36 36 37 38 37 33 29 31 26 20 19 18 14 11 11 11 14 13 13 14 13 13 16 16 21 22 19 13 14 21 21 22
8 11 14 18 20 23 26 29 30 30 29 31 30 39 37 34 36 38 21 29 20 26 24 16 17 16 17 16 17 18 18 17 16 13 18 26 21 17 13 18 21 20 23
1 5 9 13 16 17 16 21 22 25 23 29 24 24 32 32 34 43 36 29 29 20 20 18 16 15 17 19 19 18 20 20 18 15 23 24 18 16 16 17 20 24 30
3 2 7 10 13 15 15 15 21 20 23 19 21 20 26 34 33 38 38 32 28 32 26 23 19 17 17 18 17 21 27 28 20 19 21 19 16 15 19 21 28 28 24
7 6 5 7 12 12 15 15 18 20 20 17 12 17 20 22 32 31 34 39 41 18 28 24 22 21 20 16 14 12 16 22 17 23 24 6 11 19 24 29 25 24 28

GFSSE_250_spd_105.txt.gz
Wind_Speed
8 1 6 11 26 34 29 31 27 30 26 22 20 22 23 24 22 23 26 25 21 25 29 27 26 27 22 16 18 21 26 29 27 25 18 9 10 9 4 5 8 8 6
11 6 2 11 14 32 38 33 34 33 32 28 31 31 31 24 26 27 25 27 33 26 20 27 30 19 17 18 23 27 33 32 22 15 14 8 8 2 4 3 7 5 7
19 12 6 2 12 18 29 38 42 39 38 36 33 29 28 33 34 33 30 33 29 33 29 27 17 16 20 28 25 28 21 15 13 12 9 6 6 5 5 6 6 6 6
24 21 15 8 2 8 14 26 31 30 31 29 29 31 36 32 37 33 32 32 39 42 29 19 15 22 27 26 24 20 10 5 10 11 6 5 5 3 4 2 5 6 10
24 23 21 15 7 6 9 12 22 34 33 32 29 33 35 39 41 42 42 44 40 31 19 19 24 27 26 26 17 8 7 8 8 8 6 6 5 2 2 3 7 10 10
23 21 18 15 9 6 8 12 12 20 21 23 26 28 34 41 46 48 47 41 31 24 19 27 27 23 19 10 7 6 6 8 6 6 6 6 5 4 8 10 12 13 12
24 24 25 22 18 4 7 7 6 6 5 9 10 12 13 13 13 15 17 17 21 21 22 16 11 12 9 5 5 6 5 4 3 2 5 5 6 9 12 14 16 17 13
29 27 28 28 26 16 3 1 3 3 4 5 5 7 8 10 11 11 14 16 17 16 14 11 10 11 7 4 5 5 4 5 3 1 4 5 6 9 13 15 15 14 12
32 29 30 31 30 28 22 15 9 4 4 3 2 4 7 10 14 16 16 17 17 13 11 11 12 9 6 4 5 5 5 2 2 1 1 3 8 12 11 13 14 14 16
34 32 30 35 31 29 26 23 19 14 10 7 8 11 10 12 10 8 6 6 10 11 15 15 11 12 10 10 10 7 4 4 3 3 1 7 10 8 11 12 14 16 19
34 35 32 33 33 29 24 25 25 27 24 20 20 17 15 15 16 17 12 4 7 10 12 14 15 14 14 13 10 9 8 5 4 3 4 8 9 10 15 16 19 23 22
35 38 38 30 30 29 26 25 31 31 26 20 23 24 26 29 35 37 36 27 17 18 21 23 18 11 14 14 12 10 9 4 2 3 6 9 9 15 17 20 21 21 23
34 38 38 37 30 27 29 26 31 30 30 35 33 36 38 39 36 30 27 31 24 21 26 26 25 12 11 8 9 6 3 4 4 10 9 9 13 16 15 15 18 22 25
31 37 40 39 39 34 26 31 28 31 33 39 41 32 30 29 25 26 28 33 24 25 28 28 19 18 9 10 5 10 7 5 11 13 12 12 14 14 12 15 23 28 27
29 31 36 39 40 40 38 26 27 26 30 34 31 34 35 35 23 28 30 30 28 27 22 19 18 12 11 11 10 13 11 10 14 14 12 12 12 11 13 17 21 23 31
28 28 33 36 38 42 45 43 31 28 28 29 28 28 32 27 17 27 25 26 25 22 21 15 12 11 12 14 12 12 11 15 15 12 11 12 12 12 14 15 16 27 32
27 28 31 33 38 40 44 45 42 36 29 29 28 22 26 27 26 23 25 22 17 13 17 16 15 13 11 13 10 12 13 13 12 9 12 12 11 16 15 17 18 17 22
27 29 29 32 36 39 40 42 43 41 39 33 25 24 24 24 20 21 20 19 15 13 13 13 11 10 12 11 10 11 10 10 9 8 13 12 17 17 18 20 27 24 23
23 26 28 29 32 37 41 39 40 44 45 44 38 27 24 27 23 23 21 19 14 13 12 12 14 15 17 12 9 10 9 9 8 8 13 18 18 17 17 21 26 29 28
22 23 23 25 28 33 37 39 40 39 47 45 45 42 33 25 20 21 29 24 21 19 15 16 15 13 12 8 9 10 12 12 11 13 20 20 20 16 15 21 29 36 40
18 22 22 24 24 27 33 33 35 35 42 44 42 45 38 35 32 25 14 15 19 16 13 9 8 8 11 15 14 12 13 12 14 18 22 20 17 15 14 19 32 40 38
14 18 19 22 27 29 31 30 33 32 34 41 42 46 46 36 33 28 21 24 29 21 17 17 16 17 16 17 14 14 14 13 15 23 22 18 17 18 17 30 34 39 37
8 13 15 14 17 21 24 26 29 33 26 33 36 42 47 42 38 33 23 29 28 27 24 20 20 19 19 19 17 17 18 18 21 26 19 18 18 19 27 31 35 36 36
3 7 10 13 14 15 22 24 25 23 23 26 26 32 39 40 44 36 28 35 35 34 29 24 22 22 19 22 30 28 27 30 30 21 18 15 19 22 30 26 23 29 30
4 3 7 7 11 16 19 19 21 21 17 19 22 21 29 34 38 40 40 38 39 40 38 32 27 25 17 18 27 31 28 31 26 22 13 12 14 17 13 30 37 27 13
5 5 6 6 4 13 17 18 17 17 18 16 19 23 17 23 28 32 34 36 40 38 38 32 29 25 17 16 11 16 25 22 15 10 13 12 13 10 24 23 20 19 23

GFSSE_250_spd_108.txt.gz
Wind_Speed
7 2 10 14 33 33 30 33 34 30 37 31 20 19 19 18 18 24 25 28 26 25 24 26 24 21 25 23 17 18 24 27 30 26 21 20 16 17 13 8 7 11 12
10 6 1 9 20 32 33 35 36 31 30 37 31 24 24 20 29 33 32 21 25 27 26 23 23 34 23 17 17 26 29 28 25 19 18 15 13 13 12 12 11 13 14
17 10 4 3 13 26 33 35 37 36 31 34 36 33 30 32 36 33 29 29 30 28 28 30 28 21 14 17 22 25 25 23 14 12 14 15 15 14 9 12 14 17 17
18 16 11 3 4 12 31 38 37 40 40 36 34 36 39 41 35 33 32 35 37 35 36 32 26 20 18 20 26 24 21 15 10 9 10 12 12 9 9 11 13 16 21
22 16 11 5 5 9 12 17 27 42 44 43 44 37 32 33 35 35 33 34 39 33 30 31 16 11 16 20 23 24 13 9 8 11 12 11 8 8 9 14 19 20 20
23 21 17 9 5 11 14 16 15 17 22 28 34 31 29 32 34 33 39 36 37 35 30 19 12 20 20 17 15 10 7 6 5 7 8 8 9 13 17 19 21 22 21
27 30 25 19 9 10 11 11 13 12 14 19 21 22 21 22 23 24 22 21 18 15 15 15 11 12 10 7 4 4 3 3 3 6 5 7 12 14 19 22 23 21 19
31 34 32 25 21 11 7 5 6 7 9 8 7 8 10 10 11 11 8 7 9 13 10 6 6 9 5 3 3 0 4 3 4 5 6 10 13 17 19 19 19 20 22
34 32 36 30 25 22 18 15 10 4 1 1 2 3 6 9 11 13 13 14 11 8 7 7 7 6 1 3 7 8 5 4 4 6 8 12 16 16 15 16 20 23 24
38 32 32 32 28 26 25 24 20 17 14 9 4 3 3 5 7 8 8 9 8 11 12 9 8 8 5 8 10 9 8 8 7 7 11 13 14 11 17 22 25 25 24
39 38 33 34 30 29 27 24 20 18 17 17 22 17 17 18 15 13 7 4 8 17 18 13 13 8 10 12 12 13 11 9 9 11 10 12 10 16 21 21 22 26 29
39 40 39 33 26 22 26 27 23 22 26 33 33 33 32 34 29 25 23 17 14 19 23 20 20 18 15 14 12 13 12 12 10 10 10 9 14 16 19 24 28 30 31
37 39 42 38 27 24 28 29 32 33 25 28 27 28 26 29 32 30 27 27 32 33 31 25 20 19 15 12 12 11 14 13 11 11 11 12 16 17 20 26 30 34 40
37 39 43 41 35 30 24 21 24 26 26 20 16 16 20 27 30 26 33 33 37 34 30 25 18 18 18 15 15 15 13 11 15 14 12 14 15 17 19 24 29 31 37
34 38 39 42 44 40 31 25 23 25 27 26 21 20 24 28 29 32 34 33 30 26 24 22 20 16 18 16 14 13 12 18 15 13 13 16 18 16 19 22 24 26 31
34 34 37 39 44 44 44 36 29 25 23 25 23 20 21 24 27 26 28 25 24 23 20 19 19 17 14 14 12 14 18 16 14 14 15 18 15 15 16 16 19 24 27
30 33 35 36 41 45 47 47 38 29 29 23 22 26 25 22 23 23 21 18 16 21 21 16 14 13 9 15 17 13 14 12 14 15 18 20 17 21 21 22 22 23 23
25 28 32 35 37 40 46 49 46 39 31 27 23 22 25 23 23 22 20 25 13 19 17 14 12 14 13 12 13 11 10 10 16 17 19 19 19 20 22 26 32 32 30
23 25 27 31 34 34 40 52 48 42 38 33 27 24 25 23 23 24 18 16 13 17 12 14 17 13 9 8 9 11 11 12 18 20 22 18 18 21 28 32 35 34 36
21 23 25 28 32 34 35 42 45 46 43 35 37 32 24 23 24 24 20 12 13 14 12 13 13 8 6 11 12 10 11 18 24 23 21 17 17 20 34 34 37 39 44
18 21 23 25 29 32 36 39 42 46 45 41 35 35 34 31 24 27 28 23 18 14 12 10 14 13 10 11 14 15 18 21 25 20 18 18 22 22 29 37 33 36 38
14 14 16 18 21 26 27 28 31 35 43 49 38 38 37 38 38 36 34 28 23 23 22 20 19 17 15 15 17 19 19 21 18 21 18 24 24 18 23 31 32 38 39
8 11 14 16 17 20 20 21 25 29 30 35 41 41 40 41 43 43 42 38 34 29 27 26 32 31 26 25 26 27 24 25 23 21 20 17 16 21 26 28 23 24 28
4 4 9 13 12 15 16 17 21 26 26 26 31 36 40 38 43 41 44 40 35 31 27 26 28 34 33 32 30 31 27 26 24 19 16 13 17 27 32 24 26 24 25
4 1 3 6 9 11 14 16 18 19 24 25 26 28 35 37 38 39 41 41 35 34 31 28 25 22 30 29 27 28 22 21 16 16 14 11 18 17 17 13 18 19 24
1 3 3 2 7 12 13 15 14 18 18 17 21 23 22 27 34 36 34 37 39 37 33 32 28 24 24 25 26 24 17 9 10 15 14 12 12 15 20 25 23 16 19

GFSSE_250_spd_111.txt.gz
Wind_Speed
5 6 16 24 27 23 26 28 33 33 34 39 32 22 25 22 17 20 18 19 20 25 23 21 22 20 20 29 21 19 19 27 27 28 23 21 19 19 17 12 14 16 17
7 4 11 20 32 28 30 30 26 37 33 31 32 28 21 20 19 18 18 25 26 29 26 23 21 21 24 21 23 15 23 23 25 19 17 18 19 17 14 15 15 17 18
9 4 6 15 20 39 37 35 37 30 34 37 37 35 33 28 27 28 26 27 32 26 27 24 27 27 33 30 18 20 22 24 20 17 16 17 15 14 13 13 15 17 20
13 8 3 11 19 26 36 38 38 39 37 30 32 35 35 36 32 33 32 31 26 29 31 30 31 36 34 19 14 20 23 20 13 12 11 11 11 11 12 15 20 22 23
25 15 6 7 13 23 37 34 38 39 40 38 33 32 34 36 36 35 33 29 32 31 34 34 34 24 17 12 14 19 18 10 9 10 10 9 10 13 16 21 22 21 20
34 26 16 7 8 14 22 33 38 34 35 40 41 39 37 36 31 32 32 31 29 31 31 30 23 13 10 14 20 13 5 5 6 8 9 10 13 18 20 22 20 20 20
35 33 22 16 9 12 13 14 15 16 16 18 22 25 27 27 27 28 34 31 25 20 17 13 8 9 15 19 8 2 1 3 5 8 9 12 17 17 18 20 22 24 24
34 35 28 23 17 9 9 8 9 12 12 11 15 19 20 19 19 18 17 18 15 15 9 9 11 15 9 2 1 5 6 4 8 9 11 14 15 17 20 23 24 23 21
38 35 31 28 22 17 11 8 7 8 10 12 13 15 15 15 15 14 15 12 11 13 12 8 9 6 5 3 6 7 8 8 9 10 11 14 16 18 23 24 27 26 25
33 32 30 28 26 23 22 17 14 9 5 7 9 10 11 13 15 15 13 12 15 17 15 15 8 5 6 11 7 8 11 13 11 9 14 14 17 22 26 29 28 29 24
40 35 29 26 25 22 18 19 16 17 14 14 16 14 14 10 9 10 10 12 16 20 21 15 10 10 13 10 10 13 13 11 9 11 14 16 20 21 24 28 35 34 31
43 39 32 26 27 28 28 27 26 28 27 30 28 27 23 22 19 15 17 18 19 22 19 14 18 16 14 13 13 15 12 12 10 14 14 14 17 20 23 29 34 34 34
45 41 38 30 26 25 27 23 21 22 23 21 21 24 22 19 22 24 28 27 25 21 22 22 20 19 14 14 16 14 13 11 15 15 15 17 16 18 19 24 27 33 33
42 42 40 36 29 25 25 23 20 16 18 17 21 27 25 27 34 37 39 36 34 28 24 18 17 15 17 17 16 13 12 17 18 17 18 16 16 15 21 25 27 25 29
37 44 44 40 37 27 26 22 24 24 21 21 23 28 26 29 32 33 34 32 28 25 22 20 21 19 18 15 13 11 17 15 17 19 16 13 14 14 18 21 24 28 26
37 42 44 45 40 33 27 25 23 25 27 27 27 25 27 27 27 26 23 22 23 22 19 19 19 14 15 15 14 16 14 14 21 19 15 19 19 19 19 23 26 27 31
35 36 46 45 40 35 34 29 27 26 26 28 25 24 23 22 23 23 25 21 23 18 14 14 15 17 21 20 14 11 9 20 22 19 18 19 22 31 36 35 36 35 34
33 37 37 43 39 36 35 35 35 31 28 27 25 24 21 22 21 23 19 14 16 18 20 23 23 20 15 12 10 10 14 24 22 22 20 24 32 41 39 40 43 44 42
32 37 36 39 41 42 41 34 36 37 31 26 25 27 25 23 19 18 17 17 20 19 19 20 19 15 11 11 14 16 23 26 23 20 20 26 34 35 36 39 42 44 45
26 32 35 37 36 42 46 40 41 40 41 35 29 21 27 27 22 22 21 18 16 16 16 16 14 14 14 14 16 17 23 23 22 20 19 21 31 33 36 38 40 39 42
19 20 25 29 28 33 34 41 41 38 41 44 42 33 33 30 29 24 22 19 18 19 19 18 18 18 18 19 20 22 28 23 20 19 19 28 37 33 24 29 36 30 32
17 17 18 22 23 27 31 31 35 40 43 42 45 44 40 38 34 32 32 32 30 31 28 25 24 22 23 24 23 29 26 20 17 18 17 25 34 35 21 23 33 29 29
12 14 16 15 18 21 28 29 28 31 35 41 44 44 41 42 39 35 33 33 33 32 32 31 29 27 28 28 27 31 24 18 18 14 22 31 25 18 17 22 28 24 28
6 9 11 10 13 18 21 24 27 28 28 32 38 41 38 38 42 41 39 31 29 28 30 35 35 33 32 27 25 23 21 18 18 15 25 19 16 15 22 21 23 20 24
3 4 7 10 12 15 16 17 16 19 23 23 25 29 34 35 38 37 40 39 32 30 28 31 32 31 27 26 21 19 15 13 15 17 16 14 21 23 24 23 16 18 25
4 4 4 9 14 15 14 16 15 14 15 17 17 20 25 30 31 33 38 42 41 33 29 24 26 29 25 23 20 13 10 8 14 14 14 14 17 18 21 25 20 22 22

GFSSE_250_spd_114.txt.gz
Wind_Speed
2 6 13 21 25 30 22 25 24 32 29 27 27 25 20 28 26 25 19 22 20 14 15 20 20 20 14 18 22 29 26 20 21 26 20 18 17 18 14 13 16 17 17
4 7 14 22 31 26 19 28 29 33 29 29 30 35 30 25 22 20 19 18 14 18 20 26 24 23 20 24 29 32 19 21 22 19 16 14 18 15 14 14 15 18 21
3 7 12 17 25 24 23 28 24 26 35 34 34 35 29 24 24 21 22 21 21 22 25 27 24 26 26 27 34 29 14 19 22 18 17 19 16 15 16 17 21 22 23
6 6 13 17 22 27 30 33 34 33 36 34 35 38 35 30 29 28 30 28 28 26 28 21 26 28 29 31 24 15 15 19 18 12 13 13 15 17 18 21 23 22 21
11 1 12 20 22 26 26 35 37 38 33 35 39 39 38 37 37 35 36 35 33 26 25 23 22 26 23 24 17 14 17 13 7 9 11 14 15 16 19 21 21 21 22
20 15 6 14 22 23 25 34 38 40 39 40 40 37 37 36 36 35 36 34 29 26 23 23 23 24 25 16 12 16 12 4 7 10 13 13 18 20 22 23 23 22 20
30 24 17 12 16 22 24 29 32 34 35 39 39 39 41 38 35 33 36 32 29 25 25 17 15 15 13 12 16 3 3 8 10 12 13 18 20 22 23 24 21 17 15
32 31 22 17 13 15 15 20 29 37 31 32 33 34 34 36 37 30 26 27 21 16 8 7 7 3 8 6 1 5 6 7 12 13 17 20 21 26 28 24 20 21 24
31 31 27 18 14 12 10 10 12 15 18 20 18 16 16 16 18 20 20 19 16 9 6 5 5 6 5 4 9 8 10 14 13 15 17 19 21 24 30 30 27 28 28
29 31 29 23 18 15 11 8 5 6 9 11 13 13 14 15 14 13 14 12 13 12 13 12 11 7 9 12 10 10 12 13 14 18 19 19 21 23 28 30 32 31 29
33 31 31 33 24 16 13 17 20 17 13 6 7 5 6 12 15 17 15 14 15 16 17 11 10 6 13 12 13 12 13 15 17 18 18 21 21 23 26 29 30 31 31
37 32 30 31 29 27 25 26 25 25 25 23 19 15 12 10 10 12 14 18 23 18 17 13 11 16 18 16 14 16 15 16 17 17 18 18 17 20 28 28 22 28 30
38 37 30 30 29 24 18 17 19 20 19 19 19 24 21 19 22 23 25 25 24 20 15 17 18 17 15 16 18 15 18 17 18 19 18 16 16 18 23 26 24 23 26
38 35 31 30 29 28 26 22 21 23 28 30 29 30 31 33 34 35 35 32 28 26 23 20 18 13 16 17 17 20 18 18 21 18 17 17 19 20 21 26 25 22 21
38 36 33 30 32 28 29 29 30 31 29 30 32 30 31 32 31 30 30 29 26 22 19 16 15 17 18 16 18 18 18 22 22 18 18 21 21 24 25 24 27 25 24
38 38 39 37 36 33 29 28 29 29 27 28 30 26 27 27 26 27 25 24 21 21 21 19 17 14 18 23 20 17 20 24 18 20 22 29 38 43 44 42 39 34 30
38 41 40 39 37 34 31 29 27 26 28 26 24 25 22 25 26 25 24 20 18 16 16 15 16 20 22 23 19 18 27 23 21 25 33 42 46 44 46 47 48 43 39
37 43 44 44 38 35 36 30 28 25 27 26 24 22 21 18 19 19 18 19 21 25 25 24 21 20 18 17 18 26 27 21 21 33 40 39 42 42 36 36 38 45 44
34 37 42 43 39 40 36 35 32 27 24 28 25 23 23 20 16 18 22 21 22 20 19 19 19 20 23 22 29 30 26 21 25 31 31 32 26 35 35 35 38 41 47
25 28 33 36 40 39 43 38 33 29 36 30 26 24 24 22 21 21 22 20 21 22 24 23 24 23 25 28 31 28 23 21 30 34 28 24 21 31 33 31 37 40 44
15 17 28 30 35 38 39 41 42 39 38 36 31 29 27 28 27 26 26 26 26 25 27 25 26 29 30 33 30 25 20 30 34 32 28 18 18 24 29 30 28 31 38
17 14 20 24 31 31 34 37 43 43 44 40 37 32 28 35 35 34 32 31 30 31 31 33 32 33 35 32 26 21 17 22 27 25 16 11 15 22 24 24 26 27 32
15 15 16 21 22 25 28 33 34 40 43 43 42 43 32 26 26 30 30 31 30 32 35 39 39 36 35 29 21 21 20 27 21 20 23 20 20 23 27 29 25 24 27
10 11 9 14 14 17 21 22 27 30 34 37 39 41 39 36 27 25 28 28 36 38 41 39 37 34 31 26 24 21 22 21 19 17 19 21 23 24 25 25 26 22 24
6 8 8 9 9 12 14 17 20 25 25 29 32 35 37 39 38 33 31 33 36 37 36 35 31 26 24 19 18 17 15 17 15 14 17 18 16 21 23 21 25 20 20
5 6 7 8 9 11 13 14 16 18 22 24 24 27 29 32 36 39 35 31 28 32 31 27 26 23 19 15 12 11 13 13 12 16 16 17 17 18 21 22 23 20 20

GFSSE_250_spd_117.txt.gz
Wind_Speed
5 11 14 17 25 20 14 24 31 31 29 27 32 30 19 16 23 25 25 21 18 18 19 20 19 20 28 21 22 27 31 32 23 20 24 21 19 22 16 15 14 17 20
5 12 15 18 25 25 15 25 24 26 30 29 30 29 22 26 30 31 25 21 20 17 17 22 21 26 25 25 26 26 29 20 17 21 24 20 21 15 18 19 22 23 24
7 13 19 22 24 30 20 26 23 24 31 31 33 32 30 31 28 28 22 17 18 18 22 23 26 21 23 26 27 28 18 15 21 23 19 17 16 19 21 23 24 23 22
7 17 21 25 30 32 24 24 28 29 31 36 30 31 30 35 33 27 23 21 24 25 26 25 20 22 18 19 20 18 15 16 20 13 12 15 19 20 22 23 24 23 22
3 18 24 24 33 33 27 28 28 27 32 42 32 32 35 36 28 27 25 28 30 29 30 30 22 21 25 22 22 12 12 16 6 8 12 18 20 21 25 24 21 20 20
6 9 23 26 31 33 34 35 30 31 30 36 33 35 31 30 35 35 36 33 35 33 31 30 24 24 24 21 14 13 12 4 6 12 19 21 24 25 26 22 17 18 17
18 12 14 20 23 23 24 30 32 38 36 36 36 38 37 39 42 40 39 36 35 31 27 22 19 19 11 7 9 1 8 9 12 14 15 18 22 28 28 24 22 20 21
26 20 14 14 16 15 13 15 18 33 36 36 34 35 37 38 37 38 38 34 28 23 17 14 11 3 0 3 1 6 7 11 13 14 15 18 21 26 27 24 21 22 21
28 24 20 15 12 11 13 16 20 24 29 30 27 28 31 31 31 30 27 20 14 8 9 12 7 2 2 4 11 12 12 14 14 13 15 19 22 26 24 25 24 25 24
32 29 23 20 16 10 6 6 12 18 24 27 28 27 23 23 22 19 16 13 8 13 13 8 8 7 12 14 14 12 15 16 18 19 15 18 21 27 20 22 24 26 26
32 31 28 27 24 22 24 22 16 8 8 10 11 16 20 21 18 15 14 15 13 13 14 15 13 14 15 16 14 14 16 19 18 15 14 16 20 23 20 18 21 23 25
35 34 29 26 26 23 20 20 19 17 16 12 9 9 11 15 20 19 20 17 16 18 20 15 15 19 19 17 17 16 16 19 16 14 14 17 19 19 18 16 17 20 22
33 33 30 29 23 17 18 15 16 15 16 17 12 8 10 12 14 17 18 21 20 22 21 18 22 21 20 20 20 18 24 21 16 14 17 19 19 20 24 22 20 20 21
33 32 31 30 29 27 22 26 28 30 31 35 35 27 21 20 23 26 28 26 24 25 20 24 17 16 20 24 19 26 24 20 15 22 29 36 31 28 26 22 21 19 18
34 33 31 31 30 28 30 29 29 31 30 31 34 34 33 32 33 32 29 27 25 23 25 19 19 20 21 24 26 26 23 19 24 41 43 44 42 39 32 29 28 26 25
36 34 31 28 28 28 30 29 27 27 26 26 28 29 32 31 32 30 26 22 20 21 18 19 21 20 28 23 31 26 22 27 40 41 42 38 36 36 38 39 37 34 37
33 34 31 30 26 27 26 27 26 24 21 21 23 27 27 26 25 24 27 24 23 23 19 16 18 27 27 31 29 26 26 39 40 40 39 36 36 37 42 44 43 39 37
37 36 36 34 28 27 25 23 27 23 22 21 20 21 21 21 22 20 19 22 25 26 27 27 25 24 32 33 28 26 36 36 31 34 34 31 32 38 41 44 45 44 39
37 36 40 41 39 34 34 26 25 25 24 24 23 19 17 20 22 26 27 27 26 26 25 26 30 36 38 31 27 26 33 30 25 25 32 30 29 30 32 37 39 42 43
32 32 37 41 42 43 37 34 27 27 26 25 26 23 21 20 22 24 23 23 27 29 30 30 41 40 36 30 28 32 28 28 22 22 26 27 22 22 25 30 32 35 40
27 28 30 34 38 42 44 40 37 26 29 30 28 28 25 21 21 24 27 29 35 34 35 40 41 38 34 29 35 36 31 24 17 13 19 21 20 21 20 25 30 34 35
21 25 24 26 31 37 41 41 40 36 31 30 30 30 30 23 22 22 30 33 36 36 40 44 40 35 30 26 24 29 19 15 13 17 23 27 26 24 22 21 24 29 32
15 17 21 22 26 28 32 36 38 39 35 32 25 24 24 25 25 28 30 37 42 45 43 41 36 31 25 22 23 24 19 23 24 19 21 24 23 23 23 21 21 24 28
10 10 11 14 17 20 26 26 26 31 36 36 37 31 27 27 29 34 36 40 44 42 39 36 31 26 25 24 25 20 20 18 17 15 15 18 20 23 22 18 20 21 26
7 9 7 7 11 18 18 24 24 26 28 32 35 36 34 33 32 35 38 40 41 38 35 30 27 24 23 27 18 17 16 18 15 14 14 14 17 18 19 19 19 20 23
7 8 8 7 10 12 16 20 22 20 22 27 29 32 36 34 31 30 35 34 30 27 26 23 22 19 18 16 14 12 10 13 16 18 16 15 18 21 21 17 19 21 23

GFSSE_250_spd_120.txt.gz
Wind_Speed
14 17 27 32 29 23 27 30 24 36 42 40 38 34 25 28 29 18 20 20 14 12 14 18 18 23 22 24 23 25 30 30 23 22 22 27 24 20 17 20 21 22 23
13 16 22 26 29 32 19 20 33 30 31 37 34 27 29 28 17 22 21 22 22 20 16 15 19 22 25 21 23 26 24 25 17 24 26 22 19 19 20 20 20 22 23
16 18 20 27 31 29 21 23 23 25 31 31 34 29 29 24 18 25 26 29 21 18 18 22 24 23 21 23 21 21 21 17 19 21 16 15 17 20 22 23 22 21 23
17 22 23 32 36 30 29 22 29 24 30 25 28 33 32 30 27 28 24 26 23 17 21 22 21 23 25 21 23 20 16 14 16 10 10 15 20 22 23 20 17 18 18
18 24 26 29 35 34 28 21 27 23 22 30 27 35 34 32 27 27 28 26 25 20 23 27 28 26 28 29 27 14 13 14 5 6 10 16 21 24 21 18 15 14 13
13 25 26 27 30 35 28 25 24 30 23 29 37 31 30 30 31 30 27 30 28 27 30 34 35 32 25 24 14 9 8 4 3 7 9 15 25 24 22 19 15 17 18
9 19 29 27 27 31 35 27 26 33 29 29 37 38 37 31 29 30 33 31 32 36 32 31 26 22 17 5 8 1 4 3 7 6 13 13 21 22 24 22 20 20 19
16 11 22 27 26 30 33 30 30 32 29 32 30 33 33 35 35 35 34 36 36 32 28 25 19 9 1 3 1 6 4 6 9 7 14 18 21 17 23 25 26 21 17
21 16 14 16 22 27 26 28 29 34 36 41 40 36 34 31 37 38 35 31 27 25 19 15 7 5 2 3 8 9 7 11 7 8 15 19 21 13 18 24 25 25 25
23 21 18 14 10 9 10 13 16 18 23 36 38 39 38 37 35 33 32 26 18 14 10 10 10 6 8 12 12 9 14 14 10 11 16 17 16 17 18 20 19 25 24
30 27 25 25 22 17 11 9 14 16 19 23 28 30 29 29 27 25 23 16 13 15 14 13 11 15 15 14 12 16 15 12 12 10 16 16 19 18 17 18 20 20 23
25 22 22 19 16 14 14 15 14 11 11 18 22 23 23 22 19 15 16 17 18 16 15 15 14 17 16 14 13 16 14 14 11 13 13 14 17 18 19 16 15 17 19
27 26 22 17 13 12 12 13 13 10 8 10 14 17 17 17 17 21 19 18 17 18 16 15 18 19 17 15 17 17 16 14 19 26 27 24 25 23 21 20 19 16 14
28 27 26 25 25 25 25 26 28 23 19 15 14 15 16 16 20 23 23 23 18 20 19 23 20 19 18 23 23 21 23 37 35 35 35 34 28 26 27 28 26 27 22
23 25 28 26 25 25 27 26 27 27 27 28 22 22 23 25 27 28 25 23 23 24 24 18 20 19 25 26 24 25 36 36 35 32 35 34 37 34 33 31 31 31 28
27 25 25 25 24 22 22 23 22 24 27 31 32 31 31 30 31 29 26 25 26 24 20 23 23 24 31 27 32 35 37 38 34 33 36 39 40 39 38 32 31 30 31
28 26 25 21 18 21 19 18 19 19 23 26 29 33 32 31 30 26 25 25 24 19 23 20 26 28 30 32 37 39 35 34 34 33 34 36 37 39 39 38 32 25 27
36 32 28 24 19 19 21 18 18 19 20 24 23 22 26 28 29 27 27 27 25 20 22 28 29 32 30 38 34 33 31 31 28 27 26 28 32 34 36 36 35 34 32
39 38 33 33 29 26 25 22 22 19 19 18 15 17 18 22 21 24 25 26 29 32 31 29 36 33 29 35 29 25 27 26 24 22 20 23 25 30 32 34 35 35 34
36 38 40 40 41 32 27 27 28 26 19 17 18 21 20 25 27 30 29 29 29 28 30 39 37 31 29 31 25 21 21 19 24 21 18 19 22 24 28 30 31 32 34
28 33 35 37 39 38 37 26 25 25 28 23 18 19 23 23 23 25 27 27 29 34 42 41 34 29 31 26 24 22 17 19 17 17 17 20 19 19 23 25 26 30 34
19 26 29 31 37 38 38 32 24 22 25 26 27 20 22 23 24 25 29 34 35 40 43 37 35 37 31 27 23 19 16 21 24 23 20 19 19 19 19 22 25 30 33
11 17 24 26 24 26 28 34 33 25 21 24 29 24 21 24 27 32 33 34 40 42 38 34 33 35 34 23 20 22 21 20 20 22 20 19 18 17 18 21 25 28 30
8 9 11 20 21 21 25 26 30 33 29 26 29 26 24 28 29 34 37 43 42 39 34 29 28 27 24 21 20 21 19 16 13 13 16 18 18 18 19 20 21 23 26
9 8 6 11 17 20 21 22 27 32 38 30 31 29 27 31 41 42 44 43 39 34 28 23 25 24 19 19 20 18 18 13 10 9 14 18 17 14 17 19 21 25 27
10 11 11 12 13 19 19 14 18 22 24 31 32 30 29 33 34 39 40 34 28 26 23 21 22 22 14 11 9 10 13 18 16 18 18 19 21 21 14 18 20 24 29

GFSSE_250_spd_123.txt.gz
Wind_Speed
24 36 52 49 42 34 34 27 25 32 37 33 34 38 38 33 21 22 17 16 18 19 12 13 16 21 22 27 25 29 31 31 27 25 25 31 24 23 24 25 25 26 24
22 27 33 50 40 41 30 31 26 25 27 38 36 34 37 32 24 24 16 16 17 17 20 19 17 23 26 26 26 28 24 27 24 23 23 19 20 24 24 24 26 23 21
23 24 30 33 41 38 25 21 28 24 33 32 36 39 38 30 25 21 23 23 24 22 19 19 19 24 24 27 28 23 29 23 20 18 14 16 22 23 23 22 20 18 18
23 26 29 35 35 31 29 24 29 32 35 32 31 35 33 24 26 19 24 26 26 25 23 21 19 27 31 29 30 33 28 19 19 9 11 17 21 22 23 22 20 18 16
23 28 28 32 35 38 30 25 28 28 29 26 27 31 33 25 28 27 27 27 27 24 22 21 24 31 35 34 32 27 19 18 6 4 10 15 19 24 23 21 17 17 15
24 29 29 31 41 39 34 29 20 25 24 24 31 25 25 25 29 31 30 25 30 28 28 27 29 34 31 28 22 13 13 5 6 5 15 14 16 21 25 22 17 16 13
20 27 31 34 39 36 33 31 24 25 24 24 24 25 25 35 33 32 31 31 30 28 23 31 36 33 27 17 10 3 4 6 3 6 13 18 12 19 23 22 20 14 12
13 24 28 34 37 35 34 31 27 22 30 32 25 29 34 31 30 28 28 25 30 29 32 33 30 28 11 5 6 3 5 2 2 8 15 18 17 14 19 20 20 22 21
14 16 25 24 27 30 33 36 31 26 26 35 31 29 33 38 35 35 30 30 31 31 27 26 21 7 4 4 1 1 2 1 5 11 16 16 14 13 16 15 17 17 19
19 16 15 21 23 25 28 37 35 33 33 35 36 32 31 30 33 33 33 34 35 31 25 18 6 5 5 5 4 2 3 5 8 13 13 15 14 13 11 13 13 16 17
23 21 16 13 15 19 25 30 34 31 32 38 36 40 40 36 35 33 31 27 26 22 12 9 9 7 8 6 5 5 6 7 12 11 11 14 14 13 13 12 15 16 15
18 18 17 15 12 11 10 15 22 23 24 26 25 27 39 37 32 30 28 21 15 13 11 12 10 11 8 8 11 8 7 11 12 16 15 17 17 16 17 18 14 13 17
15 10 8 6 6 4 4 6 8 12 15 19 22 23 24 23 19 16 16 16 16 14 16 12 12 12 11 11 8 7 12 22 21 19 19 24 25 23 22 24 22 19 17
20 18 17 16 14 14 13 6 5 9 14 17 20 25 24 21 15 16 20 17 16 15 13 11 15 13 13 15 12 13 24 26 26 27 25 25 25 28 28 28 27 24 21
20 19 18 20 19 20 18 16 11 8 9 14 18 19 19 20 20 20 19 19 16 16 16 17 16 16 21 21 25 28 32 32 32 33 32 29 26 28 28 28 28 31 32
15 17 19 17 16 15 15 17 18 20 17 17 17 19 20 27 27 24 23 17 21 21 19 18 19 25 26 30 28 31 29 28 30 31 33 34 33 28 23 24 23 25 24
20 17 15 18 14 10 12 16 19 23 27 28 28 27 29 32 28 25 23 23 23 18 20 23 28 27 33 30 31 32 27 26 26 28 28 31 31 31 32 34 32 31 31
26 25 23 20 21 19 15 13 18 22 23 27 29 31 31 31 28 26 26 27 22 23 23 27 34 36 32 31 29 27 22 19 22 24 27 29 30 31 31 31 32 33 33
36 34 26 26 26 24 23 15 12 14 18 20 23 25 28 29 29 29 30 29 26 24 29 34 35 30 32 30 26 21 19 14 16 20 21 24 27 27 28 29 28 32 32
30 33 35 28 24 25 24 25 15 11 12 14 16 21 24 26 29 30 30 28 29 32 32 34 36 30 24 21 21 20 20 19 20 20 21 21 22 24 26 28 31 30 29
27 31 36 35 34 26 24 26 24 16 12 14 16 18 18 23 23 26 29 32 33 35 36 33 31 25 19 21 21 22 23 21 21 21 23 20 20 22 24 27 31 34 31
20 23 27 28 30 31 25 23 20 23 18 15 15 21 22 24 25 27 28 27 31 38 35 30 29 22 21 21 23 27 25 23 21 24 22 20 20 23 25 27 28 31 31
13 15 19 23 28 31 29 26 25 23 23 19 19 16 19 22 23 23 25 34 39 36 29 30 28 24 18 20 24 25 17 21 17 27 25 22 22 23 24 25 26 31 34
9 11 12 17 26 29 33 32 30 29 28 23 20 19 20 21 27 29 37 41 37 32 31 28 26 23 18 19 21 18 11 20 7 7 1 16 19 19 22 25 28 32 36
11 9 8 10 16 24 26 29 29 29 29 26 21 21 27 29 34 40 40 36 32 25 26 27 22 18 19 20 20 19 17 15 14 20 8 17 1 13 15 22 26 30 31
12 11 11 8 13 15 17 20 24 27 29 29 23 27 32 36 39 37 33 30 24 20 19 19 15 15 13 12 17 18 19 21 17 14 15 14 13 12 17 22 25 26 28

GFSSE_250_spd_126.txt.gz
Wind_Speed
49 41 41 42 36 35 31 30 19 19 12 9 16 20 24 27 33 35 28 16 16 17 19 18 15 19 18 26 29 31 34 38 36 39 29 25 20 25 27 27 24 25 24
34 52 44 44 45 31 33 32 27 24 22 15 24 28 29 29 35 30 16 16 13 18 17 16 22 20 20 26 32 38 38 37 37 30 25 17 23 25 26 24 22 20 19
32 56 54 45 45 46 34 28 21 23 23 22 25 30 36 33 33 31 23 22 19 18 20 26 21 22 21 30 37 39 37 35 29 25 13 17 22 23 23 24 19 17 16
24 35 49 52 44 43 35 29 27 25 23 24 29 29 26 32 33 29 21 22 18 22 24 24 21 25 27 34 42 39 37 29 21 14 14 22 19 22 26 23 21 18 16
21 27 36 42 54 50 44 28 23 23 24 26 31 32 29 35 31 20 20 17 17 20 21 27 27 28 32 39 42 37 28 21 13 12 16 19 14 20 23 21 17 14 14
12 22 29 37 35 35 30 33 33 26 29 30 32 28 26 27 30 22 24 22 23 24 28 27 25 28 35 37 38 27 16 14 15 12 19 18 13 18 20 18 16 13 13
16 26 26 32 35 34 32 32 27 25 28 31 24 25 26 24 22 24 24 26 25 26 25 26 28 33 36 36 28 16 15 15 14 13 18 18 13 15 17 14 16 17 15
16 18 28 28 34 41 37 32 32 26 25 26 21 20 20 25 21 27 28 24 21 25 26 28 32 38 31 20 14 13 13 12 12 14 18 18 16 15 16 16 17 19 17
14 23 24 26 34 43 35 33 30 23 24 24 21 22 24 25 24 25 20 24 27 24 27 35 38 26 9 9 8 11 11 11 13 17 19 19 18 16 18 15 15 15 15
13 12 20 25 31 42 37 31 33 32 27 22 24 28 26 25 29 32 30 29 28 30 32 34 23 8 8 7 10 9 9 15 19 19 18 18 16 16 15 14 14 16 17
13 11 14 21 24 31 34 32 34 37 34 28 28 27 29 26 28 22 22 25 26 29 30 24 9 2 4 10 9 8 14 18 16 17 19 18 18 20 19 16 15 18 22
24 11 6 14 17 20 25 26 26 28 36 38 36 37 35 31 29 27 26 25 27 23 19 4 4 5 10 10 7 10 15 18 21 23 25 24 24 25 25 24 21 21 23
9 12 9 6 8 6 10 13 19 18 27 33 31 31 34 32 30 27 19 20 24 10 7 9 10 11 10 8 8 11 15 15 21 23 28 28 26 26 30 31 33 34 35
14 8 6 9 10 2 9 6 11 18 22 27 28 28 26 21 15 15 16 16 10 11 10 11 12 12 12 7 12 21 29 26 20 21 22 23 24 26 29 31 31 35 38
15 10 11 12 9 8 6 3 8 10 15 20 22 21 19 16 14 13 11 12 11 13 12 16 16 16 15 18 24 27 29 29 32 32 30 31 33 34 33 33 32 31 30
13 13 9 8 8 8 12 6 2 3 9 15 21 21 22 20 16 17 18 13 14 18 20 20 21 19 22 25 25 27 27 28 30 31 32 32 32 34 35 37 36 34 32
14 12 17 12 7 6 12 13 20 5 8 12 16 20 20 21 24 20 19 19 23 22 22 27 25 24 25 27 26 28 27 29 29 28 29 30 32 33 34 35 33 35 35
17 18 20 22 16 11 12 16 17 18 23 19 19 25 28 30 23 19 20 26 22 26 29 23 26 28 28 25 22 22 22 23 24 25 27 29 33 36 37 34 33 36 38
23 20 18 21 22 17 11 12 16 20 20 25 26 29 26 26 25 28 28 25 30 36 30 30 23 24 22 19 16 16 17 22 23 24 28 32 35 40 44 41 33 35 35
27 26 21 18 21 20 16 10 12 19 21 20 26 27 28 30 33 30 29 33 44 41 34 24 24 21 19 17 16 19 21 25 26 25 30 38 40 40 42 41 37 34 33
24 24 27 22 19 19 21 13 10 15 18 20 22 23 26 28 30 30 31 43 43 33 21 25 18 21 21 19 20 19 22 25 28 32 34 34 38 38 38 31 49 40 39
20 24 22 26 24 21 18 18 12 15 18 17 20 21 25 27 26 25 31 47 19 35 33 28 14 16 12 18 22 19 23 26 29 33 30 28 37 38 35 45 31 42 43
14 20 21 23 25 26 24 18 18 15 18 17 19 22 24 23 23 27 29 26 26 41 26 10 20 20 21 19 12 5 8 15 4 11 16 22 24 37 32 31 10 42 31
7 13 15 18 24 25 25 25 22 20 22 22 21 22 26 27 27 28 31 32 41 37 18 18 10 4 20 7 5 10 7 9 7 10 3 7 13 18 15 23 34 32 27
2 5 10 14 18 22 22 26 27 26 23 23 22 23 25 28 38 41 37 32 34 28 30 26 23 21 14 13 8 8 8 13 22 21 11 6 15 27 18 15 21 25 23
6 3 5 9 11 15 19 20 24 27 25 23 25 28 32 43 43 40 37 33 33 31 30 28 25 20 16 14 13 12 11 13 16 19 18 17 22 19 12 13 14 17 19

GFSSE_250_spd_132.txt.gz
Wind_Speed
29 31 31 25 26 26 31 35 32 22 20 19 19 12 14 3 8 9 12 16 24 31 27 18 18 23 28 32 29 29 35 37 38 29 26 22 20 24 26 26 24 23 16
34 33 31 32 33 33 32 33 31 24 13 12 13 7 7 12 15 20 18 20 23 27 25 17 21 23 28 29 29 34 38 32 27 22 23 23 25 27 27 26 24 19 16
41 35 33 34 34 40 37 32 25 22 13 15 13 11 8 8 16 14 18 21 21 17 20 22 21 25 27 28 33 40 34 24 26 25 23 25 28 27 25 23 23 22 18
40 37 41 26 36 37 39 30 25 18 19 19 12 15 18 17 15 13 16 20 19 24 17 17 23 20 26 34 38 32 24 26 24 21 24 27 28 23 21 23 19 18 17
40 41 38 34 31 35 32 28 23 22 17 17 7 18 19 19 23 15 16 16 18 18 19 18 20 24 33 34 26 22 23 22 24 26 26 28 27 21 19 19 15 18 18
31 41 43 38 33 29 32 31 27 26 20 21 23 22 19 7 19 17 18 20 19 16 16 15 19 31 34 22 20 20 22 26 28 28 27 25 21 15 14 17 16 20 18
16 31 40 39 38 33 30 29 24 22 23 20 19 19 21 17 17 19 19 16 16 16 15 15 27 31 23 17 18 22 27 26 26 24 24 22 19 17 15 17 20 20 16
11 16 29 37 34 39 41 33 29 24 16 19 21 15 18 14 16 10 15 15 12 9 14 22 27 23 14 15 20 24 23 25 26 26 31 29 25 23 19 19 21 24 21
8 9 11 19 24 34 42 41 38 36 35 28 31 21 14 18 17 8 9 9 10 10 20 21 24 11 13 17 21 21 25 27 29 33 32 32 36 33 34 35 32 28 31
8 7 8 12 15 22 30 38 43 41 37 34 28 19 20 17 15 12 8 4 7 11 15 21 10 8 10 17 24 22 28 27 27 28 30 35 37 38 37 35 33 33 34
11 9 9 10 11 22 24 25 31 35 34 29 26 19 17 14 13 10 7 6 6 13 17 10 5 9 14 17 18 23 26 28 28 30 31 33 34 38 44 43 42 42 43
9 8 8 7 9 16 25 27 26 28 27 22 21 20 21 15 14 12 8 5 8 13 12 4 5 11 17 17 17 18 29 29 31 33 35 36 36 33 34 42 49 48 45
9 10 7 8 5 5 17 26 28 29 31 29 28 26 26 25 22 20 15 9 9 11 11 8 11 16 22 23 28 26 26 29 30 31 32 35 38 39 38 39 37 50 52
12 6 6 7 5 3 8 16 27 33 32 31 32 32 28 29 23 22 17 13 10 6 6 13 15 21 23 29 28 29 28 32 33 34 36 40 41 43 43 43 45 47 51
14 10 9 5 3 5 7 6 12 17 22 24 30 25 18 17 14 14 10 8 10 15 16 18 25 24 24 29 28 27 31 33 33 34 37 38 41 41 44 47 50 50 53
14 10 4 2 4 4 7 8 10 13 19 18 21 18 10 11 7 12 17 23 23 21 22 26 29 27 26 26 24 26 30 33 34 37 39 40 41 42 43 45 49 52 53
16 14 4 6 4 3 5 10 12 9 11 17 18 16 10 16 24 25 26 28 26 25 27 32 30 27 23 22 25 28 31 37 41 44 50 52 53 49 47 49 49 50 51
15 15 10 8 4 2 7 10 8 6 7 17 19 15 23 27 27 31 32 30 28 29 33 31 30 24 23 25 26 30 32 39 43 37 41 42 37 40 39 41 41 40 40
21 16 17 13 4 2 4 8 10 3 12 17 24 29 28 28 32 33 32 30 31 36 34 30 26 22 23 24 23 27 29 21 21 28 24 17 20 21 24 28 31 33 38
25 24 15 11 11 2 3 8 10 10 16 24 28 32 30 31 34 35 31 31 32 33 31 25 22 23 25 25 27 27 31 33 30 25 17 16 15 16 19 24 28 31 33
23 25 23 12 11 7 6 6 12 11 19 26 36 38 34 34 35 35 36 34 33 34 28 25 27 25 26 25 21 17 23 24 30 26 20 21 20 17 14 20 23 29 30
19 24 25 18 11 9 8 10 11 14 24 34 37 35 37 40 39 41 37 34 34 31 28 27 27 29 25 16 10 10 12 7 14 16 17 17 22 19 17 17 18 26 27
16 19 23 22 17 10 10 13 17 15 21 26 30 31 37 39 40 41 37 36 36 32 28 24 29 24 17 9 4 4 5 5 6 14 19 25 29 25 19 22 22 24 25
11 13 18 21 19 12 10 14 16 18 19 24 29 34 33 35 38 38 31 31 33 31 24 15 20 14 10 10 4 1 0 7 7 7 18 21 29 24 23 23 22 22 21
7 9 14 17 19 14 14 13 17 20 23 24 27 28 30 34 36 35 32 22 21 21 12 10 24 10 9 3 5 5 3 1 7 17 17 19 15 20 21 22 19 19 22
4 5 7 11 16 14 15 16 18 22 26 28 28 29 41 35 33 27 27 24 15 21 17 18 14 5 2 3 5 7 4 4 8 15 10 8 7 16 15 16 14 14 19